Wetterdaten: Montag, 06.04.2026
Datum Zeit Temp. I. Temp. A. Feuchte I. Feuchte A. Luftdruck Regen Wind Richtung Richtung Sonnenschein Solar Taupunkt Windchill Windböen
06.04.2026 00:00 23,7 °C 9,2 °C 43 % 73 % 1020,0 hPa 0,0 l/m² 6,8 km/h (2 Bft) W-SW 240 ° 0 min 0 W/m² 4,6 °C 8,9 °C 9,7 km/h (2 Bft)
06.04.2026 00:02 23,7 °C 9,2 °C 43 % 73 % 1020,0 hPa 0,0 l/m² 9,4 km/h (2 Bft) SW 223 ° 0 min 0 W/m² 4,6 °C 7,1 °C 12,9 km/h (3 Bft)
06.04.2026 00:03 23,7 °C 9,2 °C 43 % 73 % 1020,0 hPa 0,0 l/m² 8,8 km/h (2 Bft) SW 225 ° 0 min 0 W/m² 4,6 °C 7,5 °C 12,9 km/h (3 Bft)
06.04.2026 00:05 23,7 °C 9,2 °C 43 % 73 % 1020,1 hPa 0,0 l/m² 11,3 km/h (2 Bft) SW 236 ° 0 min 0 W/m² 4,6 °C 6,0 °C 16,1 km/h (3 Bft)
06.04.2026 00:07 23,7 °C 9,2 °C 43 % 73 % 1020,1 hPa 0,0 l/m² 9,5 km/h (2 Bft) SW 234 ° 0 min 0 W/m² 4,6 °C 7,0 °C 17,7 km/h (3 Bft)
06.04.2026 00:08 23,7 °C 9,2 °C 43 % 73 % 1020,1 hPa 0,0 l/m² 10,5 km/h (2 Bft) W-SW 243 ° 0 min 0 W/m² 4,6 °C 6,4 °C 14,5 km/h (3 Bft)
06.04.2026 00:10 23,6 °C 9,2 °C 43 % 73 % 1020,1 hPa 0,0 l/m² 8,9 km/h (2 Bft) W-SW 254 ° 0 min 0 W/m² 4,6 °C 7,4 °C 14,5 km/h (3 Bft)
06.04.2026 00:11 23,6 °C 9,2 °C 43 % 74 % 1020,1 hPa 0,0 l/m² 8,8 km/h (2 Bft) W-SW 248 ° 0 min 0 W/m² 4,8 °C 7,5 °C 11,3 km/h (2 Bft)
06.04.2026 00:13 23,6 °C 9,2 °C 43 % 74 % 1020,1 hPa 0,0 l/m² 13,1 km/h (3 Bft) W-SW 253 ° 0 min 0 W/m² 4,8 °C 5,0 °C 19,3 km/h (3 Bft)
06.04.2026 00:15 23,6 °C 9,2 °C 43 % 74 % 1020,2 hPa 0,0 l/m² 11,7 km/h (2 Bft) W-SW 244 ° 0 min 0 W/m² 4,8 °C 5,8 °C 16,1 km/h (3 Bft)
06.04.2026 00:17 23,6 °C 9,2 °C 43 % 74 % 1020,2 hPa 0,0 l/m² 13,8 km/h (3 Bft) W 262 ° 0 min 0 W/m² 4,8 °C 4,7 °C 17,7 km/h (3 Bft)
06.04.2026 00:19 23,6 °C 9,2 °C 43 % 74 % 1020,2 hPa 0,0 l/m² 13,9 km/h (3 Bft) W-SW 254 ° 0 min 0 W/m² 4,8 °C 4,7 °C 19,3 km/h (3 Bft)
06.04.2026 00:21 23,5 °C 9,2 °C 43 % 73 % 1020,2 hPa 0,0 l/m² 13,3 km/h (3 Bft) W-SW 239 ° 0 min 0 W/m² 4,6 °C 4,9 °C 19,3 km/h (3 Bft)
06.04.2026 00:22 23,5 °C 9,2 °C 43 % 73 % 1020,2 hPa 0,0 l/m² 15,9 km/h (3 Bft) W 277 ° 0 min 0 W/m² 4,6 °C 3,8 °C 20,9 km/h (4 Bft)
06.04.2026 00:23 23,5 °C 9,2 °C 43 % 73 % 1020,2 hPa 0,0 l/m² 15,5 km/h (3 Bft) W-SW 250 ° 0 min 0 W/m² 4,6 °C 4,0 °C 19,3 km/h (3 Bft)
06.04.2026 00:25 23,5 °C 9,2 °C 43 % 73 % 1020,2 hPa 0,0 l/m² 15,6 km/h (3 Bft) W-SW 252 ° 0 min 0 W/m² 4,6 °C 3,9 °C 20,9 km/h (4 Bft)
06.04.2026 00:27 23,5 °C 9,2 °C 43 % 73 % 1020,2 hPa 0,0 l/m² 14,5 km/h (3 Bft) W-SW 247 ° 0 min 0 W/m² 4,6 °C 4,4 °C 17,7 km/h (3 Bft)
06.04.2026 00:29 23,4 °C 9,2 °C 43 % 73 % 1020,2 hPa 0,0 l/m² 13,2 km/h (3 Bft) SW 219 ° 0 min 0 W/m² 4,6 °C 5,0 °C 17,7 km/h (3 Bft)
06.04.2026 00:31 23,4 °C 9,2 °C 43 % 73 % 1020,2 hPa 0,0 l/m² 13,6 km/h (3 Bft) SW 236 ° 0 min 0 W/m² 4,6 °C 4,8 °C 17,7 km/h (3 Bft)
06.04.2026 00:32 23,4 °C 9,2 °C 43 % 73 % 1020,2 hPa 0,0 l/m² 14,3 km/h (3 Bft) W 261 ° 0 min 0 W/m² 4,6 °C 4,5 °C 17,7 km/h (3 Bft)
06.04.2026 00:33 23,4 °C 9,2 °C 43 % 73 % 1020,3 hPa 0,0 l/m² 13,2 km/h (3 Bft) W-SW 255 ° 0 min 0 W/m² 4,6 °C 5,0 °C 14,5 km/h (3 Bft)
06.04.2026 00:35 23,4 °C 9,2 °C 43 % 73 % 1020,3 hPa 0,0 l/m² 13,4 km/h (3 Bft) W-SW 258 ° 0 min 0 W/m² 4,6 °C 4,9 °C 19,3 km/h (3 Bft)
06.04.2026 00:37 23,4 °C 9,2 °C 43 % 73 % 1020,3 hPa 0,0 l/m² 15,2 km/h (3 Bft) W-SW 255 ° 0 min 0 W/m² 4,6 °C 4,1 °C 20,9 km/h (4 Bft)
06.04.2026 00:39 23,4 °C 9,2 °C 43 % 73 % 1020,3 hPa 0,0 l/m² 12,4 km/h (2 Bft) SW 235 ° 0 min 0 W/m² 4,6 °C 5,4 °C 17,7 km/h (3 Bft)
06.04.2026 00:41 23,4 °C 9,2 °C 43 % 73 % 1020,4 hPa 0,0 l/m² 15,4 km/h (3 Bft) W-SW 246 ° 0 min 0 W/m² 4,6 °C 4,0 °C 20,9 km/h (4 Bft)
06.04.2026 00:42 23,4 °C 9,2 °C 43 % 73 % 1020,4 hPa 0,0 l/m² 12,7 km/h (3 Bft) SW 234 ° 0 min 0 W/m² 4,6 °C 5,2 °C 16,1 km/h (3 Bft)
06.04.2026 00:43 23,3 °C 9,2 °C 43 % 73 % 1020,3 hPa 0,0 l/m² 16,0 km/h (3 Bft) W 261 ° 0 min 0 W/m² 4,6 °C 3,7 °C 17,7 km/h (3 Bft)
06.04.2026 00:45 23,3 °C 9,2 °C 43 % 73 % 1020,4 hPa 0,0 l/m² 15,7 km/h (3 Bft) W 260 ° 0 min 0 W/m² 4,6 °C 3,9 °C 20,9 km/h (4 Bft)
06.04.2026 00:46 23,3 °C 9,2 °C 43 % 73 % 1020,3 hPa 0,0 l/m² 15,0 km/h (3 Bft) W-SW 253 ° 0 min 0 W/m² 4,6 °C 4,2 °C 17,7 km/h (3 Bft)
06.04.2026 00:47 23,3 °C 9,2 °C 43 % 73 % 1020,3 hPa 0,0 l/m² 14,9 km/h (3 Bft) W-SW 251 ° 0 min 0 W/m² 4,6 °C 4,2 °C 17,7 km/h (3 Bft)
06.04.2026 00:49 23,3 °C 9,2 °C 43 % 73 % 1020,3 hPa 0,0 l/m² 12,1 km/h (2 Bft) W-SW 247 ° 0 min 0 W/m² 4,6 °C 5,5 °C 17,7 km/h (3 Bft)
06.04.2026 00:51 23,3 °C 9,2 °C 43 % 73 % 1020,3 hPa 0,0 l/m² 12,6 km/h (3 Bft) W 262 ° 0 min 0 W/m² 4,6 °C 5,3 °C 14,5 km/h (3 Bft)
06.04.2026 00:52 23,3 °C 9,2 °C 43 % 73 % 1020,3 hPa 0,0 l/m² 11,5 km/h (2 Bft) W 263 ° 0 min 0 W/m² 4,6 °C 5,9 °C 12,9 km/h (3 Bft)
06.04.2026 00:53 23,3 °C 9,2 °C 43 % 73 % 1020,3 hPa 0,0 l/m² 9,4 km/h (2 Bft) W-SW 243 ° 0 min 0 W/m² 4,6 °C 7,1 °C 12,9 km/h (3 Bft)
06.04.2026 00:55 23,3 °C 9,2 °C 43 % 73 % 1020,2 hPa 0,0 l/m² 11,2 km/h (2 Bft) W-SW 251 ° 0 min 0 W/m² 4,6 °C 6,0 °C 14,5 km/h (3 Bft)
06.04.2026 00:57 23,2 °C 9,1 °C 43 % 74 % 1020,3 hPa 0,0 l/m² 12,3 km/h (2 Bft) W-SW 245 ° 0 min 0 W/m² 4,7 °C 5,3 °C 14,5 km/h (3 Bft)
06.04.2026 00:59 23,2 °C 9,1 °C 43 % 74 % 1020,2 hPa 0,0 l/m² 12,8 km/h (3 Bft) SW 236 ° 0 min 0 W/m² 4,7 °C 5,1 °C 16,1 km/h (3 Bft)
06.04.2026 01:01 23,2 °C 9,1 °C 43 % 74 % 1020,3 hPa 0,0 l/m² 12,0 km/h (2 Bft) W-SW 256 ° 0 min 0 W/m² 4,7 °C 5,5 °C 17,7 km/h (3 Bft)
06.04.2026 01:02 23,2 °C 9,1 °C 43 % 74 % 1020,3 hPa 0,0 l/m² 12,2 km/h (2 Bft) W-SW 246 ° 0 min 0 W/m² 4,7 °C 5,4 °C 14,5 km/h (3 Bft)
06.04.2026 01:03 23,2 °C 9,0 °C 44 % 74 % 1020,4 hPa 0,0 l/m² 12,7 km/h (3 Bft) SW 227 ° 0 min 0 W/m² 4,6 °C 5,0 °C 14,5 km/h (3 Bft)
06.04.2026 01:04 23,2 °C 9,0 °C 44 % 74 % 1020,4 hPa 0,0 l/m² 13,3 km/h (3 Bft) SW 234 ° 0 min 0 W/m² 4,6 °C 4,7 °C 16,1 km/h (3 Bft)
06.04.2026 01:05 23,2 °C 8,9 °C 44 % 74 % 1020,5 hPa 0,0 l/m² 12,7 km/h (3 Bft) W-SW 246 ° 0 min 0 W/m² 4,5 °C 4,9 °C 16,1 km/h (3 Bft)
06.04.2026 01:06 23,2 °C 8,9 °C 44 % 74 % 1020,5 hPa 0,0 l/m² 13,2 km/h (3 Bft) W-SW 238 ° 0 min 0 W/m² 4,5 °C 4,6 °C 16,1 km/h (3 Bft)
06.04.2026 01:08 23,2 °C 8,8 °C 44 % 74 % 1020,5 hPa 0,0 l/m² 11,2 km/h (2 Bft) SW 236 ° 0 min 0 W/m² 4,4 °C 5,6 °C 14,5 km/h (3 Bft)
06.04.2026 01:09 23,2 °C 8,8 °C 44 % 75 % 1020,5 hPa 0,0 l/m² 10,4 km/h (2 Bft) W-SW 241 ° 0 min 0 W/m² 4,6 °C 6,0 °C 12,9 km/h (3 Bft)
06.04.2026 01:10 23,2 °C 8,8 °C 44 % 75 % 1020,5 hPa 0,0 l/m² 8,6 km/h (2 Bft) SW 234 ° 0 min 0 W/m² 4,6 °C 7,2 °C 12,9 km/h (3 Bft)
06.04.2026 01:13 23,2 °C 8,7 °C 44 % 75 % 1020,5 hPa 0,0 l/m² 10,6 km/h (2 Bft) W-SW 247 ° 0 min 0 W/m² 4,5 °C 5,8 °C 12,9 km/h (3 Bft)
06.04.2026 01:14 23,1 °C 8,7 °C 44 % 75 % 1020,6 hPa 0,0 l/m² 9,8 km/h (2 Bft) W-SW 241 ° 0 min 0 W/m² 4,5 °C 6,3 °C 12,9 km/h (3 Bft)
06.04.2026 01:15 23,1 °C 8,7 °C 44 % 75 % 1020,5 hPa 0,0 l/m² 11,0 km/h (2 Bft) W-SW 245 ° 0 min 0 W/m² 4,5 °C 5,6 °C 12,9 km/h (3 Bft)
06.04.2026 01:16 23,1 °C 8,7 °C 44 % 75 % 1020,5 hPa 0,0 l/m² 10,2 km/h (2 Bft) SW 235 ° 0 min 0 W/m² 4,5 °C 6,0 °C 14,5 km/h (3 Bft)
06.04.2026 01:17 23,1 °C 8,6 °C 44 % 75 % 1020,6 hPa 0,0 l/m² 11,1 km/h (2 Bft) W-SW 240 ° 0 min 0 W/m² 4,4 °C 5,4 °C 14,5 km/h (3 Bft)
06.04.2026 01:18 23,1 °C 8,6 °C 44 % 75 % 1020,6 hPa 0,0 l/m² 10,5 km/h (2 Bft) W-SW 243 ° 0 min 0 W/m² 4,4 °C 5,7 °C 12,9 km/h (3 Bft)
06.04.2026 01:19 23,1 °C 8,6 °C 44 % 75 % 1020,6 hPa 0,0 l/m² 11,1 km/h (2 Bft) W-SW 247 ° 0 min 0 W/m² 4,4 °C 5,4 °C 12,9 km/h (3 Bft)
06.04.2026 01:21 23,1 °C 8,5 °C 44 % 75 % 1020,7 hPa 0,0 l/m² 11,8 km/h (2 Bft) SW 236 ° 0 min 0 W/m² 4,3 °C 4,9 °C 16,1 km/h (3 Bft)
06.04.2026 01:22 23,1 °C 8,5 °C 44 % 76 % 1020,7 hPa 0,0 l/m² 11,2 km/h (2 Bft) W-SW 250 ° 0 min 0 W/m² 4,5 °C 5,2 °C 14,5 km/h (3 Bft)
06.04.2026 01:23 23,1 °C 8,4 °C 44 % 76 % 1020,6 hPa 0,0 l/m² 9,7 km/h (2 Bft) SW 234 ° 0 min 0 W/m² 4,4 °C 6,0 °C 12,9 km/h (3 Bft)
06.04.2026 01:25 23,1 °C 8,3 °C 44 % 76 % 1020,8 hPa 0,0 l/m² 8,4 km/h (2 Bft) W-SW 252 ° 0 min 0 W/m² 4,3 °C 6,8 °C 12,9 km/h (3 Bft)
06.04.2026 01:26 23,1 °C 8,3 °C 44 % 76 % 1020,8 hPa 0,0 l/m² 8,8 km/h (2 Bft) W-SW 244 ° 0 min 0 W/m² 4,3 °C 6,5 °C 11,3 km/h (2 Bft)
06.04.2026 01:27 23,1 °C 8,3 °C 44 % 76 % 1020,8 hPa 0,0 l/m² 8,7 km/h (2 Bft) SW 236 ° 0 min 0 W/m² 4,3 °C 6,6 °C 11,3 km/h (2 Bft)
06.04.2026 01:28 23,1 °C 8,3 °C 44 % 76 % 1020,9 hPa 0,0 l/m² 9,7 km/h (2 Bft) W-SW 250 ° 0 min 0 W/m² 4,3 °C 5,9 °C 12,9 km/h (3 Bft)
06.04.2026 01:29 23,1 °C 8,3 °C 44 % 76 % 1020,8 hPa 0,0 l/m² 8,5 km/h (2 Bft) W-SW 249 ° 0 min 0 W/m² 4,3 °C 6,7 °C 11,3 km/h (2 Bft)
06.04.2026 01:31 23,1 °C 8,2 °C 44 % 76 % 1020,9 hPa 0,0 l/m² 8,2 km/h (2 Bft) W-SW 252 ° 0 min 0 W/m² 4,2 °C 6,8 °C 11,3 km/h (2 Bft)
06.04.2026 01:32 23,0 °C 8,2 °C 44 % 76 % 1020,8 hPa 0,0 l/m² 7,4 km/h (2 Bft) W-SW 241 ° 0 min 0 W/m² 4,2 °C 7,4 °C 8,0 km/h (2 Bft)
06.04.2026 01:33 23,0 °C 8,2 °C 44 % 77 % 1020,8 hPa 0,0 l/m² 7,8 km/h (2 Bft) W-SW 252 ° 0 min 0 W/m² 4,4 °C 7,1 °C 11,3 km/h (2 Bft)
06.04.2026 01:35 23,0 °C 8,1 °C 44 % 77 % 1021,0 hPa 0,0 l/m² 9,3 km/h (2 Bft) W 271 ° 0 min 0 W/m² 4,3 °C 5,9 °C 12,9 km/h (3 Bft)
06.04.2026 01:36 23,0 °C 8,1 °C 44 % 77 % 1021,2 hPa 0,0 l/m² 8,9 km/h (2 Bft) NW 304 ° 0 min 0 W/m² 4,3 °C 6,2 °C 12,9 km/h (3 Bft)
06.04.2026 01:37 23,0 °C 8,1 °C 44 % 77 % 1021,2 hPa 0,0 l/m² 10,8 km/h (2 Bft) W-SW 252 ° 0 min 0 W/m² 4,3 °C 5,0 °C 14,5 km/h (3 Bft)
06.04.2026 01:38 23,0 °C 8,0 °C 44 % 77 % 1021,4 hPa 0,0 l/m² 14,9 km/h (3 Bft) W-NW 300 ° 0 min 0 W/m² 4,2 °C 2,8 °C 20,9 km/h (4 Bft)
06.04.2026 01:39 23,0 °C 8,0 °C 44 % 77 % 1021,4 hPa 0,0 l/m² 19,4 km/h (3 Bft) NW 306 ° 0 min 0 W/m² 4,2 °C 0,9 °C 27,4 km/h (5 Bft)
06.04.2026 01:41 22,9 °C 7,9 °C 44 % 76 % 1021,5 hPa 0,0 l/m² 20,6 km/h (4 Bft) W 265 ° 0 min 0 W/m² 3,9 °C 0,4 °C 32,2 km/h (5 Bft)
06.04.2026 01:42 22,9 °C 7,9 °C 44 % 76 % 1021,5 hPa 0,0 l/m² 12,1 km/h (2 Bft) NW 304 ° 0 min 0 W/m² 3,9 °C 4,0 °C 20,9 km/h (4 Bft)
06.04.2026 01:43 22,9 °C 7,9 °C 44 % 76 % 1021,6 hPa 0,0 l/m² 14,5 km/h (3 Bft) W-NW 284 ° 0 min 0 W/m² 3,9 °C 2,8 °C 22,5 km/h (4 Bft)
06.04.2026 01:45 22,9 °C 7,8 °C 44 % 76 % 1021,6 hPa 0,0 l/m² 12,1 km/h (2 Bft) N-NW 342 ° 0 min 0 W/m² 3,8 °C 3,9 °C 27,4 km/h (5 Bft)
06.04.2026 01:46 22,9 °C 7,8 °C 44 % 76 % 1021,6 hPa 0,0 l/m² 15,9 km/h (3 Bft) W-NW 286 ° 0 min 0 W/m² 3,8 °C 2,1 °C 22,5 km/h (4 Bft)
06.04.2026 01:47 22,9 °C 7,8 °C 44 % 76 % 1021,5 hPa 0,0 l/m² 16,3 km/h (3 Bft) NW 326 ° 0 min 0 W/m² 3,8 °C 1,9 °C 22,5 km/h (4 Bft)
06.04.2026 01:48 22,9 °C 7,8 °C 44 % 75 % 1021,6 hPa 0,0 l/m² 15,7 km/h (3 Bft) W 280 ° 0 min 0 W/m² 3,7 °C 2,2 °C 22,5 km/h (4 Bft)
06.04.2026 01:49 22,9 °C 7,7 °C 44 % 75 % 1021,6 hPa 0,0 l/m² 16,2 km/h (3 Bft) W-NW 284 ° 0 min 0 W/m² 3,6 °C 1,8 °C 27,4 km/h (5 Bft)
06.04.2026 01:51 22,9 °C 7,7 °C 44 % 75 % 1021,7 hPa 0,0 l/m² 18,9 km/h (3 Bft) W-NW 285 ° 0 min 0 W/m² 3,6 °C 0,7 °C 29,0 km/h (5 Bft)
06.04.2026 01:52 22,9 °C 7,7 °C 44 % 75 % 1021,8 hPa 0,0 l/m² 21,7 km/h (4 Bft) W 271 ° 0 min 0 W/m² 3,6 °C -0,3 °C 27,4 km/h (5 Bft)
06.04.2026 01:53 22,9 °C 7,7 °C 44 % 74 % 1021,8 hPa 0,0 l/m² 22,7 km/h (4 Bft) W 281 ° 0 min 0 W/m² 3,4 °C -0,6 °C 25,7 km/h (4 Bft)
06.04.2026 01:55 22,9 °C 7,6 °C 44 % 74 % 1021,8 hPa 0,0 l/m² 24,3 km/h (4 Bft) W 265 ° 0 min 0 W/m² 3,3 °C -1,2 °C 35,4 km/h (5 Bft)
06.04.2026 01:56 22,9 °C 7,6 °C 44 % 74 % 1021,8 hPa 0,0 l/m² 24,8 km/h (4 Bft) W 273 ° 0 min 0 W/m² 3,3 °C -1,4 °C 30,6 km/h (5 Bft)
06.04.2026 01:57 22,8 °C 7,6 °C 44 % 74 % 1021,7 hPa 0,0 l/m² 18,8 km/h (3 Bft) W 271 ° 0 min 0 W/m² 3,3 °C 0,6 °C 25,7 km/h (4 Bft)
06.04.2026 01:58 22,9 °C 7,6 °C 44 % 73 % 1021,7 hPa 0,0 l/m² 20,4 km/h (4 Bft) W 277 ° 0 min 0 W/m² 3,1 °C 0,0 °C 25,7 km/h (4 Bft)
06.04.2026 01:59 22,9 °C 7,6 °C 44 % 73 % 1021,8 hPa 0,0 l/m² 23,5 km/h (4 Bft) W 266 ° 0 min 0 W/m² 3,1 °C -1,0 °C 29,0 km/h (5 Bft)
06.04.2026 02:01 22,9 °C 7,6 °C 44 % 74 % 1021,8 hPa 0,0 l/m² 22,2 km/h (4 Bft) W 271 ° 0 min 0 W/m² 3,3 °C -0,6 °C 30,6 km/h (5 Bft)
06.04.2026 02:02 22,8 °C 7,6 °C 44 % 74 % 1021,9 hPa 0,0 l/m² 17,2 km/h (3 Bft) W 267 ° 0 min 0 W/m² 3,3 °C 1,3 °C 24,1 km/h (4 Bft)
06.04.2026 02:03 22,8 °C 7,6 °C 44 % 73 % 1021,9 hPa 0,0 l/m² 15,7 km/h (3 Bft) W 271 ° 0 min 0 W/m² 3,1 °C 1,9 °C 22,5 km/h (4 Bft)
06.04.2026 02:05 22,8 °C 7,6 °C 44 % 73 % 1021,9 hPa 0,0 l/m² 27,6 km/h (5 Bft) W 265 ° 0 min 0 W/m² 3,1 °C -2,1 °C 37,0 km/h (5 Bft)
06.04.2026 02:06 22,8 °C 7,7 °C 44 % 73 % 1021,9 hPa 0,0 l/m² 22,8 km/h (4 Bft) W-SW 245 ° 0 min 0 W/m² 3,2 °C -0,6 °C 35,4 km/h (5 Bft)
06.04.2026 02:07 22,8 °C 7,7 °C 44 % 73 % 1021,9 hPa 0,0 l/m² 24,1 km/h (4 Bft) W 277 ° 0 min 0 W/m² 3,2 °C -1,0 °C 29,0 km/h (5 Bft)
06.04.2026 02:08 22,8 °C 7,7 °C 44 % 72 % 1021,9 hPa 0,0 l/m² 26,4 km/h (4 Bft) W 269 ° 0 min 0 W/m² 3,0 °C -1,7 °C 37,0 km/h (5 Bft)
06.04.2026 02:09 22,8 °C 7,7 °C 44 % 72 % 1021,9 hPa 0,0 l/m² 27,4 km/h (5 Bft) W-NW 286 ° 0 min 0 W/m² 3,0 °C -1,9 °C 37,0 km/h (5 Bft)
06.04.2026 02:11 22,8 °C 7,7 °C 44 % 72 % 1021,9 hPa 0,0 l/m² 25,7 km/h (4 Bft) W 273 ° 0 min 0 W/m² 3,0 °C -1,5 °C 37,0 km/h (5 Bft)
06.04.2026 02:12 22,8 °C 7,7 °C 44 % 72 % 1021,9 hPa 0,0 l/m² 22,4 km/h (4 Bft) W-NW 282 ° 0 min 0 W/m² 3,0 °C -0,5 °C 38,6 km/h (6 Bft)
06.04.2026 02:13 22,8 °C 7,7 °C 44 % 72 % 1021,9 hPa 0,0 l/m² 25,6 km/h (4 Bft) W 272 ° 0 min 0 W/m² 3,0 °C -1,5 °C 35,4 km/h (5 Bft)
06.04.2026 02:15 22,8 °C 7,7 °C 44 % 72 % 1021,8 hPa 0,0 l/m² 21,9 km/h (4 Bft) W-SW 244 ° 0 min 0 W/m² 3,0 °C -0,3 °C 29,0 km/h (5 Bft)
06.04.2026 02:16 22,8 °C 7,7 °C 44 % 72 % 1021,9 hPa 0,0 l/m² 22,0 km/h (4 Bft) W-NW 285 ° 0 min 0 W/m² 3,0 °C -0,4 °C 32,2 km/h (5 Bft)
06.04.2026 02:17 22,7 °C 7,7 °C 44 % 72 % 1021,8 hPa 0,0 l/m² 21,9 km/h (4 Bft) W 276 ° 0 min 0 W/m² 3,0 °C -0,3 °C 27,4 km/h (5 Bft)
06.04.2026 02:18 22,8 °C 7,7 °C 44 % 72 % 1021,9 hPa 0,0 l/m² 23,1 km/h (4 Bft) W 279 ° 0 min 0 W/m² 3,0 °C -0,7 °C 30,6 km/h (5 Bft)
06.04.2026 02:19 22,7 °C 7,7 °C 44 % 72 % 1021,9 hPa 0,0 l/m² 23,0 km/h (4 Bft) W-NW 288 ° 0 min 0 W/m² 3,0 °C -0,7 °C 30,6 km/h (5 Bft)
06.04.2026 02:21 22,7 °C 7,7 °C 44 % 71 % 1022,0 hPa 0,0 l/m² 16,2 km/h (3 Bft) W-NW 284 ° 0 min 0 W/m² 2,8 °C 1,8 °C 25,7 km/h (4 Bft)
06.04.2026 02:22 22,7 °C 7,7 °C 44 % 71 % 1022,0 hPa 0,0 l/m² 18,1 km/h (3 Bft) W 270 ° 0 min 0 W/m² 2,8 °C 1,0 °C 27,4 km/h (5 Bft)
06.04.2026 02:23 22,7 °C 7,7 °C 44 % 71 % 1022,0 hPa 0,0 l/m² 19,8 km/h (3 Bft) W-SW 246 ° 0 min 0 W/m² 2,8 °C 0,4 °C 27,4 km/h (5 Bft)
06.04.2026 02:25 22,7 °C 7,7 °C 44 % 72 % 1022,0 hPa 0,0 l/m² 20,0 km/h (4 Bft) W 270 ° 0 min 0 W/m² 3,0 °C 0,3 °C 29,0 km/h (5 Bft)
06.04.2026 02:26 22,7 °C 7,7 °C 44 % 72 % 1021,9 hPa 0,0 l/m² 26,3 km/h (4 Bft) W-NW 297 ° 0 min 0 W/m² 3,0 °C -1,6 °C 33,8 km/h (5 Bft)
06.04.2026 02:27 22,7 °C 7,7 °C 44 % 72 % 1022,0 hPa 0,0 l/m² 27,1 km/h (5 Bft) W 270 ° 0 min 0 W/m² 3,0 °C -1,9 °C 38,6 km/h (6 Bft)
06.04.2026 02:28 22,7 °C 7,7 °C 44 % 71 % 1022,1 hPa 0,0 l/m² 29,3 km/h (5 Bft) W 270 ° 0 min 0 W/m² 2,8 °C -2,4 °C 35,4 km/h (5 Bft)
06.04.2026 02:29 22,7 °C 7,7 °C 44 % 72 % 1022,1 hPa 0,0 l/m² 24,0 km/h (4 Bft) W-SW 256 ° 0 min 0 W/m² 3,0 °C -1,0 °C 30,6 km/h (5 Bft)
06.04.2026 02:31 22,7 °C 7,7 °C 44 % 72 % 1022,2 hPa 0,0 l/m² 21,2 km/h (4 Bft) W 276 ° 0 min 0 W/m² 3,0 °C -0,1 °C 29,0 km/h (5 Bft)
06.04.2026 02:32 22,7 °C 7,7 °C 44 % 72 % 1022,0 hPa 0,0 l/m² 25,2 km/h (4 Bft) W 281 ° 0 min 0 W/m² 3,0 °C -1,3 °C 30,6 km/h (5 Bft)
06.04.2026 02:33 22,7 °C 7,7 °C 44 % 72 % 1022,0 hPa 0,0 l/m² 22,6 km/h (4 Bft) W 263 ° 0 min 0 W/m² 3,0 °C -0,6 °C 30,6 km/h (5 Bft)
06.04.2026 02:35 22,7 °C 7,6 °C 44 % 71 % 1022,1 hPa 0,0 l/m² 21,1 km/h (4 Bft) W-SW 243 ° 0 min 0 W/m² 2,7 °C -0,2 °C 32,2 km/h (5 Bft)
06.04.2026 02:36 22,7 °C 7,7 °C 44 % 71 % 1022,1 hPa 0,0 l/m² 23,5 km/h (4 Bft) W-NW 290 ° 0 min 0 W/m² 2,8 °C -0,8 °C 32,2 km/h (5 Bft)
06.04.2026 02:37 22,7 °C 7,6 °C 44 % 71 % 1022,1 hPa 0,0 l/m² 22,7 km/h (4 Bft) W-NW 288 ° 0 min 0 W/m² 2,7 °C -0,7 °C 29,0 km/h (5 Bft)
06.04.2026 02:38 22,7 °C 7,7 °C 44 % 71 % 1022,0 hPa 0,0 l/m² 19,9 km/h (4 Bft) W-SW 243 ° 0 min 0 W/m² 2,8 °C 0,4 °C 29,0 km/h (5 Bft)
06.04.2026 02:39 22,7 °C 7,6 °C 44 % 71 % 1022,0 hPa 0,0 l/m² 17,3 km/h (3 Bft) W 277 ° 0 min 0 W/m² 2,7 °C 1,2 °C 20,9 km/h (4 Bft)
06.04.2026 02:41 22,7 °C 7,7 °C 44 % 70 % 1022,1 hPa 0,0 l/m² 19,9 km/h (4 Bft) W 259 ° 0 min 0 W/m² 2,6 °C 0,4 °C 27,4 km/h (5 Bft)
06.04.2026 02:42 22,7 °C 7,7 °C 44 % 70 % 1022,2 hPa 0,0 l/m² 17,8 km/h (3 Bft) W 271 ° 0 min 0 W/m² 2,6 °C 1,1 °C 22,5 km/h (4 Bft)
06.04.2026 02:43 22,7 °C 7,7 °C 44 % 70 % 1022,2 hPa 0,0 l/m² 20,7 km/h (4 Bft) W 265 ° 0 min 0 W/m² 2,6 °C 0,1 °C 29,0 km/h (5 Bft)
06.04.2026 02:45 22,7 °C 7,7 °C 44 % 70 % 1022,2 hPa 0,0 l/m² 17,9 km/h (3 Bft) W 259 ° 0 min 0 W/m² 2,6 °C 1,1 °C 25,7 km/h (4 Bft)
06.04.2026 02:46 22,7 °C 7,7 °C 44 % 70 % 1022,2 hPa 0,0 l/m² 19,8 km/h (3 Bft) W-SW 256 ° 0 min 0 W/m² 2,6 °C 0,4 °C 24,1 km/h (4 Bft)
06.04.2026 02:47 22,7 °C 7,7 °C 44 % 70 % 1022,2 hPa 0,0 l/m² 20,6 km/h (4 Bft) W 265 ° 0 min 0 W/m² 2,6 °C 0,1 °C 25,7 km/h (4 Bft)
06.04.2026 02:48 22,6 °C 7,7 °C 44 % 70 % 1022,2 hPa 0,0 l/m² 16,9 km/h (3 Bft) W 269 ° 0 min 0 W/m² 2,6 °C 1,5 °C 20,9 km/h (4 Bft)
06.04.2026 02:49 22,6 °C 7,7 °C 44 % 70 % 1022,3 hPa 0,0 l/m² 15,9 km/h (3 Bft) SW 223 ° 0 min 0 W/m² 2,6 °C 1,9 °C 24,1 km/h (4 Bft)
06.04.2026 02:51 22,6 °C 7,7 °C 44 % 70 % 1022,4 hPa 0,0 l/m² 17,8 km/h (3 Bft) W-SW 255 ° 0 min 0 W/m² 2,6 °C 1,1 °C 25,7 km/h (4 Bft)
06.04.2026 02:52 22,6 °C 7,7 °C 44 % 70 % 1022,5 hPa 0,0 l/m² 16,0 km/h (3 Bft) W 264 ° 0 min 0 W/m² 2,6 °C 1,9 °C 20,9 km/h (4 Bft)
06.04.2026 02:53 22,6 °C 7,7 °C 44 % 70 % 1022,5 hPa 0,0 l/m² 17,3 km/h (3 Bft) W 266 ° 0 min 0 W/m² 2,6 °C 1,3 °C 24,1 km/h (4 Bft)
06.04.2026 02:55 22,6 °C 7,7 °C 44 % 70 % 1022,5 hPa 0,0 l/m² 14,9 km/h (3 Bft) W 266 ° 0 min 0 W/m² 2,6 °C 2,4 °C 20,9 km/h (4 Bft)
06.04.2026 02:56 22,6 °C 7,6 °C 44 % 70 % 1022,5 hPa 0,0 l/m² 14,5 km/h (3 Bft) W 259 ° 0 min 0 W/m² 2,5 °C 2,5 °C 20,9 km/h (4 Bft)
06.04.2026 02:57 22,6 °C 7,6 °C 44 % 70 % 1022,6 hPa 0,0 l/m² 16,0 km/h (3 Bft) W-NW 287 ° 0 min 0 W/m² 2,5 °C 1,8 °C 22,5 km/h (4 Bft)
06.04.2026 02:58 22,6 °C 7,6 °C 44 % 70 % 1022,6 hPa 0,0 l/m² 16,4 km/h (3 Bft) W-NW 296 ° 0 min 0 W/m² 2,5 °C 1,6 °C 20,9 km/h (4 Bft)
06.04.2026 02:59 22,6 °C 7,6 °C 44 % 70 % 1022,6 hPa 0,0 l/m² 15,4 km/h (3 Bft) W 271 ° 0 min 0 W/m² 2,5 °C 2,0 °C 20,9 km/h (4 Bft)
06.04.2026 03:01 22,6 °C 7,5 °C 44 % 70 % 1022,5 hPa 0,0 l/m² 15,8 km/h (3 Bft) W 268 ° 0 min 0 W/m² 2,4 °C 1,7 °C 20,9 km/h (4 Bft)
06.04.2026 03:02 22,6 °C 7,5 °C 44 % 70 % 1022,7 hPa 0,0 l/m² 14,5 km/h (3 Bft) W 267 ° 0 min 0 W/m² 2,4 °C 2,3 °C 17,7 km/h (3 Bft)
06.04.2026 03:03 22,6 °C 7,4 °C 44 % 70 % 1022,6 hPa 0,0 l/m² 14,3 km/h (3 Bft) W-SW 252 ° 0 min 0 W/m² 2,3 °C 2,3 °C 17,7 km/h (3 Bft)
06.04.2026 03:05 22,6 °C 7,4 °C 44 % 70 % 1022,7 hPa 0,0 l/m² 13,5 km/h (3 Bft) W-SW 252 ° 0 min 0 W/m² 2,3 °C 2,7 °C 17,7 km/h (3 Bft)
06.04.2026 03:06 22,6 °C 7,4 °C 44 % 70 % 1022,7 hPa 0,0 l/m² 13,1 km/h (3 Bft) W-SW 251 ° 0 min 0 W/m² 2,3 °C 2,9 °C 20,9 km/h (4 Bft)
06.04.2026 03:08 22,5 °C 7,4 °C 44 % 70 % 1022,7 hPa 0,0 l/m² 15,3 km/h (3 Bft) W-SW 252 ° 0 min 0 W/m² 2,3 °C 1,8 °C 20,9 km/h (4 Bft)
06.04.2026 03:09 22,5 °C 7,3 °C 44 % 70 % 1022,7 hPa 0,0 l/m² 16,2 km/h (3 Bft) W-SW 248 ° 0 min 0 W/m² 2,2 °C 1,3 °C 20,9 km/h (4 Bft)
06.04.2026 03:11 22,6 °C 7,3 °C 44 % 71 % 1022,7 hPa 0,0 l/m² 12,9 km/h (3 Bft) W-SW 238 ° 0 min 0 W/m² 2,4 °C 2,9 °C 16,1 km/h (3 Bft)
06.04.2026 03:12 22,5 °C 7,3 °C 44 % 71 % 1022,8 hPa 0,0 l/m² 13,0 km/h (3 Bft) W-SW 258 ° 0 min 0 W/m² 2,4 °C 2,9 °C 17,7 km/h (3 Bft)
06.04.2026 03:13 22,5 °C 7,2 °C 44 % 71 % 1022,8 hPa 0,0 l/m² 13,3 km/h (3 Bft) W-SW 258 ° 0 min 0 W/m² 2,3 °C 2,6 °C 17,7 km/h (3 Bft)
06.04.2026 03:15 22,5 °C 7,2 °C 44 % 71 % 1022,7 hPa 0,0 l/m² 11,0 km/h (2 Bft) W-SW 244 ° 0 min 0 W/m² 2,3 °C 3,9 °C 14,5 km/h (3 Bft)
06.04.2026 03:16 22,5 °C 7,2 °C 44 % 71 % 1022,7 hPa 0,0 l/m² 12,6 km/h (3 Bft) W-SW 248 ° 0 min 0 W/m² 2,3 °C 3,0 °C 14,5 km/h (3 Bft)
06.04.2026 03:17 22,4 °C 7,2 °C 44 % 71 % 1022,7 hPa 0,0 l/m² 11,5 km/h (2 Bft) W-SW 240 ° 0 min 0 W/m² 2,3 °C 3,6 °C 14,5 km/h (3 Bft)
06.04.2026 03:18 22,5 °C 7,2 °C 44 % 72 % 1022,7 hPa 0,0 l/m² 11,4 km/h (2 Bft) W-SW 256 ° 0 min 0 W/m² 2,5 °C 3,6 °C 14,5 km/h (3 Bft)
06.04.2026 03:19 22,4 °C 7,2 °C 44 % 72 % 1022,8 hPa 0,0 l/m² 11,3 km/h (2 Bft) W-SW 240 ° 0 min 0 W/m² 2,5 °C 3,7 °C 16,1 km/h (3 Bft)
06.04.2026 03:21 22,4 °C 7,1 °C 45 % 72 % 1022,8 hPa 0,0 l/m² 11,2 km/h (2 Bft) W-SW 252 ° 0 min 0 W/m² 2,4 °C 3,6 °C 17,7 km/h (3 Bft)
06.04.2026 03:22 22,4 °C 7,1 °C 45 % 72 % 1022,9 hPa 0,0 l/m² 9,5 km/h (2 Bft) W-SW 254 ° 0 min 0 W/m² 2,4 °C 4,7 °C 12,9 km/h (3 Bft)
06.04.2026 03:23 22,4 °C 7,1 °C 44 % 72 % 1022,8 hPa 0,0 l/m² 12,8 km/h (3 Bft) W 261 ° 0 min 0 W/m² 2,4 °C 2,7 °C 14,5 km/h (3 Bft)
06.04.2026 03:25 22,4 °C 6,9 °C 45 % 72 % 1022,8 hPa 0,0 l/m² 13,4 km/h (3 Bft) W-SW 240 ° 0 min 0 W/m² 2,2 °C 2,2 °C 17,7 km/h (3 Bft)
06.04.2026 03:26 22,4 °C 6,9 °C 45 % 73 % 1022,9 hPa 0,0 l/m² 13,2 km/h (3 Bft) SW 234 ° 0 min 0 W/m² 2,4 °C 2,3 °C 16,1 km/h (3 Bft)
06.04.2026 03:27 22,4 °C 6,9 °C 45 % 72 % 1022,9 hPa 0,0 l/m² 13,7 km/h (3 Bft) W-SW 251 ° 0 min 0 W/m² 2,2 °C 2,0 °C 19,3 km/h (3 Bft)
06.04.2026 03:28 22,4 °C 6,9 °C 45 % 73 % 1022,9 hPa 0,0 l/m² 11,3 km/h (2 Bft) W-SW 241 ° 0 min 0 W/m² 2,4 °C 3,4 °C 16,1 km/h (3 Bft)
06.04.2026 03:29 22,4 °C 6,8 °C 45 % 73 % 1022,8 hPa 0,0 l/m² 12,2 km/h (2 Bft) W-SW 244 ° 0 min 0 W/m² 2,3 °C 2,7 °C 16,1 km/h (3 Bft)
06.04.2026 03:30 22,4 °C 6,8 °C 45 % 73 % 1022,8 hPa 0,0 l/m² 9,7 km/h (2 Bft) W-SW 249 ° 0 min 0 W/m² 2,3 °C 4,3 °C 14,5 km/h (3 Bft)
06.04.2026 03:33 22,4 °C 6,7 °C 45 % 73 % 1023,0 hPa 0,0 l/m² 11,7 km/h (2 Bft) W-SW 252 ° 0 min 0 W/m² 2,2 °C 2,9 °C 16,1 km/h (3 Bft)
06.04.2026 03:34 22,4 °C 6,7 °C 45 % 73 % 1023,0 hPa 0,0 l/m² 11,2 km/h (2 Bft) SW 234 ° 0 min 0 W/m² 2,2 °C 3,2 °C 14,5 km/h (3 Bft)
06.04.2026 03:35 22,4 °C 6,7 °C 45 % 73 % 1023,0 hPa 0,0 l/m² 13,3 km/h (3 Bft) W-SW 242 ° 0 min 0 W/m² 2,2 °C 2,0 °C 16,1 km/h (3 Bft)
06.04.2026 03:36 22,4 °C 6,7 °C 45 % 73 % 1022,9 hPa 0,0 l/m² 10,8 km/h (2 Bft) W-SW 247 ° 0 min 0 W/m² 2,2 °C 3,4 °C 14,5 km/h (3 Bft)
06.04.2026 03:37 22,4 °C 6,7 °C 45 % 73 % 1022,9 hPa 0,0 l/m² 11,4 km/h (2 Bft) W-SW 238 ° 0 min 0 W/m² 2,2 °C 3,1 °C 14,5 km/h (3 Bft)
06.04.2026 03:38 22,4 °C 6,6 °C 45 % 73 % 1023,0 hPa 0,0 l/m² 11,1 km/h (2 Bft) W-SW 246 ° 0 min 0 W/m² 2,1 °C 3,1 °C 16,1 km/h (3 Bft)
06.04.2026 03:39 22,4 °C 6,6 °C 45 % 74 % 1023,0 hPa 0,0 l/m² 10,6 km/h (2 Bft) W-SW 254 ° 0 min 0 W/m² 2,3 °C 3,4 °C 12,9 km/h (3 Bft)
06.04.2026 03:41 22,4 °C 6,5 °C 45 % 74 % 1022,9 hPa 0,0 l/m² 10,0 km/h (2 Bft) W-SW 252 ° 0 min 0 W/m² 2,2 °C 3,7 °C 12,9 km/h (3 Bft)
06.04.2026 03:42 22,4 °C 6,5 °C 45 % 74 % 1022,9 hPa 0,0 l/m² 10,0 km/h (2 Bft) W-SW 252 ° 0 min 0 W/m² 2,2 °C 3,7 °C 12,9 km/h (3 Bft)
06.04.2026 03:43 22,4 °C 6,4 °C 45 % 74 % 1022,9 hPa 0,0 l/m² 9,9 km/h (2 Bft) W-SW 248 ° 0 min 0 W/m² 2,1 °C 3,7 °C 11,3 km/h (2 Bft)
06.04.2026 03:45 22,4 °C 6,4 °C 45 % 74 % 1022,9 hPa 0,0 l/m² 8,9 km/h (2 Bft) W 264 ° 0 min 0 W/m² 2,1 °C 4,4 °C 11,3 km/h (2 Bft)
06.04.2026 03:46 22,4 °C 6,4 °C 45 % 74 % 1023,0 hPa 0,0 l/m² 9,7 km/h (2 Bft) W 263 ° 0 min 0 W/m² 2,1 °C 3,8 °C 11,3 km/h (2 Bft)
06.04.2026 03:47 22,4 °C 6,3 °C 45 % 74 % 1023,0 hPa 0,0 l/m² 9,1 km/h (2 Bft) W-SW 255 ° 0 min 0 W/m² 2,0 °C 4,1 °C 12,9 km/h (3 Bft)
06.04.2026 03:48 22,4 °C 6,3 °C 45 % 74 % 1023,0 hPa 0,0 l/m² 9,7 km/h (2 Bft) W-SW 256 ° 0 min 0 W/m² 2,0 °C 3,7 °C 12,9 km/h (3 Bft)
06.04.2026 03:49 22,3 °C 6,3 °C 45 % 74 % 1023,0 hPa 0,0 l/m² 12,2 km/h (2 Bft) W-SW 255 ° 0 min 0 W/m² 2,0 °C 2,1 °C 14,5 km/h (3 Bft)
06.04.2026 03:51 22,3 °C 6,2 °C 45 % 74 % 1023,0 hPa 0,0 l/m² 9,5 km/h (2 Bft) W-SW 257 ° 0 min 0 W/m² 1,9 °C 3,7 °C 16,1 km/h (3 Bft)
06.04.2026 03:52 22,3 °C 6,2 °C 45 % 74 % 1023,1 hPa 0,0 l/m² 10,5 km/h (2 Bft) W-SW 257 ° 0 min 0 W/m² 1,9 °C 3,1 °C 12,9 km/h (3 Bft)
06.04.2026 03:53 22,3 °C 6,2 °C 45 % 74 % 1023,1 hPa 0,0 l/m² 8,7 km/h (2 Bft) W 260 ° 0 min 0 W/m² 1,9 °C 4,3 °C 11,3 km/h (2 Bft)
06.04.2026 03:55 22,3 °C 6,1 °C 45 % 74 % 1023,1 hPa 0,0 l/m² 8,9 km/h (2 Bft) W-SW 238 ° 0 min 0 W/m² 1,8 °C 4,1 °C 12,9 km/h (3 Bft)
06.04.2026 03:56 22,3 °C 6,1 °C 45 % 74 % 1023,1 hPa 0,0 l/m² 12,9 km/h (3 Bft) W 263 ° 0 min 0 W/m² 1,8 °C 1,5 °C 17,7 km/h (3 Bft)
06.04.2026 03:57 22,3 °C 6,1 °C 45 % 74 % 1023,1 hPa 0,0 l/m² 9,7 km/h (2 Bft) W-SW 254 ° 0 min 0 W/m² 1,8 °C 3,5 °C 12,9 km/h (3 Bft)
06.04.2026 03:58 22,3 °C 6,1 °C 45 % 74 % 1023,1 hPa 0,0 l/m² 10,2 km/h (2 Bft) W-SW 251 ° 0 min 0 W/m² 1,8 °C 3,2 °C 12,9 km/h (3 Bft)
06.04.2026 03:59 22,3 °C 6,1 °C 45 % 74 % 1023,2 hPa 0,0 l/m² 9,3 km/h (2 Bft) W-SW 258 ° 0 min 0 W/m² 1,8 °C 3,8 °C 11,3 km/h (2 Bft)
06.04.2026 04:01 22,3 °C 6,0 °C 45 % 75 % 1023,1 hPa 0,0 l/m² 7,1 km/h (2 Bft) W 260 ° 0 min 0 W/m² 1,9 °C 5,4 °C 11,3 km/h (2 Bft)
06.04.2026 04:02 22,3 °C 5,9 °C 45 % 75 % 1023,1 hPa 0,0 l/m² 8,3 km/h (2 Bft) W-SW 250 ° 0 min 0 W/m² 1,8 °C 4,3 °C 11,3 km/h (2 Bft)
06.04.2026 04:03 22,3 °C 5,9 °C 45 % 75 % 1023,1 hPa 0,0 l/m² 8,9 km/h (2 Bft) W-SW 252 ° 0 min 0 W/m² 1,8 °C 3,9 °C 11,3 km/h (2 Bft)
06.04.2026 04:05 22,3 °C 5,9 °C 45 % 75 % 1023,1 hPa 0,0 l/m² 10,6 km/h (2 Bft) W 259 ° 0 min 0 W/m² 1,8 °C 2,7 °C 16,1 km/h (3 Bft)
06.04.2026 04:06 22,3 °C 5,9 °C 45 % 75 % 1023,2 hPa 0,0 l/m² 11,6 km/h (2 Bft) W-SW 256 ° 0 min 0 W/m² 1,8 °C 2,0 °C 14,5 km/h (3 Bft)
06.04.2026 04:07 22,3 °C 5,9 °C 45 % 75 % 1023,2 hPa 0,0 l/m² 9,7 km/h (2 Bft) W 267 ° 0 min 0 W/m² 1,8 °C 3,3 °C 14,5 km/h (3 Bft)
06.04.2026 04:08 22,3 °C 5,9 °C 45 % 75 % 1023,2 hPa 0,0 l/m² 13,1 km/h (3 Bft) W-SW 254 ° 0 min 0 W/m² 1,8 °C 1,2 °C 14,5 km/h (3 Bft)
06.04.2026 04:09 22,3 °C 5,9 °C 45 % 75 % 1023,3 hPa 0,0 l/m² 12,6 km/h (3 Bft) W 266 ° 0 min 0 W/m² 1,8 °C 1,4 °C 16,1 km/h (3 Bft)
06.04.2026 04:11 22,3 °C 5,8 °C 45 % 75 % 1023,3 hPa 0,0 l/m² 11,5 km/h (2 Bft) W-SW 247 ° 0 min 0 W/m² 1,7 °C 2,0 °C 14,5 km/h (3 Bft)
06.04.2026 04:12 22,3 °C 5,9 °C 45 % 75 % 1023,3 hPa 0,0 l/m² 12,8 km/h (3 Bft) W 260 ° 0 min 0 W/m² 1,8 °C 1,3 °C 16,1 km/h (3 Bft)
06.04.2026 04:13 22,3 °C 5,9 °C 45 % 75 % 1023,3 hPa 0,0 l/m² 14,0 km/h (3 Bft) W-SW 257 ° 0 min 0 W/m² 1,8 °C 0,7 °C 19,3 km/h (3 Bft)
06.04.2026 04:15 22,3 °C 5,9 °C 45 % 75 % 1023,2 hPa 0,0 l/m² 13,4 km/h (3 Bft) W 260 ° 0 min 0 W/m² 1,8 °C 1,0 °C 16,1 km/h (3 Bft)
06.04.2026 04:16 22,3 °C 5,9 °C 45 % 75 % 1023,2 hPa 0,0 l/m² 12,0 km/h (2 Bft) W-SW 238 ° 0 min 0 W/m² 1,8 °C 1,8 °C 14,5 km/h (3 Bft)
06.04.2026 04:17 22,3 °C 5,9 °C 45 % 75 % 1023,2 hPa 0,0 l/m² 13,6 km/h (3 Bft) W-SW 254 ° 0 min 0 W/m² 1,8 °C 0,9 °C 17,7 km/h (3 Bft)
06.04.2026 04:18 22,3 °C 5,8 °C 45 % 75 % 1023,2 hPa 0,0 l/m² 13,1 km/h (3 Bft) W-SW 249 ° 0 min 0 W/m² 1,7 °C 1,0 °C 16,1 km/h (3 Bft)
06.04.2026 04:19 22,2 °C 5,9 °C 45 % 74 % 1023,3 hPa 0,0 l/m² 13,0 km/h (3 Bft) W-SW 242 ° 0 min 0 W/m² 1,6 °C 1,2 °C 16,1 km/h (3 Bft)
06.04.2026 04:21 22,3 °C 5,9 °C 45 % 74 % 1023,3 hPa 0,0 l/m² 13,3 km/h (3 Bft) W-SW 251 ° 0 min 0 W/m² 1,6 °C 1,1 °C 19,3 km/h (3 Bft)
06.04.2026 04:22 22,2 °C 5,9 °C 45 % 74 % 1023,2 hPa 0,0 l/m² 13,3 km/h (3 Bft) W-SW 243 ° 0 min 0 W/m² 1,6 °C 1,1 °C 17,7 km/h (3 Bft)
06.04.2026 04:23 22,2 °C 5,9 °C 45 % 74 % 1023,2 hPa 0,0 l/m² 12,8 km/h (3 Bft) W-SW 254 ° 0 min 0 W/m² 1,6 °C 1,3 °C 14,5 km/h (3 Bft)
06.04.2026 04:25 22,2 °C 5,9 °C 45 % 74 % 1023,3 hPa 0,0 l/m² 12,7 km/h (3 Bft) SW 225 ° 0 min 0 W/m² 1,6 °C 1,4 °C 16,1 km/h (3 Bft)
06.04.2026 04:26 22,2 °C 5,9 °C 45 % 74 % 1023,3 hPa 0,0 l/m² 14,6 km/h (3 Bft) W-SW 238 ° 0 min 0 W/m² 1,6 °C 0,4 °C 19,3 km/h (3 Bft)
06.04.2026 04:27 22,2 °C 5,9 °C 45 % 74 % 1023,3 hPa 0,0 l/m² 15,3 km/h (3 Bft) W-SW 246 ° 0 min 0 W/m² 1,6 °C 0,0 °C 17,7 km/h (3 Bft)
06.04.2026 04:28 22,2 °C 5,9 °C 45 % 74 % 1023,4 hPa 0,0 l/m² 15,3 km/h (3 Bft) W-SW 238 ° 0 min 0 W/m² 1,6 °C 0,0 °C 19,3 km/h (3 Bft)
06.04.2026 04:29 22,2 °C 5,9 °C 45 % 74 % 1023,3 hPa 0,0 l/m² 15,3 km/h (3 Bft) W-SW 251 ° 0 min 0 W/m² 1,6 °C 0,0 °C 17,7 km/h (3 Bft)
06.04.2026 04:31 22,2 °C 5,9 °C 45 % 74 % 1023,3 hPa 0,0 l/m² 12,4 km/h (2 Bft) SW 234 ° 0 min 0 W/m² 1,6 °C 1,6 °C 16,1 km/h (3 Bft)
06.04.2026 04:32 22,2 °C 6,0 °C 45 % 74 % 1023,3 hPa 0,0 l/m² 11,9 km/h (2 Bft) W 272 ° 0 min 0 W/m² 1,7 °C 2,0 °C 17,7 km/h (3 Bft)
06.04.2026 04:33 22,2 °C 6,0 °C 45 % 74 % 1023,3 hPa 0,0 l/m² 13,1 km/h (3 Bft) W 268 ° 0 min 0 W/m² 1,7 °C 1,3 °C 16,1 km/h (3 Bft)
06.04.2026 04:35 22,2 °C 6,0 °C 45 % 74 % 1023,3 hPa 0,0 l/m² 14,4 km/h (3 Bft) W-SW 248 ° 0 min 0 W/m² 1,7 °C 0,6 °C 17,7 km/h (3 Bft)
06.04.2026 04:36 22,2 °C 6,0 °C 45 % 73 % 1023,3 hPa 0,0 l/m² 13,4 km/h (3 Bft) W-SW 245 ° 0 min 0 W/m² 1,5 °C 1,1 °C 16,1 km/h (3 Bft)
06.04.2026 04:37 22,2 °C 6,0 °C 45 % 73 % 1023,3 hPa 0,0 l/m² 12,1 km/h (2 Bft) W-SW 245 ° 0 min 0 W/m² 1,5 °C 1,8 °C 14,5 km/h (3 Bft)
06.04.2026 04:38 22,2 °C 6,0 °C 45 % 73 % 1023,3 hPa 0,0 l/m² 14,9 km/h (3 Bft) SW 230 ° 0 min 0 W/m² 1,5 °C 0,3 °C 17,7 km/h (3 Bft)
06.04.2026 04:39 22,2 °C 6,0 °C 45 % 73 % 1023,3 hPa 0,0 l/m² 13,8 km/h (3 Bft) W-SW 245 ° 0 min 0 W/m² 1,5 °C 0,9 °C 16,1 km/h (3 Bft)
06.04.2026 04:41 22,2 °C 6,0 °C 45 % 73 % 1023,3 hPa 0,0 l/m² 15,3 km/h (3 Bft) W-SW 240 ° 0 min 0 W/m² 1,5 °C 0,1 °C 20,9 km/h (4 Bft)
06.04.2026 04:42 22,1 °C 6,0 °C 45 % 73 % 1023,4 hPa 0,0 l/m² 15,2 km/h (3 Bft) W-SW 252 ° 0 min 0 W/m² 1,5 °C 0,2 °C 17,7 km/h (3 Bft)
06.04.2026 04:43 22,1 °C 6,0 °C 45 % 73 % 1023,4 hPa 0,0 l/m² 14,6 km/h (3 Bft) W-SW 244 ° 0 min 0 W/m² 1,5 °C 0,5 °C 16,1 km/h (3 Bft)
06.04.2026 04:45 22,1 °C 6,0 °C 45 % 72 % 1023,4 hPa 0,0 l/m² 13,0 km/h (3 Bft) W-SW 246 ° 0 min 0 W/m² 1,3 °C 1,3 °C 16,1 km/h (3 Bft)
06.04.2026 04:46 22,1 °C 6,0 °C 45 % 72 % 1023,4 hPa 0,0 l/m² 13,7 km/h (3 Bft) W 261 ° 0 min 0 W/m² 1,3 °C 1,0 °C 16,1 km/h (3 Bft)
06.04.2026 04:47 22,1 °C 6,1 °C 45 % 72 % 1023,4 hPa 0,0 l/m² 13,9 km/h (3 Bft) W-SW 250 ° 0 min 0 W/m² 1,4 °C 1,0 °C 19,3 km/h (3 Bft)
06.04.2026 04:48 22,1 °C 6,0 °C 45 % 72 % 1023,4 hPa 0,0 l/m² 15,6 km/h (3 Bft) W-SW 251 ° 0 min 0 W/m² 1,3 °C -0,0 °C 19,3 km/h (3 Bft)
06.04.2026 04:49 22,2 °C 6,0 °C 45 % 72 % 1023,4 hPa 0,0 l/m² 16,5 km/h (3 Bft) W-SW 254 ° 0 min 0 W/m² 1,3 °C -0,4 °C 19,3 km/h (3 Bft)
06.04.2026 04:51 22,1 °C 6,0 °C 45 % 72 % 1023,5 hPa 0,0 l/m² 13,8 km/h (3 Bft) W-SW 246 ° 0 min 0 W/m² 1,3 °C 0,9 °C 17,7 km/h (3 Bft)
06.04.2026 04:52 22,1 °C 6,0 °C 45 % 72 % 1023,5 hPa 0,0 l/m² 14,6 km/h (3 Bft) W-SW 242 ° 0 min 0 W/m² 1,3 °C 0,5 °C 19,3 km/h (3 Bft)
06.04.2026 04:53 22,1 °C 6,0 °C 45 % 72 % 1023,5 hPa 0,0 l/m² 14,0 km/h (3 Bft) W 262 ° 0 min 0 W/m² 1,3 °C 0,8 °C 16,1 km/h (3 Bft)
06.04.2026 04:55 22,1 °C 5,9 °C 45 % 72 % 1023,5 hPa 0,0 l/m² 12,9 km/h (3 Bft) W-SW 243 ° 0 min 0 W/m² 1,2 °C 1,3 °C 16,1 km/h (3 Bft)
06.04.2026 04:56 22,1 °C 5,9 °C 45 % 72 % 1023,5 hPa 0,0 l/m² 13,1 km/h (3 Bft) W-SW 250 ° 0 min 0 W/m² 1,2 °C 1,2 °C 16,1 km/h (3 Bft)
06.04.2026 04:57 22,1 °C 5,9 °C 45 % 72 % 1023,5 hPa 0,0 l/m² 13,9 km/h (3 Bft) SW 232 ° 0 min 0 W/m² 1,2 °C 0,7 °C 16,1 km/h (3 Bft)
06.04.2026 04:58 22,1 °C 5,9 °C 45 % 72 % 1023,5 hPa 0,0 l/m² 13,5 km/h (3 Bft) W-SW 238 ° 0 min 0 W/m² 1,2 °C 0,9 °C 16,1 km/h (3 Bft)
06.04.2026 04:59 22,1 °C 5,9 °C 45 % 72 % 1023,5 hPa 0,0 l/m² 12,9 km/h (3 Bft) W-SW 250 ° 0 min 0 W/m² 1,2 °C 1,3 °C 16,1 km/h (3 Bft)
06.04.2026 05:01 22,1 °C 5,9 °C 45 % 72 % 1023,5 hPa 0,0 l/m² 12,4 km/h (2 Bft) W-SW 252 ° 0 min 0 W/m² 1,2 °C 1,6 °C 17,7 km/h (3 Bft)
06.04.2026 05:02 22,1 °C 5,9 °C 45 % 72 % 1023,5 hPa 0,0 l/m² 11,3 km/h (2 Bft) W-SW 241 ° 0 min 0 W/m² 1,2 °C 2,2 °C 14,5 km/h (3 Bft)
06.04.2026 05:03 22,1 °C 5,9 °C 45 % 72 % 1023,6 hPa 0,0 l/m² 13,8 km/h (3 Bft) W-SW 246 ° 0 min 0 W/m² 1,2 °C 0,8 °C 17,7 km/h (3 Bft)
06.04.2026 05:05 22,1 °C 5,8 °C 45 % 72 % 1023,6 hPa 0,0 l/m² 11,6 km/h (2 Bft) W-SW 250 ° 0 min 0 W/m² 1,2 °C 1,9 °C 14,5 km/h (3 Bft)
06.04.2026 05:06 22,1 °C 5,8 °C 45 % 72 % 1023,6 hPa 0,0 l/m² 11,2 km/h (2 Bft) W-SW 249 ° 0 min 0 W/m² 1,2 °C 2,2 °C 14,5 km/h (3 Bft)
06.04.2026 05:08 22,1 °C 5,8 °C 45 % 72 % 1023,7 hPa 0,0 l/m² 10,8 km/h (2 Bft) W-SW 250 ° 0 min 0 W/m² 1,2 °C 2,4 °C 14,5 km/h (3 Bft)
06.04.2026 05:09 22,1 °C 5,8 °C 45 % 72 % 1023,6 hPa 0,0 l/m² 10,7 km/h (2 Bft) W-SW 254 ° 0 min 0 W/m² 1,2 °C 2,5 °C 12,9 km/h (3 Bft)
06.04.2026 05:11 22,1 °C 5,8 °C 45 % 72 % 1023,6 hPa 0,0 l/m² 11,5 km/h (2 Bft) W 259 ° 0 min 0 W/m² 1,2 °C 2,0 °C 12,9 km/h (3 Bft)
06.04.2026 05:12 22,0 °C 5,8 °C 45 % 72 % 1023,7 hPa 0,0 l/m² 10,9 km/h (2 Bft) W-SW 249 ° 0 min 0 W/m² 1,2 °C 2,4 °C 14,5 km/h (3 Bft)
06.04.2026 05:13 22,0 °C 5,7 °C 45 % 72 % 1023,7 hPa 0,0 l/m² 10,2 km/h (2 Bft) W 261 ° 0 min 0 W/m² 1,1 °C 2,7 °C 11,3 km/h (2 Bft)
06.04.2026 05:15 22,1 °C 5,7 °C 45 % 72 % 1023,7 hPa 0,0 l/m² 10,8 km/h (2 Bft) W-SW 257 ° 0 min 0 W/m² 1,1 °C 2,3 °C 12,9 km/h (3 Bft)
06.04.2026 05:16 22,1 °C 5,7 °C 45 % 72 % 1023,7 hPa 0,0 l/m² 10,4 km/h (2 Bft) W-SW 250 ° 0 min 0 W/m² 1,1 °C 2,6 °C 11,3 km/h (2 Bft)
06.04.2026 05:17 22,0 °C 5,7 °C 45 % 72 % 1023,6 hPa 0,0 l/m² 9,9 km/h (2 Bft) W-SW 257 ° 0 min 0 W/m² 1,1 °C 2,9 °C 11,3 km/h (2 Bft)
06.04.2026 05:18 22,0 °C 5,7 °C 45 % 72 % 1023,7 hPa 0,0 l/m² 8,2 km/h (2 Bft) W-SW 255 ° 0 min 0 W/m² 1,1 °C 4,2 °C 11,3 km/h (2 Bft)
06.04.2026 05:19 22,0 °C 5,7 °C 45 % 72 % 1023,7 hPa 0,0 l/m² 7,7 km/h (2 Bft) W-SW 256 ° 0 min 0 W/m² 1,1 °C 4,6 °C 9,7 km/h (2 Bft)
06.04.2026 05:21 22,0 °C 5,6 °C 45 % 72 % 1023,7 hPa 0,0 l/m² 8,5 km/h (2 Bft) W-SW 254 ° 0 min 0 W/m² 1,0 °C 3,8 °C 11,3 km/h (2 Bft)
06.04.2026 05:22 22,0 °C 5,6 °C 45 % 73 % 1023,7 hPa 0,0 l/m² 8,4 km/h (2 Bft) W-SW 254 ° 0 min 0 W/m² 1,2 °C 3,9 °C 11,3 km/h (2 Bft)
06.04.2026 05:23 22,0 °C 5,6 °C 45 % 73 % 1023,7 hPa 0,0 l/m² 7,9 km/h (2 Bft) W-SW 251 ° 0 min 0 W/m² 1,2 °C 4,3 °C 11,3 km/h (2 Bft)
06.04.2026 05:25 21,9 °C 5,5 °C 45 % 73 % 1023,6 hPa 0,0 l/m² 7,4 km/h (2 Bft) W-SW 247 ° 0 min 0 W/m² 1,1 °C 4,6 °C 11,3 km/h (2 Bft)
06.04.2026 05:26 22,0 °C 5,5 °C 45 % 73 % 1023,6 hPa 0,0 l/m² 6,1 km/h (2 Bft) W-SW 244 ° 0 min 0 W/m² 1,1 °C 5,5 °C 8,0 km/h (2 Bft)
06.04.2026 05:27 22,0 °C 5,4 °C 45 % 73 % 1023,7 hPa 0,0 l/m² 7,0 km/h (2 Bft) W 264 ° 0 min 0 W/m² 1,0 °C 4,9 °C 11,3 km/h (2 Bft)
06.04.2026 05:28 21,9 °C 5,4 °C 45 % 73 % 1023,7 hPa 0,0 l/m² 7,1 km/h (2 Bft) W-SW 250 ° 0 min 0 W/m² 1,0 °C 4,8 °C 9,7 km/h (2 Bft)
06.04.2026 05:29 22,0 °C 5,4 °C 45 % 73 % 1023,7 hPa 0,0 l/m² 7,7 km/h (2 Bft) W-SW 252 ° 0 min 0 W/m² 1,0 °C 4,3 °C 8,0 km/h (2 Bft)
06.04.2026 05:31 21,9 °C 5,3 °C 45 % 73 % 1023,7 hPa 0,0 l/m² 7,3 km/h (2 Bft) W-SW 254 ° 0 min 0 W/m² 0,9 °C 4,5 °C 11,3 km/h (2 Bft)
06.04.2026 05:32 22,0 °C 5,3 °C 45 % 73 % 1023,8 hPa 0,0 l/m² 8,3 km/h (2 Bft) W-SW 245 ° 0 min 0 W/m² 0,9 °C 3,7 °C 11,3 km/h (2 Bft)
06.04.2026 05:33 22,0 °C 5,3 °C 45 % 73 % 1023,8 hPa 0,0 l/m² 7,3 km/h (2 Bft) W-SW 253 ° 0 min 0 W/m² 0,9 °C 4,5 °C 8,0 km/h (2 Bft)
06.04.2026 05:35 21,9 °C 5,2 °C 45 % 73 % 1023,8 hPa 0,0 l/m² 7,1 km/h (2 Bft) W-SW 253 ° 0 min 0 W/m² 0,8 °C 4,6 °C 8,0 km/h (2 Bft)
06.04.2026 05:36 21,9 °C 5,2 °C 45 % 73 % 1023,8 hPa 0,0 l/m² 8,2 km/h (2 Bft) W-SW 255 ° 0 min 0 W/m² 0,8 °C 3,6 °C 11,3 km/h (2 Bft)
06.04.2026 05:37 21,9 °C 5,2 °C 45 % 73 % 1023,8 hPa 0,0 l/m² 6,9 km/h (2 Bft) W-SW 253 ° 0 min 0 W/m² 0,8 °C 4,8 °C 8,0 km/h (2 Bft)
06.04.2026 05:38 21,9 °C 5,2 °C 45 % 73 % 1023,8 hPa 0,0 l/m² 7,9 km/h (2 Bft) W-SW 244 ° 0 min 0 W/m² 0,8 °C 3,9 °C 11,3 km/h (2 Bft)
06.04.2026 05:39 21,9 °C 5,1 °C 45 % 74 % 1023,8 hPa 0,0 l/m² 7,1 km/h (2 Bft) W-SW 252 ° 0 min 0 W/m² 0,9 °C 4,5 °C 11,3 km/h (2 Bft)
06.04.2026 05:41 21,9 °C 5,1 °C 45 % 74 % 1023,8 hPa 0,0 l/m² 7,4 km/h (2 Bft) W-SW 256 ° 0 min 0 W/m² 0,9 °C 4,2 °C 8,0 km/h (2 Bft)
06.04.2026 05:42 21,9 °C 5,1 °C 45 % 74 % 1023,8 hPa 0,0 l/m² 7,0 km/h (2 Bft) W-SW 252 ° 0 min 0 W/m² 0,9 °C 4,6 °C 8,0 km/h (2 Bft)
06.04.2026 05:43 21,9 °C 5,1 °C 45 % 74 % 1023,8 hPa 0,0 l/m² 7,8 km/h (2 Bft) W-SW 256 ° 0 min 0 W/m² 0,9 °C 3,9 °C 11,3 km/h (2 Bft)
06.04.2026 05:45 21,9 °C 5,0 °C 45 % 74 % 1023,8 hPa 0,0 l/m² 7,9 km/h (2 Bft) W-SW 258 ° 0 min 0 W/m² 0,8 °C 3,7 °C 11,3 km/h (2 Bft)
06.04.2026 05:46 21,9 °C 4,9 °C 45 % 74 % 1023,9 hPa 0,0 l/m² 7,9 km/h (2 Bft) W 259 ° 0 min 0 W/m² 0,7 °C 3,6 °C 9,7 km/h (2 Bft)
06.04.2026 05:47 21,9 °C 4,9 °C 45 % 74 % 1023,9 hPa 0,0 l/m² 7,8 km/h (2 Bft) W 260 ° 0 min 0 W/m² 0,7 °C 3,7 °C 11,3 km/h (2 Bft)
06.04.2026 05:48 21,9 °C 4,9 °C 45 % 74 % 1023,9 hPa 0,0 l/m² 6,8 km/h (2 Bft) W-SW 248 ° 0 min 0 W/m² 0,7 °C 4,6 °C 9,7 km/h (2 Bft)
06.04.2026 05:49 21,9 °C 4,9 °C 45 % 74 % 1023,9 hPa 0,0 l/m² 8,0 km/h (2 Bft) W-SW 253 ° 0 min 0 W/m² 0,7 °C 3,5 °C 11,3 km/h (2 Bft)
06.04.2026 05:51 21,9 °C 4,9 °C 45 % 75 % 1023,9 hPa 0,0 l/m² 8,0 km/h (2 Bft) W-SW 248 ° 0 min 0 W/m² 0,8 °C 3,5 °C 11,3 km/h (2 Bft)
06.04.2026 05:52 21,9 °C 4,8 °C 45 % 75 % 1023,9 hPa 0,0 l/m² 7,6 km/h (2 Bft) W-SW 254 ° 0 min 0 W/m² 0,8 °C 3,7 °C 11,3 km/h (2 Bft)
06.04.2026 05:53 21,9 °C 4,8 °C 45 % 75 % 1023,9 hPa 0,0 l/m² 8,0 km/h (2 Bft) W-SW 250 ° 0 min 0 W/m² 0,8 °C 3,4 °C 11,3 km/h (2 Bft)
06.04.2026 05:55 21,9 °C 4,8 °C 45 % 75 % 1023,9 hPa 0,0 l/m² 7,4 km/h (2 Bft) W-SW 253 ° 0 min 0 W/m² 0,8 °C 3,9 °C 11,3 km/h (2 Bft)
06.04.2026 05:56 21,9 °C 4,7 °C 45 % 75 % 1023,9 hPa 0,0 l/m² 7,6 km/h (2 Bft) W-SW 254 ° 0 min 0 W/m² 0,7 °C 3,6 °C 9,7 km/h (2 Bft)
06.04.2026 05:57 21,9 °C 4,7 °C 45 % 75 % 1023,9 hPa 0,0 l/m² 7,7 km/h (2 Bft) W-SW 252 ° 0 min 0 W/m² 0,7 °C 3,5 °C 8,0 km/h (2 Bft)
06.04.2026 05:58 21,9 °C 4,7 °C 45 % 75 % 1023,9 hPa 0,0 l/m² 8,6 km/h (2 Bft) W-SW 238 ° 0 min 0 W/m² 0,7 °C 2,8 °C 11,3 km/h (2 Bft)
06.04.2026 05:59 21,9 °C 4,7 °C 45 % 75 % 1024,0 hPa 0,0 l/m² 7,9 km/h (2 Bft) W-SW 244 ° 0 min 0 W/m² 0,7 °C 3,4 °C 11,3 km/h (2 Bft)
06.04.2026 06:01 21,9 °C 4,7 °C 45 % 76 % 1023,9 hPa 0,0 l/m² 7,6 km/h (2 Bft) SW 236 ° 0 min 0 W/m² 0,8 °C 3,6 °C 12,9 km/h (3 Bft)
06.04.2026 06:02 21,9 °C 4,6 °C 45 % 76 % 1024,0 hPa 0,0 l/m² 7,7 km/h (2 Bft) W 261 ° 0 min 0 W/m² 0,7 °C 3,4 °C 11,3 km/h (2 Bft)
06.04.2026 06:03 21,9 °C 4,6 °C 45 % 76 % 1023,9 hPa 0,0 l/m² 7,8 km/h (2 Bft) W-SW 256 ° 0 min 0 W/m² 0,7 °C 3,4 °C 9,7 km/h (2 Bft)
06.04.2026 06:05 21,8 °C 4,6 °C 45 % 76 % 1023,9 hPa 0,0 l/m² 8,0 km/h (2 Bft) W-SW 257 ° 0 min 0 W/m² 0,7 °C 3,2 °C 12,9 km/h (3 Bft)
06.04.2026 06:06 21,8 °C 4,6 °C 45 % 76 % 1023,9 hPa 0,0 l/m² 9,7 km/h (2 Bft) W-SW 248 ° 0 min 0 W/m² 0,7 °C 1,8 °C 12,9 km/h (3 Bft)
06.04.2026 06:07 21,9 °C 4,6 °C 45 % 76 % 1024,0 hPa 0,0 l/m² 8,5 km/h (2 Bft) SW 233 ° 0 min 0 W/m² 0,7 °C 2,8 °C 12,9 km/h (3 Bft)
06.04.2026 06:08 21,9 °C 4,6 °C 45 % 76 % 1023,9 hPa 0,0 l/m² 8,0 km/h (2 Bft) W-SW 252 ° 0 min 0 W/m² 0,7 °C 3,2 °C 12,9 km/h (3 Bft)
06.04.2026 06:09 21,9 °C 4,5 °C 45 % 76 % 1024,0 hPa 0,0 l/m² 7,1 km/h (2 Bft) W 263 ° 0 min 0 W/m² 0,6 °C 3,9 °C 11,3 km/h (2 Bft)
06.04.2026 06:11 21,9 °C 4,6 °C 45 % 77 % 1024,0 hPa 0,0 l/m² 7,8 km/h (2 Bft) W-SW 252 ° 0 min 0 W/m² 0,9 °C 3,4 °C 12,9 km/h (3 Bft)
06.04.2026 06:12 21,8 °C 4,5 °C 45 % 77 % 1024,0 hPa 0,0 l/m² 8,9 km/h (2 Bft) W 259 ° 0 min 0 W/m² 0,8 °C 2,3 °C 11,3 km/h (2 Bft)
06.04.2026 06:13 21,8 °C 4,5 °C 45 % 77 % 1024,0 hPa 0,0 l/m² 6,1 km/h (2 Bft) W-SW 241 ° 0 min 0 W/m² 0,8 °C 4,5 °C 8,0 km/h (2 Bft)
06.04.2026 06:15 21,8 °C 4,4 °C 45 % 77 % 1024,0 hPa 0,0 l/m² 6,7 km/h (2 Bft) W-SW 244 ° 0 min 0 W/m² 0,7 °C 4,1 °C 11,3 km/h (2 Bft)
06.04.2026 06:16 21,8 °C 4,4 °C 45 % 77 % 1024,1 hPa 0,0 l/m² 5,8 km/h (2 Bft) W-SW 257 ° 0 min 0 W/m² 0,7 °C 4,4 °C 6,4 km/h (2 Bft)
06.04.2026 06:17 21,8 °C 4,4 °C 45 % 77 % 1024,0 hPa 0,0 l/m² 6,6 km/h (2 Bft) W-SW 245 ° 0 min 0 W/m² 0,7 °C 4,2 °C 11,3 km/h (2 Bft)
06.04.2026 06:18 21,8 °C 4,4 °C 45 % 77 % 1024,1 hPa 0,0 l/m² 8,0 km/h (2 Bft) W 276 ° 0 min 0 W/m² 0,7 °C 3,0 °C 12,9 km/h (3 Bft)
06.04.2026 06:19 21,8 °C 4,4 °C 45 % 77 % 1024,2 hPa 0,0 l/m² 5,3 km/h (1 Bft) W 262 ° 0 min 0 W/m² 0,7 °C 4,4 °C 9,7 km/h (2 Bft)
06.04.2026 06:21 21,8 °C 4,4 °C 45 % 77 % 1024,2 hPa 0,0 l/m² 6,0 km/h (2 Bft) W-SW 253 ° 0 min 0 W/m² 0,7 °C 4,4 °C 9,7 km/h (2 Bft)
06.04.2026 06:22 21,8 °C 4,4 °C 45 % 77 % 1024,2 hPa 0,0 l/m² 6,3 km/h (2 Bft) W-SW 242 ° 0 min 0 W/m² 0,7 °C 4,4 °C 9,7 km/h (2 Bft)
06.04.2026 06:23 21,8 °C 4,4 °C 45 % 77 % 1024,3 hPa 0,0 l/m² 6,2 km/h (2 Bft) W-SW 257 ° 0 min 0 W/m² 0,7 °C 4,4 °C 9,7 km/h (2 Bft)
06.04.2026 06:25 21,8 °C 4,4 °C 45 % 77 % 1024,2 hPa 0,0 l/m² 5,4 km/h (2 Bft) W-SW 258 ° 0 min 0 W/m² 0,7 °C 4,4 °C 9,7 km/h (2 Bft)
06.04.2026 06:26 21,8 °C 4,3 °C 45 % 77 % 1024,2 hPa 0,0 l/m² 6,8 km/h (2 Bft) W-SW 249 ° 0 min 0 W/m² 0,6 °C 3,9 °C 11,3 km/h (2 Bft)
06.04.2026 06:27 21,8 °C 4,3 °C 45 % 77 % 1024,2 hPa 0,0 l/m² 5,0 km/h (1 Bft) W-SW 252 ° 0 min 0 W/m² 0,6 °C 4,3 °C 6,4 km/h (2 Bft)
06.04.2026 06:28 21,8 °C 4,3 °C 45 % 77 % 1024,2 hPa 0,0 l/m² 6,2 km/h (2 Bft) W-SW 240 ° 0 min 0 W/m² 0,6 °C 4,3 °C 8,0 km/h (2 Bft)
06.04.2026 06:29 21,8 °C 4,3 °C 45 % 78 % 1024,3 hPa 0,0 l/m² 6,5 km/h (2 Bft) W-SW 246 ° 0 min 0 W/m² 0,8 °C 4,2 °C 9,7 km/h (2 Bft)
06.04.2026 06:30 21,8 °C 4,3 °C 45 % 77 % 1024,3 hPa 0,0 l/m² 6,7 km/h (2 Bft) W 265 ° 0 min 0 W/m² 0,6 °C 4,0 °C 9,7 km/h (2 Bft)
06.04.2026 06:33 21,8 °C 4,2 °C 45 % 78 % 1024,3 hPa 0,0 l/m² 8,0 km/h (2 Bft) W 259 ° 0 min 5 W/m² 0,7 °C 2,8 °C 12,9 km/h (3 Bft)
06.04.2026 06:34 21,8 °C 4,3 °C 45 % 78 % 1024,3 hPa 0,0 l/m² 7,6 km/h (2 Bft) W-SW 252 ° 0 min 5 W/m² 0,8 °C 3,2 °C 11,3 km/h (2 Bft)
06.04.2026 06:35 21,8 °C 4,2 °C 45 % 78 % 1024,2 hPa 0,0 l/m² 6,7 km/h (2 Bft) W 262 ° 0 min 5 W/m² 0,7 °C 3,9 °C 9,7 km/h (2 Bft)
06.04.2026 06:36 21,8 °C 4,2 °C 45 % 78 % 1024,3 hPa 0,0 l/m² 7,5 km/h (2 Bft) W-SW 257 ° 0 min 5 W/m² 0,7 °C 3,2 °C 11,3 km/h (2 Bft)
06.04.2026 06:37 21,8 °C 4,2 °C 45 % 78 % 1024,3 hPa 0,0 l/m² 6,6 km/h (2 Bft) W 263 ° 0 min 5 W/m² 0,7 °C 4,0 °C 9,7 km/h (2 Bft)
06.04.2026 06:38 21,8 °C 4,2 °C 45 % 78 % 1024,3 hPa 0,0 l/m² 7,3 km/h (2 Bft) W-SW 257 ° 0 min 5 W/m² 0,7 °C 3,4 °C 11,3 km/h (2 Bft)
06.04.2026 06:39 21,8 °C 4,2 °C 45 % 78 % 1024,3 hPa 0,0 l/m² 5,7 km/h (2 Bft) W-SW 246 ° 0 min 5 W/m² 0,7 °C 4,2 °C 8,0 km/h (2 Bft)
06.04.2026 06:41 21,8 °C 4,2 °C 45 % 79 % 1024,4 hPa 0,0 l/m² 7,0 km/h (2 Bft) W 263 ° 0 min 7 W/m² 0,9 °C 3,7 °C 12,9 km/h (3 Bft)
06.04.2026 06:42 21,8 °C 4,2 °C 45 % 79 % 1024,3 hPa 0,0 l/m² 5,3 km/h (1 Bft) W 262 ° 0 min 7 W/m² 0,9 °C 4,2 °C 6,4 km/h (2 Bft)
06.04.2026 06:43 21,8 °C 4,2 °C 45 % 79 % 1024,3 hPa 0,0 l/m² 7,5 km/h (2 Bft) W-SW 244 ° 0 min 9 W/m² 0,9 °C 3,2 °C 11,3 km/h (2 Bft)
06.04.2026 06:45 21,7 °C 4,2 °C 45 % 79 % 1024,4 hPa 0,0 l/m² 5,5 km/h (2 Bft) W 264 ° 0 min 9 W/m² 0,9 °C 4,2 °C 11,3 km/h (2 Bft)
06.04.2026 06:47 21,8 °C 4,2 °C 45 % 79 % 1024,3 hPa 0,0 l/m² 4,9 km/h (1 Bft) W-SW 247 ° 0 min 11 W/m² 0,9 °C 4,2 °C 11,3 km/h (2 Bft)
06.04.2026 06:48 21,8 °C 4,2 °C 45 % 79 % 1024,4 hPa 0,0 l/m² 6,9 km/h (2 Bft) W-SW 250 ° 0 min 11 W/m² 0,9 °C 3,8 °C 11,3 km/h (2 Bft)
06.04.2026 06:49 21,8 °C 4,2 °C 45 % 79 % 1024,3 hPa 0,0 l/m² 6,0 km/h (2 Bft) W-SW 248 ° 0 min 12 W/m² 0,9 °C 4,2 °C 8,0 km/h (2 Bft)
06.04.2026 06:51 21,8 °C 4,2 °C 45 % 79 % 1024,2 hPa 0,0 l/m² 7,4 km/h (2 Bft) W 271 ° 0 min 12 W/m² 0,9 °C 3,3 °C 11,3 km/h (2 Bft)
06.04.2026 06:52 21,8 °C 4,2 °C 45 % 79 % 1024,3 hPa 0,0 l/m² 9,7 km/h (2 Bft) W-SW 242 ° 0 min 14 W/m² 0,9 °C 1,4 °C 12,9 km/h (3 Bft)
06.04.2026 06:53 21,8 °C 4,2 °C 45 % 79 % 1024,3 hPa 0,0 l/m² 7,7 km/h (2 Bft) W-SW 242 ° 0 min 14 W/m² 0,9 °C 3,0 °C 9,7 km/h (2 Bft)
06.04.2026 06:55 21,8 °C 4,2 °C 45 % 80 % 1024,3 hPa 0,0 l/m² 8,3 km/h (2 Bft) W-SW 257 ° 0 min 14 W/m² 1,1 °C 2,5 °C 12,9 km/h (3 Bft)
06.04.2026 06:56 21,7 °C 4,2 °C 45 % 80 % 1024,4 hPa 0,0 l/m² 8,5 km/h (2 Bft) W-SW 244 ° 0 min 16 W/m² 1,1 °C 2,3 °C 11,3 km/h (2 Bft)
06.04.2026 06:57 21,7 °C 4,2 °C 45 % 80 % 1024,4 hPa 0,0 l/m² 9,2 km/h (2 Bft) W-SW 254 ° 0 min 16 W/m² 1,1 °C 1,8 °C 12,9 km/h (3 Bft)
06.04.2026 06:58 21,7 °C 4,3 °C 45 % 80 % 1024,4 hPa 0,0 l/m² 10,0 km/h (2 Bft) W-SW 256 ° 0 min 18 W/m² 1,2 °C 1,3 °C 12,9 km/h (3 Bft)
06.04.2026 06:59 21,7 °C 4,3 °C 45 % 80 % 1024,4 hPa 0,0 l/m² 9,7 km/h (2 Bft) W-SW 242 ° 0 min 18 W/m² 1,2 °C 1,5 °C 12,9 km/h (3 Bft)
06.04.2026 07:01 21,8 °C 4,3 °C 45 % 80 % 1024,4 hPa 0,0 l/m² 9,9 km/h (2 Bft) W-SW 258 ° 0 min 19 W/m² 1,2 °C 1,4 °C 12,9 km/h (3 Bft)
06.04.2026 07:02 21,8 °C 4,3 °C 45 % 80 % 1024,5 hPa 0,0 l/m² 7,7 km/h (2 Bft) W 260 ° 0 min 19 W/m² 1,2 °C 3,1 °C 11,3 km/h (2 Bft)
06.04.2026 07:03 21,8 °C 4,3 °C 45 % 80 % 1024,5 hPa 0,0 l/m² 8,3 km/h (2 Bft) W-SW 244 ° 0 min 19 W/m² 1,2 °C 2,6 °C 11,3 km/h (2 Bft)
06.04.2026 07:05 21,7 °C 4,4 °C 45 % 80 % 1024,6 hPa 0,0 l/m² 10,1 km/h (2 Bft) W-SW 255 ° 0 min 21 W/m² 1,3 °C 1,3 °C 14,5 km/h (3 Bft)
06.04.2026 07:06 21,7 °C 4,3 °C 45 % 80 % 1024,6 hPa 0,0 l/m² 9,3 km/h (2 Bft) W-SW 243 ° 0 min 21 W/m² 1,2 °C 1,8 °C 12,9 km/h (3 Bft)
06.04.2026 07:08 21,7 °C 4,4 °C 45 % 80 % 1024,6 hPa 0,0 l/m² 10,3 km/h (2 Bft) W-SW 246 ° 0 min 23 W/m² 1,3 °C 1,2 °C 14,5 km/h (3 Bft)
06.04.2026 07:09 21,8 °C 4,4 °C 45 % 80 % 1024,6 hPa 0,0 l/m² 8,2 km/h (2 Bft) W 261 ° 0 min 25 W/m² 1,3 °C 2,8 °C 12,9 km/h (3 Bft)
06.04.2026 07:11 21,7 °C 4,4 °C 45 % 81 % 1024,7 hPa 0,0 l/m² 8,9 km/h (2 Bft) SW 236 ° 0 min 25 W/m² 1,4 °C 2,2 °C 14,5 km/h (3 Bft)
06.04.2026 07:12 21,7 °C 4,4 °C 45 % 80 % 1024,6 hPa 0,0 l/m² 9,5 km/h (2 Bft) W-SW 252 ° 0 min 25 W/m² 1,3 °C 1,8 °C 12,9 km/h (3 Bft)
06.04.2026 07:13 21,7 °C 4,5 °C 45 % 81 % 1024,6 hPa 0,0 l/m² 8,3 km/h (2 Bft) W-SW 252 ° 0 min 25 W/m² 1,5 °C 2,8 °C 12,9 km/h (3 Bft)
06.04.2026 07:15 21,7 °C 4,6 °C 45 % 81 % 1024,6 hPa 0,0 l/m² 8,9 km/h (2 Bft) W-SW 257 ° 0 min 28 W/m² 1,6 °C 2,5 °C 14,5 km/h (3 Bft)
06.04.2026 07:16 21,7 °C 4,6 °C 45 % 81 % 1024,6 hPa 0,0 l/m² 8,8 km/h (2 Bft) W-SW 251 ° 0 min 30 W/m² 1,6 °C 2,5 °C 11,3 km/h (2 Bft)
06.04.2026 07:17 21,7 °C 4,6 °C 45 % 81 % 1024,6 hPa 0,0 l/m² 9,1 km/h (2 Bft) W-SW 258 ° 0 min 30 W/m² 1,6 °C 2,3 °C 12,9 km/h (3 Bft)
06.04.2026 07:18 21,7 °C 4,6 °C 45 % 81 % 1024,7 hPa 0,0 l/m² 7,7 km/h (2 Bft) W-SW 251 ° 0 min 32 W/m² 1,6 °C 3,4 °C 11,3 km/h (2 Bft)
06.04.2026 07:19 21,7 °C 4,6 °C 45 % 81 % 1024,7 hPa 0,0 l/m² 9,6 km/h (2 Bft) W-SW 252 ° 0 min 32 W/m² 1,6 °C 1,9 °C 11,3 km/h (2 Bft)
06.04.2026 07:21 21,7 °C 4,7 °C 45 % 81 % 1024,7 hPa 0,0 l/m² 11,0 km/h (2 Bft) W-SW 254 ° 0 min 37 W/m² 1,7 °C 1,1 °C 14,5 km/h (3 Bft)
06.04.2026 07:22 21,7 °C 4,7 °C 45 % 81 % 1024,7 hPa 0,0 l/m² 10,2 km/h (2 Bft) W-SW 246 ° 0 min 39 W/m² 1,7 °C 1,6 °C 14,5 km/h (3 Bft)
06.04.2026 07:23 21,7 °C 4,7 °C 45 % 81 % 1024,7 hPa 0,0 l/m² 12,1 km/h (2 Bft) W-SW 258 ° 0 min 39 W/m² 1,7 °C 0,3 °C 16,1 km/h (3 Bft)
06.04.2026 07:25 21,7 °C 4,8 °C 45 % 81 % 1024,7 hPa 0,0 l/m² 10,2 km/h (2 Bft) W 261 ° 0 min 46 W/m² 1,8 °C 1,7 °C 12,9 km/h (3 Bft)
06.04.2026 07:26 21,7 °C 4,8 °C 45 % 81 % 1024,7 hPa 0,0 l/m² 10,4 km/h (2 Bft) W 259 ° 0 min 47 W/m² 1,8 °C 1,6 °C 14,5 km/h (3 Bft)
06.04.2026 07:27 21,7 °C 4,8 °C 45 % 81 % 1024,7 hPa 0,0 l/m² 11,6 km/h (2 Bft) W 272 ° 1 min 53 W/m² 1,8 °C 0,8 °C 14,5 km/h (3 Bft)
06.04.2026 07:28 21,7 °C 4,9 °C 45 % 80 % 1024,6 hPa 0,0 l/m² 9,9 km/h (2 Bft) W 259 ° 1 min 54 W/m² 1,7 °C 2,0 °C 12,9 km/h (3 Bft)
06.04.2026 07:29 21,7 °C 4,9 °C 45 % 80 % 1024,7 hPa 0,0 l/m² 11,1 km/h (2 Bft) W 267 ° 1 min 56 W/m² 1,7 °C 1,2 °C 12,9 km/h (3 Bft)
06.04.2026 07:31 21,7 °C 5,0 °C 45 % 80 % 1024,7 hPa 0,0 l/m² 11,0 km/h (2 Bft) W 263 ° 2 min 63 W/m² 1,8 °C 1,4 °C 16,1 km/h (3 Bft)
06.04.2026 07:32 21,7 °C 5,1 °C 45 % 80 % 1024,7 hPa 0,0 l/m² 11,9 km/h (2 Bft) W-SW 242 ° 1 min 67 W/m² 1,9 °C 0,9 °C 16,1 km/h (3 Bft)
06.04.2026 07:33 21,7 °C 5,1 °C 45 % 80 % 1024,7 hPa 0,0 l/m² 13,3 km/h (3 Bft) W-SW 254 ° 1 min 69 W/m² 1,9 °C 0,1 °C 19,3 km/h (3 Bft)
06.04.2026 07:35 21,7 °C 5,2 °C 45 % 80 % 1024,7 hPa 0,0 l/m² 11,9 km/h (2 Bft) W-SW 240 ° 2 min 69 W/m² 2,0 °C 1,0 °C 17,7 km/h (3 Bft)
06.04.2026 07:36 21,7 °C 5,3 °C 45 % 80 % 1024,7 hPa 0,0 l/m² 11,4 km/h (2 Bft) W-SW 254 ° 1 min 65 W/m² 2,1 °C 1,5 °C 16,1 km/h (3 Bft)
06.04.2026 07:37 21,7 °C 5,3 °C 45 % 80 % 1024,8 hPa 0,0 l/m² 10,9 km/h (2 Bft) W-SW 258 ° 1 min 63 W/m² 2,1 °C 1,8 °C 14,5 km/h (3 Bft)
06.04.2026 07:38 21,7 °C 5,3 °C 45 % 79 % 1024,8 hPa 0,0 l/m² 11,6 km/h (2 Bft) W-SW 255 ° 1 min 63 W/m² 2,0 °C 1,3 °C 14,5 km/h (3 Bft)
06.04.2026 07:39 21,7 °C 5,4 °C 45 % 79 % 1024,9 hPa 0,0 l/m² 10,7 km/h (2 Bft) W 267 ° 1 min 81 W/m² 2,1 °C 2,0 °C 14,5 km/h (3 Bft)
06.04.2026 07:41 21,7 °C 5,5 °C 45 % 79 % 1024,9 hPa 0,0 l/m² 12,9 km/h (3 Bft) W-SW 247 ° 2 min 86 W/m² 2,2 °C 0,8 °C 17,7 km/h (3 Bft)
06.04.2026 07:42 21,7 °C 5,6 °C 45 % 79 % 1024,9 hPa 0,0 l/m² 13,4 km/h (3 Bft) W-SW 252 ° 1 min 86 W/m² 2,3 °C 0,6 °C 16,1 km/h (3 Bft)
06.04.2026 07:43 21,7 °C 5,6 °C 45 % 79 % 1025,0 hPa 0,0 l/m² 14,8 km/h (3 Bft) W-SW 256 ° 1 min 90 W/m² 2,3 °C -0,1 °C 17,7 km/h (3 Bft)
06.04.2026 07:44 21,7 °C 5,6 °C 45 % 78 % 1025,0 hPa 0,0 l/m² 11,9 km/h (2 Bft) W-SW 252 ° 1 min 91 W/m² 2,1 °C 1,5 °C 17,7 km/h (3 Bft)
06.04.2026 07:45 21,7 °C 5,7 °C 45 % 78 % 1025,1 hPa 0,0 l/m² 12,0 km/h (2 Bft) SW 234 ° 1 min 93 W/m² 2,2 °C 1,6 °C 14,5 km/h (3 Bft)
06.04.2026 07:46 21,7 °C 5,7 °C 45 % 78 % 1025,1 hPa 0,0 l/m² 12,2 km/h (2 Bft) W-SW 251 ° 1 min 97 W/m² 2,2 °C 1,4 °C 16,1 km/h (3 Bft)
06.04.2026 07:47 21,7 °C 5,8 °C 45 % 78 % 1025,1 hPa 0,0 l/m² 13,5 km/h (3 Bft) W-SW 256 ° 1 min 98 W/m² 2,3 °C 0,8 °C 16,1 km/h (3 Bft)
06.04.2026 07:48 21,7 °C 5,8 °C 45 % 78 % 1025,2 hPa 0,0 l/m² 14,1 km/h (3 Bft) W-SW 252 ° 1 min 100 W/m² 2,3 °C 0,5 °C 16,1 km/h (3 Bft)
06.04.2026 07:49 21,7 °C 5,9 °C 45 % 77 % 1025,2 hPa 0,0 l/m² 13,9 km/h (3 Bft) W-SW 246 ° 1 min 105 W/m² 2,2 °C 0,7 °C 17,7 km/h (3 Bft)
06.04.2026 07:51 21,7 °C 5,9 °C 45 % 77 % 1025,2 hPa 0,0 l/m² 14,3 km/h (3 Bft) W-SW 253 ° 2 min 102 W/m² 2,2 °C 0,5 °C 20,9 km/h (4 Bft)
06.04.2026 07:53 21,7 °C 6,1 °C 45 % 77 % 1025,2 hPa 0,0 l/m² 13,8 km/h (3 Bft) W 276 ° 2 min 90 W/m² 2,4 °C 1,0 °C 19,3 km/h (3 Bft)
06.04.2026 07:54 21,7 °C 6,2 °C 45 % 76 % 1025,2 hPa 0,0 l/m² 13,5 km/h (3 Bft) W-NW 292 ° 1 min 97 W/m² 2,3 °C 1,3 °C 22,5 km/h (4 Bft)
06.04.2026 07:55 21,7 °C 6,2 °C 45 % 76 % 1025,2 hPa 0,0 l/m² 13,6 km/h (3 Bft) W-SW 238 ° 1 min 100 W/m² 2,3 °C 1,2 °C 16,1 km/h (3 Bft)
06.04.2026 07:56 21,7 °C 6,2 °C 45 % 76 % 1025,3 hPa 0,0 l/m² 15,4 km/h (3 Bft) W-SW 257 ° 1 min 120 W/m² 2,3 °C 0,3 °C 19,3 km/h (3 Bft)
06.04.2026 07:57 21,7 °C 6,3 °C 45 % 76 % 1025,3 hPa 0,0 l/m² 13,0 km/h (3 Bft) W 262 ° 1 min 120 W/m² 2,4 °C 1,7 °C 16,1 km/h (3 Bft)
06.04.2026 07:58 21,7 °C 6,3 °C 45 % 76 % 1025,3 hPa 0,0 l/m² 12,6 km/h (3 Bft) W 263 ° 1 min 130 W/m² 2,4 °C 1,9 °C 19,3 km/h (3 Bft)
06.04.2026 07:59 21,7 °C 6,3 °C 45 % 75 % 1025,3 hPa 0,0 l/m² 13,7 km/h (3 Bft) W 261 ° 1 min 134 W/m² 2,2 °C 1,3 °C 16,1 km/h (3 Bft)
06.04.2026 08:01 21,7 °C 6,4 °C 45 % 75 % 1025,4 hPa 0,0 l/m² 15,7 km/h (3 Bft) W-SW 256 ° 2 min 151 W/m² 2,3 °C 0,4 °C 22,5 km/h (4 Bft)
06.04.2026 08:03 21,7 °C 6,5 °C 45 % 75 % 1025,5 hPa 0,0 l/m² 18,1 km/h (3 Bft) W-SW 257 ° 2 min 149 W/m² 2,4 °C -0,5 °C 22,5 km/h (4 Bft)
06.04.2026 08:04 21,7 °C 6,6 °C 46 % 75 % 1025,4 hPa 0,0 l/m² 16,9 km/h (3 Bft) W 264 ° 1 min 139 W/m² 2,5 °C 0,1 °C 24,1 km/h (4 Bft)
06.04.2026 08:05 21,7 °C 6,6 °C 45 % 75 % 1025,5 hPa 0,0 l/m² 19,7 km/h (3 Bft) W 263 ° 1 min 160 W/m² 2,5 °C -1,0 °C 22,5 km/h (4 Bft)
06.04.2026 08:06 21,7 °C 6,7 °C 45 % 74 % 1025,5 hPa 0,0 l/m² 19,3 km/h (3 Bft) W-SW 244 ° 1 min 162 W/m² 2,4 °C -0,7 °C 22,5 km/h (4 Bft)
06.04.2026 08:07 21,7 °C 6,7 °C 45 % 74 % 1025,5 hPa 0,0 l/m² 18,1 km/h (3 Bft) SW 234 ° 1 min 178 W/m² 2,4 °C -0,2 °C 20,9 km/h (4 Bft)
06.04.2026 08:08 21,7 °C 6,7 °C 45 % 74 % 1025,5 hPa 0,0 l/m² 20,0 km/h (4 Bft) W 266 ° 1 min 142 W/m² 2,4 °C -1,0 °C 24,1 km/h (4 Bft)
06.04.2026 08:09 21,7 °C 6,8 °C 45 % 74 % 1025,6 hPa 0,0 l/m² 17,7 km/h (3 Bft) W 275 ° 1 min 153 W/m² 2,5 °C 0,1 °C 22,5 km/h (4 Bft)
06.04.2026 08:11 21,7 °C 6,8 °C 46 % 73 % 1025,5 hPa 0,0 l/m² 16,2 km/h (3 Bft) W-SW 251 ° 2 min 186 W/m² 2,3 °C 0,7 °C 24,1 km/h (4 Bft)
06.04.2026 08:13 21,8 °C 6,9 °C 46 % 73 % 1025,6 hPa 0,0 l/m² 20,8 km/h (4 Bft) W 261 ° 2 min 192 W/m² 2,4 °C -1,0 °C 25,7 km/h (4 Bft)
06.04.2026 08:14 21,8 °C 6,9 °C 46 % 73 % 1025,6 hPa 0,0 l/m² 23,5 km/h (4 Bft) W-SW 240 ° 1 min 207 W/m² 2,4 °C -1,9 °C 29,0 km/h (5 Bft)
06.04.2026 08:15 21,7 °C 6,9 °C 46 % 73 % 1025,6 hPa 0,0 l/m² 15,9 km/h (3 Bft) W-SW 257 ° 1 min 207 W/m² 2,4 °C 1,0 °C 22,5 km/h (4 Bft)
06.04.2026 08:16 21,8 °C 7,1 °C 46 % 73 % 1025,6 hPa 0,0 l/m² 17,4 km/h (3 Bft) W-SW 256 ° 1 min 197 W/m² 2,6 °C 0,6 °C 22,5 km/h (4 Bft)
06.04.2026 08:17 21,8 °C 7,1 °C 46 % 73 % 1025,7 hPa 0,0 l/m² 16,8 km/h (3 Bft) W 274 ° 1 min 167 W/m² 2,6 °C 0,8 °C 22,5 km/h (4 Bft)
06.04.2026 08:18 21,8 °C 7,1 °C 46 % 73 % 1025,7 hPa 0,0 l/m² 19,0 km/h (3 Bft) W-SW 253 ° 1 min 167 W/m² 2,6 °C -0,1 °C 24,1 km/h (4 Bft)
06.04.2026 08:19 21,8 °C 7,1 °C 46 % 72 % 1025,7 hPa 0,0 l/m² 18,7 km/h (3 Bft) W 267 ° 1 min 229 W/m² 2,4 °C 0,0 °C 24,1 km/h (4 Bft)
06.04.2026 08:21 21,8 °C 7,2 °C 46 % 72 % 1025,7 hPa 0,0 l/m² 18,8 km/h (3 Bft) W 261 ° 2 min 236 W/m² 2,5 °C 0,1 °C 22,5 km/h (4 Bft)
06.04.2026 08:22 21,8 °C 7,2 °C 46 % 72 % 1025,7 hPa 0,0 l/m² 20,9 km/h (4 Bft) W-SW 255 ° 1 min 239 W/m² 2,5 °C -0,7 °C 25,7 km/h (4 Bft)
06.04.2026 08:23 21,8 °C 7,2 °C 46 % 72 % 1025,7 hPa 0,0 l/m² 19,6 km/h (3 Bft) W-SW 248 ° 1 min 248 W/m² 2,5 °C -0,2 °C 24,1 km/h (4 Bft)
06.04.2026 08:24 21,8 °C 7,2 °C 46 % 72 % 1025,7 hPa 0,0 l/m² 17,3 km/h (3 Bft) W-SW 240 ° 1 min 241 W/m² 2,5 °C 0,7 °C 24,1 km/h (4 Bft)
06.04.2026 08:25 21,8 °C 7,3 °C 46 % 72 % 1025,7 hPa 0,0 l/m² 13,8 km/h (3 Bft) W-SW 255 ° 1 min 234 W/m² 2,6 °C 2,4 °C 17,7 km/h (3 Bft)
06.04.2026 08:26 21,8 °C 7,3 °C 46 % 72 % 1025,7 hPa 0,0 l/m² 16,6 km/h (3 Bft) W-SW 246 ° 1 min 239 W/m² 2,6 °C 1,1 °C 24,1 km/h (4 Bft)
06.04.2026 08:27 21,8 °C 7,4 °C 46 % 72 % 1025,6 hPa 0,0 l/m² 18,8 km/h (3 Bft) W 262 ° 1 min 237 W/m² 2,7 °C 0,4 °C 22,5 km/h (4 Bft)
06.04.2026 08:28 21,8 °C 7,4 °C 47 % 72 % 1025,7 hPa 0,0 l/m² 20,9 km/h (4 Bft) W 260 ° 1 min 229 W/m² 2,7 °C -0,4 °C 25,7 km/h (4 Bft)
06.04.2026 08:29 21,8 °C 7,4 °C 47 % 71 % 1025,7 hPa 0,0 l/m² 15,5 km/h (3 Bft) W-SW 255 ° 1 min 237 W/m² 2,5 °C 1,8 °C 19,3 km/h (3 Bft)
06.04.2026 08:30 21,8 °C 7,5 °C 47 % 71 % 1025,7 hPa 0,0 l/m² 18,9 km/h (3 Bft) W-SW 244 ° 1 min 211 W/m² 2,6 °C 0,5 °C 25,7 km/h (4 Bft)
06.04.2026 08:31 21,8 °C 7,6 °C 47 % 71 % 1025,7 hPa 0,0 l/m² 17,6 km/h (3 Bft) W-SW 240 ° 1 min 244 W/m² 2,7 °C 1,1 °C 24,1 km/h (4 Bft)
06.04.2026 08:32 21,8 °C 7,6 °C 47 % 71 % 1025,8 hPa 0,0 l/m² 20,5 km/h (4 Bft) W-SW 242 ° 1 min 244 W/m² 2,7 °C 0,0 °C 27,4 km/h (5 Bft)
06.04.2026 08:33 21,8 °C 7,6 °C 47 % 71 % 1025,7 hPa 0,0 l/m² 20,6 km/h (4 Bft) W-SW 249 ° 1 min 272 W/m² 2,7 °C -0,0 °C 29,0 km/h (5 Bft)
06.04.2026 08:34 21,9 °C 7,6 °C 47 % 71 % 1025,7 hPa 0,0 l/m² 20,0 km/h (4 Bft) W-SW 244 ° 1 min 269 W/m² 2,7 °C 0,2 °C 22,5 km/h (4 Bft)
06.04.2026 08:35 21,8 °C 7,7 °C 47 % 71 % 1025,7 hPa 0,0 l/m² 19,0 km/h (3 Bft) W 259 ° 1 min 255 W/m² 2,8 °C 0,7 °C 24,1 km/h (4 Bft)
06.04.2026 08:36 21,8 °C 7,7 °C 47 % 70 % 1025,7 hPa 0,0 l/m² 18,7 km/h (3 Bft) W 263 ° 1 min 232 W/m² 2,6 °C 0,8 °C 25,7 km/h (4 Bft)
06.04.2026 08:37 21,9 °C 7,8 °C 47 % 70 % 1025,7 hPa 0,0 l/m² 18,9 km/h (3 Bft) W-SW 248 ° 1 min 281 W/m² 2,7 °C 0,8 °C 24,1 km/h (4 Bft)
06.04.2026 08:38 21,9 °C 7,8 °C 47 % 70 % 1025,8 hPa 0,0 l/m² 18,9 km/h (3 Bft) W-SW 248 ° 1 min 285 W/m² 2,7 °C 0,8 °C 25,7 km/h (4 Bft)
06.04.2026 08:39 21,9 °C 7,8 °C 47 % 70 % 1025,7 hPa 0,0 l/m² 20,7 km/h (4 Bft) W-SW 258 ° 1 min 287 W/m² 2,7 °C 0,2 °C 29,0 km/h (5 Bft)
06.04.2026 08:40 21,9 °C 7,9 °C 47 % 70 % 1025,7 hPa 0,0 l/m² 23,4 km/h (4 Bft) W 261 ° 1 min 274 W/m² 2,8 °C -0,5 °C 29,0 km/h (5 Bft)
06.04.2026 08:41 21,9 °C 7,9 °C 47 % 69 % 1025,7 hPa 0,0 l/m² 22,8 km/h (4 Bft) W-SW 252 ° 1 min 276 W/m² 2,6 °C -0,4 °C 25,7 km/h (4 Bft)
06.04.2026 08:42 21,9 °C 7,9 °C 47 % 69 % 1025,7 hPa 0,0 l/m² 22,7 km/h (4 Bft) W-SW 248 ° 1 min 272 W/m² 2,6 °C -0,3 °C 27,4 km/h (5 Bft)
06.04.2026 08:43 21,9 °C 8,0 °C 47 % 69 % 1025,8 hPa 0,0 l/m² 21,1 km/h (4 Bft) SW 231 ° 1 min 281 W/m² 2,7 °C 0,3 °C 25,7 km/h (4 Bft)
06.04.2026 08:44 21,9 °C 8,1 °C 47 % 69 % 1025,8 hPa 0,0 l/m² 19,1 km/h (3 Bft) W 262 ° 1 min 279 W/m² 2,8 °C 1,2 °C 22,5 km/h (4 Bft)
06.04.2026 08:45 21,9 °C 8,1 °C 47 % 69 % 1025,8 hPa 0,0 l/m² 25,7 km/h (4 Bft) W 259 ° 1 min 292 W/m² 2,8 °C -0,9 °C 29,0 km/h (5 Bft)
06.04.2026 08:46 21,9 °C 8,1 °C 47 % 68 % 1025,9 hPa 0,0 l/m² 22,9 km/h (4 Bft) W-SW 251 ° 1 min 308 W/m² 2,6 °C -0,1 °C 29,0 km/h (5 Bft)
06.04.2026 08:47 21,9 °C 8,1 °C 47 % 68 % 1025,9 hPa 0,0 l/m² 22,9 km/h (4 Bft) W-SW 244 ° 1 min 313 W/m² 2,6 °C -0,1 °C 25,7 km/h (4 Bft)
06.04.2026 08:48 21,9 °C 8,2 °C 47 % 68 % 1025,8 hPa 0,0 l/m² 23,2 km/h (4 Bft) W 265 ° 1 min 325 W/m² 2,7 °C -0,1 °C 29,0 km/h (5 Bft)
06.04.2026 08:49 21,9 °C 8,2 °C 47 % 68 % 1025,9 hPa 0,0 l/m² 23,4 km/h (4 Bft) W-SW 257 ° 1 min 327 W/m² 2,7 °C -0,1 °C 30,6 km/h (5 Bft)
06.04.2026 08:50 21,9 °C 8,2 °C 47 % 68 % 1025,9 hPa 0,0 l/m² 17,9 km/h (3 Bft) W-SW 258 ° 1 min 329 W/m² 2,7 °C 1,7 °C 22,5 km/h (4 Bft)
06.04.2026 08:51 21,9 °C 8,2 °C 47 % 68 % 1026,0 hPa 0,0 l/m² 18,1 km/h (3 Bft) W-SW 246 ° 1 min 330 W/m² 2,7 °C 1,7 °C 25,7 km/h (4 Bft)
06.04.2026 08:52 21,9 °C 8,2 °C 47 % 68 % 1025,9 hPa 0,0 l/m² 19,8 km/h (3 Bft) W-SW 253 ° 1 min 338 W/m² 2,7 °C 1,0 °C 27,4 km/h (5 Bft)
06.04.2026 08:53 21,9 °C 8,2 °C 47 % 68 % 1026,1 hPa 0,0 l/m² 23,2 km/h (4 Bft) W-SW 253 ° 1 min 336 W/m² 2,7 °C -0,1 °C 29,0 km/h (5 Bft)
06.04.2026 08:54 21,9 °C 8,3 °C 47 % 68 % 1026,0 hPa 0,0 l/m² 16,7 km/h (3 Bft) W-SW 253 ° 1 min 325 W/m² 2,7 °C 2,3 °C 22,5 km/h (4 Bft)
06.04.2026 08:55 21,9 °C 8,3 °C 47 % 68 % 1026,0 hPa 0,0 l/m² 17,8 km/h (3 Bft) W-SW 257 ° 1 min 336 W/m² 2,7 °C 1,9 °C 24,1 km/h (4 Bft)
06.04.2026 08:56 21,9 °C 8,4 °C 47 % 68 % 1026,0 hPa 0,0 l/m² 15,6 km/h (3 Bft) W-SW 238 ° 1 min 338 W/m² 2,8 °C 2,9 °C 20,9 km/h (4 Bft)
06.04.2026 08:57 21,9 °C 8,4 °C 47 % 67 % 1026,0 hPa 0,0 l/m² 15,9 km/h (3 Bft) W-SW 258 ° 1 min 345 W/m² 2,6 °C 2,8 °C 24,1 km/h (4 Bft)
06.04.2026 08:58 22,0 °C 8,5 °C 47 % 67 % 1026,0 hPa 0,0 l/m² 16,7 km/h (3 Bft) W-SW 252 ° 1 min 345 W/m² 2,7 °C 2,6 °C 20,9 km/h (4 Bft)
06.04.2026 08:59 22,0 °C 8,5 °C 47 % 67 % 1026,0 hPa 0,0 l/m² 16,3 km/h (3 Bft) W 264 ° 1 min 341 W/m² 2,7 °C 2,8 °C 22,5 km/h (4 Bft)
06.04.2026 09:00 21,9 °C 8,6 °C 47 % 67 % 1026,1 hPa 0,0 l/m² 18,8 km/h (3 Bft) W 266 ° 1 min 336 W/m² 2,8 °C 1,9 °C 25,7 km/h (4 Bft)
06.04.2026 09:01 22,0 °C 8,6 °C 47 % 67 % 1026,0 hPa 0,0 l/m² 16,8 km/h (3 Bft) W-SW 254 ° 1 min 327 W/m² 2,8 °C 2,7 °C 24,1 km/h (4 Bft)
06.04.2026 09:03 22,0 °C 8,7 °C 47 % 66 % 1026,0 hPa 0,0 l/m² 20,7 km/h (4 Bft) W-SW 256 ° 2 min 295 W/m² 2,7 °C 1,4 °C 29,0 km/h (5 Bft)
06.04.2026 09:04 22,0 °C 8,7 °C 47 % 66 % 1026,0 hPa 0,0 l/m² 23,6 km/h (4 Bft) W 279 ° 1 min 292 W/m² 2,7 °C 0,5 °C 27,4 km/h (5 Bft)
06.04.2026 09:05 22,0 °C 8,7 °C 47 % 65 % 1026,1 hPa 0,0 l/m² 26,5 km/h (4 Bft) W-NW 282 ° 1 min 316 W/m² 2,5 °C -0,3 °C 33,8 km/h (5 Bft)
06.04.2026 09:06 22,0 °C 8,7 °C 47 % 65 % 1026,0 hPa 0,0 l/m² 19,6 km/h (3 Bft) W 263 ° 1 min 313 W/m² 2,5 °C 1,7 °C 25,7 km/h (4 Bft)
06.04.2026 09:08 22,0 °C 8,8 °C 47 % 65 % 1026,2 hPa 0,0 l/m² 20,1 km/h (4 Bft) W 278 ° 2 min 374 W/m² 2,6 °C 1,7 °C 27,4 km/h (5 Bft)
06.04.2026 09:09 22,0 °C 8,8 °C 47 % 65 % 1026,2 hPa 0,0 l/m² 27,7 km/h (5 Bft) W 267 ° 1 min 385 W/m² 2,6 °C -0,5 °C 35,4 km/h (5 Bft)
06.04.2026 09:10 22,1 °C 8,8 °C 47 % 64 % 1026,2 hPa 0,0 l/m² 22,7 km/h (4 Bft) W-SW 254 ° 1 min 373 W/m² 2,4 °C 0,9 °C 29,0 km/h (5 Bft)
06.04.2026 09:11 22,1 °C 8,8 °C 47 % 64 % 1026,2 hPa 0,0 l/m² 23,6 km/h (4 Bft) W 262 ° 1 min 378 W/m² 2,4 °C 0,6 °C 29,0 km/h (5 Bft)
06.04.2026 09:12 22,0 °C 8,8 °C 47 % 64 % 1026,2 hPa 0,0 l/m² 16,9 km/h (3 Bft) W-SW 237 ° 1 min 394 W/m² 2,4 °C 2,9 °C 24,1 km/h (4 Bft)
06.04.2026 09:13 22,1 °C 8,9 °C 47 % 64 % 1026,3 hPa 0,0 l/m² 15,4 km/h (3 Bft) W-SW 258 ° 1 min 381 W/m² 2,5 °C 3,6 °C 20,9 km/h (4 Bft)
06.04.2026 09:14 22,0 °C 8,9 °C 47 % 65 % 1026,2 hPa 0,0 l/m² 15,6 km/h (3 Bft) W 271 ° 1 min 387 W/m² 2,7 °C 3,5 °C 20,9 km/h (4 Bft)
06.04.2026 09:15 22,0 °C 8,9 °C 47 % 65 % 1026,3 hPa 0,0 l/m² 22,9 km/h (4 Bft) W-SW 238 ° 1 min 392 W/m² 2,7 °C 0,9 °C 30,6 km/h (5 Bft)
06.04.2026 09:16 22,0 °C 9,0 °C 47 % 64 % 1026,3 hPa 0,0 l/m² 23,2 km/h (4 Bft) W 260 ° 1 min 388 W/m² 2,6 °C 1,0 °C 30,6 km/h (5 Bft)
06.04.2026 09:17 22,1 °C 9,1 °C 47 % 63 % 1026,4 hPa 0,0 l/m² 28,7 km/h (5 Bft) W 265 ° 1 min 397 W/m² 2,4 °C -0,3 °C 41,8 km/h (6 Bft)
06.04.2026 09:18 22,1 °C 9,1 °C 47 % 63 % 1026,4 hPa 0,0 l/m² 23,7 km/h (4 Bft) W 271 ° 1 min 404 W/m² 2,4 °C 1,0 °C 32,2 km/h (5 Bft)
06.04.2026 09:19 22,1 °C 9,1 °C 47 % 63 % 1026,3 hPa 0,0 l/m² 22,1 km/h (4 Bft) W 279 ° 1 min 422 W/m² 2,4 °C 1,4 °C 30,6 km/h (5 Bft)
06.04.2026 09:20 22,1 °C 9,1 °C 47 % 63 % 1026,2 hPa 0,0 l/m² 21,0 km/h (4 Bft) W 263 ° 1 min 390 W/m² 2,4 °C 1,8 °C 25,7 km/h (4 Bft)
06.04.2026 09:21 22,1 °C 9,1 °C 47 % 63 % 1026,3 hPa 0,0 l/m² 25,5 km/h (4 Bft) W-SW 251 ° 1 min 364 W/m² 2,4 °C 0,5 °C 30,6 km/h (5 Bft)
06.04.2026 09:22 22,1 °C 9,2 °C 47 % 63 % 1026,2 hPa 0,0 l/m² 25,2 km/h (4 Bft) W 273 ° 1 min 345 W/m² 2,5 °C 0,7 °C 30,6 km/h (5 Bft)
06.04.2026 09:23 22,1 °C 9,2 °C 47 % 63 % 1026,3 hPa 0,0 l/m² 21,3 km/h (4 Bft) W 259 ° 1 min 352 W/m² 2,5 °C 1,8 °C 29,0 km/h (5 Bft)
06.04.2026 09:24 22,1 °C 9,2 °C 47 % 62 % 1026,4 hPa 0,0 l/m² 24,6 km/h (4 Bft) W 264 ° 1 min 348 W/m² 2,3 °C 0,9 °C 37,0 km/h (5 Bft)
06.04.2026 09:25 22,1 °C 9,2 °C 47 % 62 % 1026,4 hPa 0,0 l/m² 22,7 km/h (4 Bft) W-SW 254 ° 1 min 443 W/m² 2,3 °C 1,4 °C 30,6 km/h (5 Bft)
06.04.2026 09:26 22,1 °C 9,2 °C 47 % 63 % 1026,4 hPa 0,0 l/m² 22,7 km/h (4 Bft) W-SW 252 ° 1 min 448 W/m² 2,5 °C 1,4 °C 27,4 km/h (5 Bft)
06.04.2026 09:27 22,1 °C 9,2 °C 47 % 62 % 1026,4 hPa 0,0 l/m² 21,3 km/h (4 Bft) W-NW 302 ° 1 min 429 W/m² 2,3 °C 1,8 °C 32,2 km/h (5 Bft)
06.04.2026 09:28 22,1 °C 9,2 °C 47 % 63 % 1026,4 hPa 0,0 l/m² 24,8 km/h (4 Bft) W 274 ° 1 min 438 W/m² 2,5 °C 0,8 °C 32,2 km/h (5 Bft)
06.04.2026 09:29 22,1 °C 9,2 °C 47 % 63 % 1026,4 hPa 0,0 l/m² 22,6 km/h (4 Bft) W 265 ° 1 min 432 W/m² 2,5 °C 1,4 °C 30,6 km/h (5 Bft)
06.04.2026 09:30 22,1 °C 9,3 °C 47 % 63 % 1026,3 hPa 0,0 l/m² 19,6 km/h (3 Bft) W 275 ° 1 min 445 W/m² 2,6 °C 2,5 °C 22,5 km/h (4 Bft)
06.04.2026 09:31 22,1 °C 9,3 °C 47 % 62 % 1026,5 hPa 0,0 l/m² 25,5 km/h (4 Bft) W 265 ° 1 min 445 W/m² 2,4 °C 0,8 °C 37,0 km/h (5 Bft)
06.04.2026 09:32 22,1 °C 9,3 °C 47 % 62 % 1026,4 hPa 0,0 l/m² 25,1 km/h (4 Bft) W 271 ° 1 min 429 W/m² 2,4 °C 0,9 °C 32,2 km/h (5 Bft)
06.04.2026 09:33 22,1 °C 9,3 °C 47 % 62 % 1026,4 hPa 0,0 l/m² 20,7 km/h (4 Bft) W-SW 249 ° 1 min 424 W/m² 2,4 °C 2,2 °C 30,6 km/h (5 Bft)
06.04.2026 09:34 22,1 °C 9,3 °C 47 % 62 % 1026,4 hPa 0,0 l/m² 25,0 km/h (4 Bft) W-SW 254 ° 1 min 387 W/m² 2,4 °C 0,9 °C 30,6 km/h (5 Bft)
06.04.2026 09:35 22,1 °C 9,3 °C 47 % 62 % 1026,4 hPa 0,0 l/m² 27,5 km/h (5 Bft) W 271 ° 1 min 436 W/m² 2,4 °C 0,2 °C 33,8 km/h (5 Bft)
06.04.2026 09:36 22,1 °C 9,3 °C 47 % 61 % 1026,4 hPa 0,0 l/m² 22,7 km/h (4 Bft) W-SW 255 ° 1 min 450 W/m² 2,2 °C 1,5 °C 35,4 km/h (5 Bft)
06.04.2026 09:37 22,1 °C 9,3 °C 47 % 62 % 1026,4 hPa 0,0 l/m² 21,6 km/h (4 Bft) W 263 ° 1 min 454 W/m² 2,4 °C 1,9 °C 29,0 km/h (5 Bft)
06.04.2026 09:38 22,1 °C 9,4 °C 47 % 62 % 1026,4 hPa 0,0 l/m² 20,1 km/h (4 Bft) W 266 ° 1 min 446 W/m² 2,5 °C 2,5 °C 27,4 km/h (5 Bft)
06.04.2026 09:39 22,1 °C 9,4 °C 47 % 62 % 1026,4 hPa 0,0 l/m² 24,6 km/h (4 Bft) W 261 ° 1 min 452 W/m² 2,5 °C 1,1 °C 32,2 km/h (5 Bft)
06.04.2026 09:40 22,1 °C 9,4 °C 46 % 61 % 1026,5 hPa 0,0 l/m² 20,8 km/h (4 Bft) W-SW 257 ° 1 min 459 W/m² 2,3 °C 2,2 °C 27,4 km/h (5 Bft)
06.04.2026 09:41 22,0 °C 9,4 °C 46 % 61 % 1026,6 hPa 0,0 l/m² 20,4 km/h (4 Bft) W 259 ° 1 min 459 W/m² 2,3 °C 2,4 °C 27,4 km/h (5 Bft)
06.04.2026 09:42 22,1 °C 9,5 °C 46 % 62 % 1026,6 hPa 0,0 l/m² 19,5 km/h (3 Bft) W 264 ° 1 min 462 W/m² 2,6 °C 2,8 °C 25,7 km/h (4 Bft)
06.04.2026 09:43 22,1 °C 9,5 °C 46 % 62 % 1026,5 hPa 0,0 l/m² 20,0 km/h (4 Bft) W-SW 257 ° 1 min 464 W/m² 2,6 °C 2,6 °C 25,7 km/h (4 Bft)
06.04.2026 09:44 22,1 °C 9,5 °C 46 % 62 % 1026,6 hPa 0,0 l/m² 20,6 km/h (4 Bft) W 271 ° 1 min 459 W/m² 2,6 °C 2,4 °C 29,0 km/h (5 Bft)
06.04.2026 09:46 22,1 °C 9,6 °C 46 % 61 % 1026,5 hPa 0,0 l/m² 22,3 km/h (4 Bft) W 260 ° 2 min 457 W/m² 2,5 °C 2,0 °C 30,6 km/h (5 Bft)
06.04.2026 09:48 22,1 °C 9,7 °C 46 % 61 % 1026,5 hPa 0,0 l/m² 21,7 km/h (4 Bft) W 273 ° 2 min 485 W/m² 2,5 °C 2,4 °C 33,8 km/h (5 Bft)
06.04.2026 09:49 22,1 °C 9,7 °C 46 % 59 % 1026,5 hPa 0,0 l/m² 25,1 km/h (4 Bft) W 269 ° 1 min 487 W/m² 2,1 °C 1,4 °C 30,6 km/h (5 Bft)
06.04.2026 09:50 22,0 °C 9,7 °C 46 % 59 % 1026,5 hPa 0,0 l/m² 23,0 km/h (4 Bft) W 276 ° 1 min 489 W/m² 2,1 °C 2,0 °C 32,2 km/h (5 Bft)
06.04.2026 09:51 22,1 °C 9,7 °C 45 % 59 % 1026,5 hPa 0,0 l/m² 24,4 km/h (4 Bft) W-NW 284 ° 1 min 501 W/m² 2,1 °C 1,6 °C 38,6 km/h (6 Bft)
06.04.2026 09:52 22,0 °C 9,7 °C 45 % 58 % 1026,5 hPa 0,0 l/m² 22,8 km/h (4 Bft) W-NW 291 ° 1 min 490 W/m² 1,8 °C 2,0 °C 33,8 km/h (5 Bft)
06.04.2026 09:53 22,0 °C 9,7 °C 45 % 58 % 1026,5 hPa 0,0 l/m² 27,0 km/h (5 Bft) W 276 ° 1 min 501 W/m² 1,8 °C 0,9 °C 40,2 km/h (6 Bft)
06.04.2026 09:54 22,0 °C 9,7 °C 45 % 59 % 1026,6 hPa 0,0 l/m² 21,7 km/h (4 Bft) W-SW 246 ° 1 min 497 W/m² 2,1 °C 2,4 °C 35,4 km/h (5 Bft)
06.04.2026 09:55 22,0 °C 9,7 °C 45 % 59 % 1026,6 hPa 0,0 l/m² 24,5 km/h (4 Bft) W 273 ° 1 min 503 W/m² 2,1 °C 1,6 °C 30,6 km/h (5 Bft)
06.04.2026 09:56 22,0 °C 9,8 °C 45 % 59 % 1026,6 hPa 0,0 l/m² 22,4 km/h (4 Bft) W-NW 288 ° 1 min 512 W/m² 2,2 °C 2,3 °C 29,0 km/h (5 Bft)
06.04.2026 09:57 22,0 °C 9,8 °C 45 % 59 % 1026,5 hPa 0,0 l/m² 22,5 km/h (4 Bft) W 277 ° 1 min 503 W/m² 2,2 °C 2,3 °C 30,6 km/h (5 Bft)
06.04.2026 09:58 22,0 °C 9,8 °C 45 % 59 % 1026,6 hPa 0,0 l/m² 21,5 km/h (4 Bft) W 267 ° 1 min 501 W/m² 2,2 °C 2,6 °C 27,4 km/h (5 Bft)
06.04.2026 09:59 22,0 °C 9,8 °C 45 % 59 % 1026,6 hPa 0,0 l/m² 16,7 km/h (3 Bft) W 260 ° 1 min 519 W/m² 2,2 °C 4,2 °C 20,9 km/h (4 Bft)
06.04.2026 10:00 22,0 °C 9,8 °C 45 % 60 % 1026,6 hPa 0,0 l/m² 14,2 km/h (3 Bft) W-NW 290 ° 1 min 527 W/m² 2,4 °C 5,2 °C 19,3 km/h (3 Bft)
06.04.2026 10:01 22,0 °C 9,9 °C 45 % 60 % 1026,6 hPa 0,0 l/m² 20,0 km/h (4 Bft) W-NW 292 ° 1 min 531 W/m² 2,5 °C 3,2 °C 27,4 km/h (5 Bft)
06.04.2026 10:02 22,0 °C 9,9 °C 45 % 59 % 1026,7 hPa 0,0 l/m² 23,4 km/h (4 Bft) W 279 ° 1 min 522 W/m² 2,3 °C 2,1 °C 32,2 km/h (5 Bft)
06.04.2026 10:03 22,0 °C 10,0 °C 45 % 57 % 1026,5 hPa 0,0 l/m² 28,0 km/h (5 Bft) W-NW 289 ° 1 min 540 W/m² 1,9 °C 1,1 °C 37,0 km/h (5 Bft)
06.04.2026 10:04 22,0 °C 10,0 °C 45 % 57 % 1026,7 hPa 0,0 l/m² 21,9 km/h (4 Bft) NW 306 ° 1 min 508 W/m² 1,9 °C 2,7 °C 29,0 km/h (5 Bft)
06.04.2026 10:05 22,0 °C 10,1 °C 44 % 57 % 1026,5 hPa 0,0 l/m² 13,4 km/h (3 Bft) W-NW 298 ° 1 min 123 W/m² 2,0 °C 6,0 °C 20,9 km/h (4 Bft)
06.04.2026 10:06 22,0 °C 10,1 °C 44 % 57 % 1026,5 hPa 0,0 l/m² 15,2 km/h (3 Bft) W 280 ° 1 min 123 W/m² 2,0 °C 5,2 °C 20,9 km/h (4 Bft)
06.04.2026 10:07 22,0 °C 10,1 °C 43 % 57 % 1026,6 hPa 0,0 l/m² 25,5 km/h (4 Bft) W-NW 283 ° 1 min 547 W/m² 2,0 °C 1,8 °C 29,0 km/h (5 Bft)
06.04.2026 10:08 22,0 °C 10,1 °C 43 % 58 % 1026,5 hPa 0,0 l/m² 23,3 km/h (4 Bft) W-NW 283 ° 1 min 554 W/m² 2,2 °C 2,4 °C 29,0 km/h (5 Bft)
06.04.2026 10:09 22,0 °C 10,0 °C 43 % 57 % 1026,5 hPa 0,0 l/m² 22,8 km/h (4 Bft) W 281 ° 1 min 554 W/m² 1,9 °C 2,4 °C 27,4 km/h (5 Bft)
06.04.2026 10:10 22,0 °C 10,1 °C 43 % 57 % 1026,6 hPa 0,0 l/m² 14,6 km/h (3 Bft) SW 236 ° 1 min 554 W/m² 2,0 °C 5,4 °C 20,9 km/h (4 Bft)
06.04.2026 10:11 22,0 °C 10,1 °C 42 % 58 % 1026,6 hPa 0,0 l/m² 18,9 km/h (3 Bft) W 265 ° 1 min 520 W/m² 2,2 °C 3,8 °C 24,1 km/h (4 Bft)
06.04.2026 10:12 22,0 °C 10,1 °C 42 % 58 % 1026,6 hPa 0,0 l/m² 23,8 km/h (4 Bft) W 263 ° 1 min 566 W/m² 2,2 °C 2,3 °C 30,6 km/h (5 Bft)
06.04.2026 10:13 21,9 °C 10,1 °C 42 % 57 % 1026,6 hPa 0,0 l/m² 19,0 km/h (3 Bft) W 259 ° 1 min 487 W/m² 2,0 °C 3,7 °C 24,1 km/h (4 Bft)
06.04.2026 10:14 21,9 °C 10,1 °C 42 % 58 % 1026,5 hPa 0,0 l/m² 16,5 km/h (3 Bft) W 278 ° 1 min 538 W/m² 2,2 °C 4,7 °C 20,9 km/h (4 Bft)
06.04.2026 10:15 21,9 °C 10,2 °C 42 % 58 % 1026,5 hPa 0,0 l/m² 17,3 km/h (3 Bft) W 275 ° 1 min 512 W/m² 2,3 °C 4,5 °C 20,9 km/h (4 Bft)
06.04.2026 10:16 21,9 °C 10,2 °C 41 % 58 % 1026,5 hPa 0,0 l/m² 19,9 km/h (4 Bft) W 279 ° 1 min 506 W/m² 2,3 °C 3,6 °C 24,1 km/h (4 Bft)
06.04.2026 10:17 21,9 °C 10,2 °C 41 % 58 % 1026,5 hPa 0,0 l/m² 15,0 km/h (3 Bft) NW 323 ° 1 min 580 W/m² 2,3 °C 5,4 °C 27,4 km/h (5 Bft)
06.04.2026 10:18 21,9 °C 10,3 °C 41 % 58 % 1026,6 hPa 0,0 l/m² 16,6 km/h (3 Bft) W 263 ° 1 min 563 W/m² 2,4 °C 4,9 °C 24,1 km/h (4 Bft)
06.04.2026 10:19 21,9 °C 10,3 °C 41 % 57 % 1026,6 hPa 0,0 l/m² 22,7 km/h (4 Bft) W 272 ° 1 min 555 W/m² 2,2 °C 2,9 °C 32,2 km/h (5 Bft)
06.04.2026 10:20 21,9 °C 10,4 °C 41 % 57 % 1026,7 hPa 0,0 l/m² 18,2 km/h (3 Bft) W 277 ° 1 min 564 W/m² 2,3 °C 4,4 °C 22,5 km/h (4 Bft)
06.04.2026 10:21 21,9 °C 10,4 °C 42 % 57 % 1026,7 hPa 0,0 l/m² 19,6 km/h (3 Bft) W 278 ° 1 min 564 W/m² 2,3 °C 3,9 °C 25,7 km/h (4 Bft)
06.04.2026 10:22 21,9 °C 10,4 °C 42 % 56 % 1026,5 hPa 0,0 l/m² 20,9 km/h (4 Bft) W 271 ° 1 min 564 W/m² 2,0 °C 3,5 °C 27,4 km/h (5 Bft)
06.04.2026 10:23 21,9 °C 10,4 °C 42 % 55 % 1026,5 hPa 0,0 l/m² 20,0 km/h (4 Bft) W 265 ° 1 min 575 W/m² 1,8 °C 3,8 °C 25,7 km/h (4 Bft)
06.04.2026 10:24 21,9 °C 10,5 °C 42 % 56 % 1026,6 hPa 0,0 l/m² 19,4 km/h (3 Bft) W-SW 257 ° 1 min 575 W/m² 2,1 °C 4,1 °C 22,5 km/h (4 Bft)
06.04.2026 10:25 21,9 °C 10,5 °C 42 % 56 % 1026,5 hPa 0,0 l/m² 20,8 km/h (4 Bft) W-SW 242 ° 1 min 557 W/m² 2,1 °C 3,7 °C 27,4 km/h (5 Bft)
06.04.2026 10:26 21,9 °C 10,6 °C 42 % 56 % 1026,6 hPa 0,0 l/m² 21,0 km/h (4 Bft) W 262 ° 1 min 570 W/m² 2,2 °C 3,8 °C 25,7 km/h (4 Bft)
06.04.2026 10:27 21,9 °C 10,6 °C 42 % 56 % 1026,6 hPa 0,0 l/m² 15,6 km/h (3 Bft) W 271 ° 1 min 573 W/m² 2,2 °C 5,6 °C 19,3 km/h (3 Bft)
06.04.2026 10:28 21,9 °C 10,6 °C 42 % 56 % 1026,7 hPa 0,0 l/m² 19,6 km/h (3 Bft) W-SW 242 ° 1 min 598 W/m² 2,2 °C 4,2 °C 24,1 km/h (4 Bft)
06.04.2026 10:29 21,9 °C 10,6 °C 42 % 55 % 1026,6 hPa 0,0 l/m² 16,9 km/h (3 Bft) W-SW 254 ° 1 min 594 W/m² 1,9 °C 5,1 °C 22,5 km/h (4 Bft)
06.04.2026 10:30 21,9 °C 10,7 °C 42 % 56 % 1026,6 hPa 0,0 l/m² 17,4 km/h (3 Bft) W-NW 299 ° 1 min 587 W/m² 2,3 °C 5,1 °C 22,5 km/h (4 Bft)
06.04.2026 10:31 21,9 °C 10,7 °C 42 % 56 % 1026,7 hPa 0,0 l/m² 16,5 km/h (3 Bft) W-SW 253 ° 1 min 594 W/m² 2,3 °C 5,4 °C 22,5 km/h (4 Bft)
06.04.2026 10:32 21,9 °C 10,7 °C 42 % 56 % 1026,6 hPa 0,0 l/m² 24,3 km/h (4 Bft) W-SW 252 ° 1 min 610 W/m² 2,3 °C 3,0 °C 30,6 km/h (5 Bft)
06.04.2026 10:33 21,9 °C 10,8 °C 42 % 56 % 1026,6 hPa 0,0 l/m² 19,7 km/h (3 Bft) W-SW 256 ° 1 min 599 W/m² 2,4 °C 4,4 °C 30,6 km/h (5 Bft)
06.04.2026 10:34 21,9 °C 10,8 °C 42 % 56 % 1026,6 hPa 0,0 l/m² 13,8 km/h (3 Bft) W-SW 256 ° 1 min 621 W/m² 2,4 °C 6,6 °C 19,3 km/h (3 Bft)
06.04.2026 10:35 21,9 °C 10,8 °C 42 % 56 % 1026,5 hPa 0,0 l/m² 22,7 km/h (4 Bft) W 275 ° 1 min 550 W/m² 2,4 °C 3,5 °C 30,6 km/h (5 Bft)
06.04.2026 10:36 21,9 °C 10,9 °C 42 % 55 % 1026,6 hPa 0,0 l/m² 20,5 km/h (4 Bft) SW 236 ° 1 min 628 W/m² 2,2 °C 4,3 °C 25,7 km/h (4 Bft)
06.04.2026 10:37 21,9 °C 10,9 °C 42 % 54 % 1026,6 hPa 0,0 l/m² 22,3 km/h (4 Bft) W-SW 250 ° 1 min 615 W/m² 2,0 °C 3,8 °C 29,0 km/h (5 Bft)
06.04.2026 10:38 21,9 °C 10,9 °C 42 % 54 % 1026,6 hPa 0,0 l/m² 22,2 km/h (4 Bft) W-SW 248 ° 1 min 622 W/m² 2,0 °C 3,8 °C 29,0 km/h (5 Bft)
06.04.2026 10:39 21,9 °C 11,0 °C 42 % 54 % 1026,6 hPa 0,0 l/m² 21,2 km/h (4 Bft) W-NW 286 ° 1 min 631 W/m² 2,1 °C 4,2 °C 27,4 km/h (5 Bft)
06.04.2026 10:40 21,9 °C 11,0 °C 42 % 54 % 1026,7 hPa 0,0 l/m² 21,8 km/h (4 Bft) W 265 ° 1 min 587 W/m² 2,1 °C 4,0 °C 27,4 km/h (5 Bft)
06.04.2026 10:41 21,9 °C 11,1 °C 42 % 53 % 1026,7 hPa 0,0 l/m² 18,1 km/h (3 Bft) W-SW 248 ° 1 min 603 W/m² 1,9 °C 5,3 °C 24,1 km/h (4 Bft)
06.04.2026 10:42 21,9 °C 11,1 °C 42 % 54 % 1026,7 hPa 0,0 l/m² 19,8 km/h (3 Bft) W 273 ° 1 min 631 W/m² 2,2 °C 4,8 °C 27,4 km/h (5 Bft)
06.04.2026 10:43 21,9 °C 11,1 °C 42 % 53 % 1026,7 hPa 0,0 l/m² 23,4 km/h (4 Bft) W 273 ° 1 min 635 W/m² 1,9 °C 3,7 °C 25,7 km/h (4 Bft)
06.04.2026 10:44 21,9 °C 11,1 °C 43 % 52 % 1026,6 hPa 0,0 l/m² 19,2 km/h (3 Bft) W 274 ° 1 min 629 W/m² 1,6 °C 5,0 °C 25,7 km/h (4 Bft)
06.04.2026 10:45 21,9 °C 11,1 °C 43 % 53 % 1026,7 hPa 0,0 l/m² 15,2 km/h (3 Bft) W-NW 287 ° 1 min 629 W/m² 1,9 °C 6,4 °C 24,1 km/h (4 Bft)
06.04.2026 10:46 21,9 °C 11,2 °C 43 % 53 % 1026,7 hPa 0,0 l/m² 18,1 km/h (3 Bft) W-SW 246 ° 1 min 642 W/m² 2,0 °C 5,5 °C 24,1 km/h (4 Bft)
06.04.2026 10:47 21,9 °C 11,2 °C 43 % 54 % 1026,7 hPa 0,0 l/m² 25,3 km/h (4 Bft) W-SW 250 ° 1 min 663 W/m² 2,2 °C 3,4 °C 30,6 km/h (5 Bft)
06.04.2026 10:48 21,9 °C 11,2 °C 43 % 53 % 1026,8 hPa 0,0 l/m² 21,0 km/h (4 Bft) W 263 ° 1 min 682 W/m² 2,0 °C 4,5 °C 24,1 km/h (4 Bft)
06.04.2026 10:49 21,9 °C 11,2 °C 43 % 52 % 1026,6 hPa 0,0 l/m² 24,6 km/h (4 Bft) W-SW 250 ° 1 min 661 W/m² 1,7 °C 3,6 °C 32,2 km/h (5 Bft)
06.04.2026 10:50 21,9 °C 11,3 °C 43 % 53 % 1026,8 hPa 0,0 l/m² 20,8 km/h (4 Bft) W-NW 286 ° 1 min 671 W/m² 2,1 °C 4,7 °C 27,4 km/h (5 Bft)
06.04.2026 10:51 21,9 °C 11,3 °C 43 % 53 % 1026,7 hPa 0,0 l/m² 19,7 km/h (3 Bft) W 270 ° 1 min 670 W/m² 2,1 °C 5,1 °C 24,1 km/h (4 Bft)
06.04.2026 10:52 21,9 °C 11,3 °C 43 % 52 % 1026,7 hPa 0,0 l/m² 17,0 km/h (3 Bft) W 265 ° 1 min 679 W/m² 1,8 °C 6,0 °C 24,1 km/h (4 Bft)
06.04.2026 10:53 21,9 °C 11,3 °C 43 % 52 % 1026,7 hPa 0,0 l/m² 18,3 km/h (3 Bft) W 281 ° 1 min 680 W/m² 1,8 °C 5,5 °C 25,7 km/h (4 Bft)
06.04.2026 10:54 21,9 °C 11,3 °C 43 % 52 % 1026,8 hPa 0,0 l/m² 21,4 km/h (4 Bft) W 269 ° 1 min 680 W/m² 1,8 °C 4,6 °C 29,0 km/h (5 Bft)
06.04.2026 10:55 21,9 °C 11,3 °C 43 % 52 % 1026,7 hPa 0,0 l/m² 15,5 km/h (3 Bft) W 278 ° 1 min 680 W/m² 1,8 °C 6,5 °C 20,9 km/h (4 Bft)
06.04.2026 10:56 21,9 °C 11,4 °C 43 % 52 % 1026,8 hPa 0,0 l/m² 17,4 km/h (3 Bft) W 260 ° 1 min 670 W/m² 1,9 °C 5,9 °C 22,5 km/h (4 Bft)
06.04.2026 10:57 21,9 °C 11,4 °C 43 % 52 % 1026,7 hPa 0,0 l/m² 17,4 km/h (3 Bft) N-NW 344 ° 1 min 657 W/m² 1,9 °C 5,9 °C 20,9 km/h (4 Bft)
06.04.2026 10:58 21,9 °C 11,4 °C 43 % 52 % 1026,7 hPa 0,0 l/m² 20,2 km/h (4 Bft) W 273 ° 1 min 661 W/m² 1,9 °C 5,0 °C 27,4 km/h (5 Bft)
06.04.2026 10:59 21,9 °C 11,4 °C 43 % 51 % 1026,7 hPa 0,0 l/m² 22,5 km/h (4 Bft) W 261 ° 1 min 654 W/m² 1,6 °C 4,4 °C 27,4 km/h (5 Bft)
06.04.2026 11:00 21,9 °C 11,4 °C 43 % 51 % 1026,7 hPa 0,0 l/m² 17,7 km/h (3 Bft) W 270 ° 1 min 659 W/m² 1,6 °C 5,8 °C 25,7 km/h (4 Bft)
06.04.2026 11:01 21,9 °C 11,5 °C 43 % 52 % 1026,7 hPa 0,0 l/m² 16,9 km/h (3 Bft) W 260 ° 1 min 659 W/m² 2,0 °C 6,2 °C 25,7 km/h (4 Bft)
06.04.2026 11:03 21,9 °C 11,5 °C 43 % 51 % 1026,7 hPa 0,0 l/m² 17,7 km/h (3 Bft) W 275 ° 2 min 679 W/m² 1,7 °C 6,0 °C 25,7 km/h (4 Bft)
06.04.2026 11:04 21,9 °C 11,6 °C 43 % 51 % 1026,7 hPa 0,0 l/m² 21,7 km/h (4 Bft) W 268 ° 1 min 712 W/m² 1,8 °C 4,9 °C 29,0 km/h (5 Bft)
06.04.2026 11:05 21,9 °C 11,6 °C 43 % 51 % 1026,7 hPa 0,0 l/m² 25,4 km/h (4 Bft) W 263 ° 1 min 710 W/m² 1,8 °C 3,9 °C 30,6 km/h (5 Bft)
06.04.2026 11:06 22,0 °C 11,6 °C 43 % 51 % 1026,8 hPa 0,0 l/m² 23,3 km/h (4 Bft) W 261 ° 1 min 696 W/m² 1,8 °C 4,4 °C 29,0 km/h (5 Bft)
06.04.2026 11:08 22,0 °C 11,6 °C 43 % 51 % 1026,8 hPa 0,0 l/m² 21,0 km/h (4 Bft) W 259 ° 2 min 696 W/m² 1,8 °C 5,1 °C 29,0 km/h (5 Bft)
06.04.2026 11:09 22,0 °C 11,6 °C 43 % 51 % 1026,8 hPa 0,0 l/m² 22,6 km/h (4 Bft) W-NW 293 ° 1 min 715 W/m² 1,8 °C 4,6 °C 29,0 km/h (5 Bft)
06.04.2026 11:11 22,0 °C 11,7 °C 43 % 50 % 1026,8 hPa 0,0 l/m² 20,2 km/h (4 Bft) W 275 ° 2 min 707 W/m² 1,6 °C 5,4 °C 29,0 km/h (5 Bft)
06.04.2026 11:12 22,0 °C 11,7 °C 43 % 51 % 1026,7 hPa 0,0 l/m² 16,4 km/h (3 Bft) W-NW 300 ° 1 min 707 W/m² 1,9 °C 6,7 °C 24,1 km/h (4 Bft)
06.04.2026 11:13 22,0 °C 11,7 °C 43 % 51 % 1026,8 hPa 0,0 l/m² 19,0 km/h (3 Bft) W 277 ° 1 min 707 W/m² 1,9 °C 5,8 °C 22,5 km/h (4 Bft)
06.04.2026 11:14 22,0 °C 11,7 °C 43 % 50 % 1026,8 hPa 0,0 l/m² 20,7 km/h (4 Bft) W 267 ° 1 min 693 W/m² 1,6 °C 5,3 °C 25,7 km/h (4 Bft)
06.04.2026 11:15 22,0 °C 11,7 °C 43 % 51 % 1026,8 hPa 0,0 l/m² 23,8 km/h (4 Bft) W 265 ° 1 min 708 W/m² 1,9 °C 4,4 °C 30,6 km/h (5 Bft)
06.04.2026 11:16 22,0 °C 11,8 °C 43 % 51 % 1026,8 hPa 0,0 l/m² 21,8 km/h (4 Bft) W-SW 246 ° 1 min 705 W/m² 2,0 °C 5,1 °C 29,0 km/h (5 Bft)
06.04.2026 11:17 22,0 °C 11,8 °C 43 % 51 % 1026,8 hPa 0,0 l/m² 25,3 km/h (4 Bft) W-SW 252 ° 1 min 680 W/m² 2,0 °C 4,2 °C 29,0 km/h (5 Bft)
06.04.2026 11:18 22,0 °C 11,8 °C 43 % 50 % 1026,8 hPa 0,0 l/m² 22,3 km/h (4 Bft) W-SW 246 ° 1 min 687 W/m² 1,7 °C 5,0 °C 30,6 km/h (5 Bft)
06.04.2026 11:19 22,0 °C 11,8 °C 43 % 51 % 1026,7 hPa 0,0 l/m² 19,4 km/h (3 Bft) W-SW 240 ° 1 min 715 W/m² 2,0 °C 5,8 °C 30,6 km/h (5 Bft)
06.04.2026 11:20 22,0 °C 11,9 °C 43 % 51 % 1026,7 hPa 0,0 l/m² 16,9 km/h (3 Bft) W 262 ° 1 min 700 W/m² 2,1 °C 6,7 °C 20,9 km/h (4 Bft)
06.04.2026 11:21 22,0 °C 11,9 °C 43 % 51 % 1026,8 hPa 0,0 l/m² 21,4 km/h (4 Bft) W-SW 255 ° 1 min 700 W/m² 2,1 °C 5,3 °C 27,4 km/h (5 Bft)
06.04.2026 11:22 22,0 °C 11,9 °C 44 % 51 % 1026,8 hPa 0,0 l/m² 22,6 km/h (4 Bft) W 267 ° 1 min 696 W/m² 2,1 °C 5,0 °C 27,4 km/h (5 Bft)
06.04.2026 11:23 22,0 °C 11,9 °C 44 % 51 % 1026,8 hPa 0,0 l/m² 20,0 km/h (4 Bft) W-SW 257 ° 1 min 744 W/m² 2,1 °C 5,7 °C 27,4 km/h (5 Bft)
06.04.2026 11:24 22,0 °C 11,9 °C 44 % 51 % 1026,8 hPa 0,0 l/m² 16,7 km/h (3 Bft) W 271 ° 1 min 747 W/m² 2,1 °C 6,8 °C 22,5 km/h (4 Bft)
06.04.2026 11:25 22,0 °C 11,9 °C 44 % 51 % 1026,8 hPa 0,0 l/m² 13,3 km/h (3 Bft) W-SW 250 ° 1 min 763 W/m² 2,1 °C 8,1 °C 16,1 km/h (3 Bft)
06.04.2026 11:26 22,0 °C 12,0 °C 44 % 51 % 1026,8 hPa 0,0 l/m² 14,7 km/h (3 Bft) W-NW 290 ° 1 min 749 W/m² 2,2 °C 7,7 °C 22,5 km/h (4 Bft)
06.04.2026 11:27 22,0 °C 12,1 °C 44 % 52 % 1026,8 hPa 0,0 l/m² 24,7 km/h (4 Bft) W 275 ° 1 min 719 W/m² 2,5 °C 4,7 °C 30,6 km/h (5 Bft)
06.04.2026 11:28 22,0 °C 12,1 °C 44 % 50 % 1026,9 hPa 0,0 l/m² 19,3 km/h (3 Bft) W 279 ° 1 min 719 W/m² 2,0 °C 6,2 °C 29,0 km/h (5 Bft)
06.04.2026 11:29 22,0 °C 12,1 °C 44 % 50 % 1026,9 hPa 0,0 l/m² 22,4 km/h (4 Bft) W 264 ° 1 min 719 W/m² 2,0 °C 5,3 °C 27,4 km/h (5 Bft)
06.04.2026 11:30 22,1 °C 12,1 °C 44 % 49 % 1026,8 hPa 0,0 l/m² 21,1 km/h (4 Bft) W 270 ° 1 min 719 W/m² 1,7 °C 5,7 °C 27,4 km/h (5 Bft)
06.04.2026 11:31 22,0 °C 12,1 °C 44 % 49 % 1026,8 hPa 0,0 l/m² 25,3 km/h (4 Bft) W 268 ° 1 min 719 W/m² 1,7 °C 4,6 °C 29,0 km/h (5 Bft)
06.04.2026 11:32 22,0 °C 11,9 °C 44 % 48 % 1026,9 hPa 0,0 l/m² 22,3 km/h (4 Bft) W 280 ° 1 min 744 W/m² 1,2 °C 5,1 °C 27,4 km/h (5 Bft)
06.04.2026 11:33 22,0 °C 11,9 °C 44 % 49 % 1026,9 hPa 0,0 l/m² 16,9 km/h (3 Bft) NW 314 ° 1 min 770 W/m² 1,5 °C 6,7 °C 20,9 km/h (4 Bft)
06.04.2026 11:34 22,0 °C 11,9 °C 44 % 50 % 1026,8 hPa 0,0 l/m² 17,3 km/h (3 Bft) W 270 ° 1 min 770 W/m² 1,8 °C 6,6 °C 22,5 km/h (4 Bft)
06.04.2026 11:35 22,1 °C 11,9 °C 44 % 51 % 1026,8 hPa 0,0 l/m² 19,8 km/h (3 Bft) W 269 ° 1 min 800 W/m² 2,1 °C 5,8 °C 24,1 km/h (4 Bft)
06.04.2026 11:36 22,1 °C 11,9 °C 44 % 50 % 1026,8 hPa 0,0 l/m² 21,7 km/h (4 Bft) W 275 ° 1 min 788 W/m² 1,8 °C 5,3 °C 27,4 km/h (5 Bft)
06.04.2026 11:37 22,1 °C 11,9 °C 44 % 50 % 1026,7 hPa 0,0 l/m² 17,4 km/h (3 Bft) W-NW 289 ° 1 min 788 W/m² 1,8 °C 6,6 °C 22,5 km/h (4 Bft)
06.04.2026 11:38 22,0 °C 11,9 °C 44 % 49 % 1026,8 hPa 0,0 l/m² 15,1 km/h (3 Bft) W-NW 292 ° 1 min 788 W/m² 1,5 °C 7,4 °C 19,3 km/h (3 Bft)
06.04.2026 11:39 22,1 °C 11,9 °C 44 % 50 % 1026,8 hPa 0,0 l/m² 14,5 km/h (3 Bft) W-SW 255 ° 1 min 234 W/m² 1,8 °C 7,6 °C 19,3 km/h (3 Bft)
06.04.2026 11:40 22,1 °C 11,9 °C 44 % 51 % 1026,9 hPa 0,0 l/m² 21,2 km/h (4 Bft) W 277 ° 1 min 234 W/m² 2,1 °C 5,4 °C 29,0 km/h (5 Bft)
06.04.2026 11:41 22,1 °C 11,9 °C 44 % 51 % 1026,8 hPa 0,0 l/m² 22,0 km/h (4 Bft) W 269 ° 1 min 234 W/m² 2,1 °C 5,2 °C 25,7 km/h (4 Bft)
06.04.2026 11:42 22,1 °C 12,0 °C 44 % 51 % 1026,8 hPa 0,0 l/m² 17,1 km/h (3 Bft) W-SW 252 ° 1 min 861 W/m² 2,2 °C 6,8 °C 22,5 km/h (4 Bft)
06.04.2026 11:43 22,1 °C 12,1 °C 44 % 51 % 1026,8 hPa 0,0 l/m² 22,6 km/h (4 Bft) W-SW 257 ° 1 min 872 W/m² 2,3 °C 5,3 °C 30,6 km/h (5 Bft)
06.04.2026 11:44 22,1 °C 12,1 °C 44 % 50 % 1026,9 hPa 0,0 l/m² 21,9 km/h (4 Bft) W 261 ° 1 min 872 W/m² 2,0 °C 5,5 °C 32,2 km/h (5 Bft)
06.04.2026 11:45 22,1 °C 12,1 °C 44 % 50 % 1026,9 hPa 0,0 l/m² 17,6 km/h (3 Bft) W-NW 298 ° 1 min 772 W/m² 2,0 °C 6,8 °C 22,5 km/h (4 Bft)
06.04.2026 11:46 22,1 °C 12,1 °C 44 % 50 % 1026,8 hPa 0,0 l/m² 22,0 km/h (4 Bft) W-SW 253 ° 1 min 772 W/m² 2,0 °C 5,4 °C 33,8 km/h (5 Bft)
06.04.2026 11:47 22,1 °C 12,2 °C 44 % 50 % 1026,8 hPa 0,0 l/m² 20,0 km/h (4 Bft) W 265 ° 1 min 772 W/m² 2,1 °C 6,1 °C 25,7 km/h (4 Bft)
06.04.2026 11:48 22,1 °C 12,2 °C 44 % 49 % 1026,8 hPa 0,0 l/m² 17,9 km/h (3 Bft) W 272 ° 1 min 772 W/m² 1,8 °C 6,8 °C 24,1 km/h (4 Bft)
06.04.2026 11:49 22,1 °C 12,2 °C 44 % 50 % 1026,8 hPa 0,0 l/m² 17,0 km/h (3 Bft) W-SW 237 ° 1 min 772 W/m² 2,1 °C 7,1 °C 20,9 km/h (4 Bft)
06.04.2026 11:50 22,1 °C 12,2 °C 44 % 50 % 1026,8 hPa 0,0 l/m² 20,2 km/h (4 Bft) W 267 ° 1 min 772 W/m² 2,1 °C 6,1 °C 30,6 km/h (5 Bft)
06.04.2026 11:51 22,1 °C 12,2 °C 44 % 50 % 1026,9 hPa 0,0 l/m² 19,5 km/h (3 Bft) W-SW 242 ° 1 min 225 W/m² 2,1 °C 6,3 °C 24,1 km/h (4 Bft)
06.04.2026 11:52 22,1 °C 12,2 °C 44 % 50 % 1026,9 hPa 0,0 l/m² 21,6 km/h (4 Bft) W 271 ° 1 min 232 W/m² 2,1 °C 5,7 °C 29,0 km/h (5 Bft)
06.04.2026 11:53 22,1 °C 12,2 °C 44 % 48 % 1026,9 hPa 0,0 l/m² 22,4 km/h (4 Bft) W 269 ° 1 min 232 W/m² 1,5 °C 5,5 °C 25,7 km/h (4 Bft)
06.04.2026 11:54 22,1 °C 12,2 °C 44 % 47 % 1026,9 hPa 0,0 l/m² 22,3 km/h (4 Bft) W-NW 284 ° 1 min 642 W/m² 1,2 °C 5,5 °C 25,7 km/h (4 Bft)
06.04.2026 11:55 22,1 °C 12,2 °C 44 % 47 % 1027,0 hPa 0,0 l/m² 19,4 km/h (3 Bft) W-NW 286 ° 1 min 670 W/m² 1,2 °C 6,3 °C 22,5 km/h (4 Bft)
06.04.2026 11:56 22,1 °C 12,2 °C 44 % 48 % 1027,0 hPa 0,0 l/m² 19,7 km/h (3 Bft) W 275 ° 1 min 679 W/m² 1,5 °C 6,2 °C 27,4 km/h (5 Bft)
06.04.2026 11:57 22,1 °C 12,2 °C 44 % 48 % 1027,0 hPa 0,0 l/m² 19,5 km/h (3 Bft) W 279 ° 1 min 679 W/m² 1,5 °C 6,3 °C 24,1 km/h (4 Bft)
06.04.2026 11:58 22,1 °C 12,2 °C 44 % 48 % 1026,8 hPa 0,0 l/m² 20,2 km/h (4 Bft) W 281 ° 1 min 679 W/m² 1,5 °C 6,1 °C 27,4 km/h (5 Bft)
06.04.2026 11:59 22,1 °C 12,2 °C 44 % 48 % 1026,8 hPa 0,0 l/m² 15,8 km/h (3 Bft) W-SW 250 ° 1 min 619 W/m² 1,5 °C 7,5 °C 17,7 km/h (3 Bft)
06.04.2026 12:00 22,1 °C 12,1 °C 44 % 48 % 1027,0 hPa 0,0 l/m² 18,9 km/h (3 Bft) W 277 ° 1 min 624 W/m² 1,4 °C 6,3 °C 25,7 km/h (4 Bft)
06.04.2026 12:01 22,1 °C 12,1 °C 44 % 48 % 1026,9 hPa 0,0 l/m² 16,1 km/h (3 Bft) W 270 ° 1 min 671 W/m² 1,4 °C 7,3 °C 24,1 km/h (4 Bft)
06.04.2026 12:06 22,1 °C 12,2 °C 44 % 49 % 1026,8 hPa 0,0 l/m² 12,6 km/h (3 Bft) W 273 ° 5 min 842 W/m² 1,8 °C 8,8 °C 16,1 km/h (3 Bft)
06.04.2026 12:08 22,1 °C 12,3 °C 44 % 49 % 1026,8 hPa 0,0 l/m² 11,3 km/h (2 Bft) W-NW 283 ° 2 min 237 W/m² 1,9 °C 9,5 °C 19,3 km/h (3 Bft)
06.04.2026 12:10 22,2 °C 12,4 °C 44 % 49 % 1026,8 hPa 0,0 l/m² 11,9 km/h (2 Bft) NW 316 ° 2 min 237 W/m² 2,0 °C 9,3 °C 20,9 km/h (4 Bft)
06.04.2026 12:11 22,2 °C 12,4 °C 44 % 49 % 1026,8 hPa 0,0 l/m² 10,1 km/h (2 Bft) W 275 ° 1 min 237 W/m² 2,0 °C 10,2 °C 17,7 km/h (3 Bft)
06.04.2026 12:12 22,2 °C 12,5 °C 44 % 48 % 1026,8 hPa 0,0 l/m² 11,1 km/h (2 Bft) W 277 ° 1 min 696 W/m² 1,8 °C 9,8 °C 22,5 km/h (4 Bft)
06.04.2026 12:15 22,2 °C 12,6 °C 44 % 47 % 1026,9 hPa 0,0 l/m² 16,7 km/h (3 Bft) W-NW 301 ° 3 min 613 W/m² 1,6 °C 7,7 °C 24,1 km/h (4 Bft)
06.04.2026 12:17 22,2 °C 12,6 °C 45 % 47 % 1026,9 hPa 0,0 l/m² 18,4 km/h (3 Bft) W 279 ° 2 min 613 W/m² 1,6 °C 7,1 °C 25,7 km/h (4 Bft)
06.04.2026 12:19 22,2 °C 12,6 °C 45 % 47 % 1026,9 hPa 0,0 l/m² 18,3 km/h (3 Bft) W 266 ° 2 min 847 W/m² 1,6 °C 7,2 °C 24,1 km/h (4 Bft)
06.04.2026 12:21 22,2 °C 12,6 °C 46 % 47 % 1026,9 hPa 0,0 l/m² 18,5 km/h (3 Bft) W-NW 288 ° 2 min 178 W/m² 1,6 °C 7,1 °C 27,4 km/h (5 Bft)
06.04.2026 12:22 22,2 °C 12,6 °C 46 % 47 % 1026,9 hPa 0,0 l/m² 15,5 km/h (3 Bft) W-NW 286 ° 1 min 181 W/m² 1,6 °C 8,1 °C 20,9 km/h (4 Bft)
06.04.2026 12:23 22,2 °C 12,6 °C 46 % 48 % 1026,9 hPa 0,0 l/m² 9,3 km/h (2 Bft) W 270 ° 1 min 181 W/m² 1,9 °C 10,8 °C 22,5 km/h (4 Bft)
06.04.2026 12:25 22,2 °C 12,5 °C 47 % 47 % 1026,9 hPa 0,0 l/m² 17,1 km/h (3 Bft) W-NW 294 ° 2 min 186 W/m² 1,5 °C 7,4 °C 30,6 km/h (5 Bft)
06.04.2026 12:27 22,2 °C 12,4 °C 47 % 46 % 1027,0 hPa 0,0 l/m² 17,1 km/h (3 Bft) W 269 ° 2 min 202 W/m² 1,1 °C 7,3 °C 25,7 km/h (4 Bft)
06.04.2026 12:29 22,3 °C 12,3 °C 47 % 47 % 1026,9 hPa 0,0 l/m² 16,7 km/h (3 Bft) W 275 ° 2 min 796 W/m² 1,3 °C 7,3 °C 22,5 km/h (4 Bft)
06.04.2026 12:31 22,3 °C 12,3 °C 47 % 49 % 1026,9 hPa 0,0 l/m² 17,6 km/h (3 Bft) W 275 ° 2 min 861 W/m² 1,9 °C 7,0 °C 25,7 km/h (4 Bft)
06.04.2026 12:32 22,3 °C 12,3 °C 47 % 48 % 1026,9 hPa 0,0 l/m² 12,8 km/h (3 Bft) W-SW 250 ° 1 min 698 W/m² 1,6 °C 8,8 °C 16,1 km/h (3 Bft)
06.04.2026 12:33 22,3 °C 12,3 °C 47 % 48 % 1026,9 hPa 0,0 l/m² 17,2 km/h (3 Bft) W 279 ° 1 min 795 W/m² 1,6 °C 7,1 °C 22,5 km/h (4 Bft)
06.04.2026 12:35 22,3 °C 12,4 °C 47 % 48 % 1026,9 hPa 0,0 l/m² 14,9 km/h (3 Bft) W 263 ° 2 min 798 W/m² 1,7 °C 8,1 °C 20,9 km/h (4 Bft)
06.04.2026 12:37 22,3 °C 12,5 °C 47 % 47 % 1026,9 hPa 0,0 l/m² 21,2 km/h (4 Bft) W 264 ° 2 min 735 W/m² 1,5 °C 6,2 °C 27,4 km/h (5 Bft)
06.04.2026 12:39 22,3 °C 12,6 °C 47 % 47 % 1026,9 hPa 0,0 l/m² 17,3 km/h (3 Bft) W-SW 240 ° 2 min 810 W/m² 1,6 °C 7,5 °C 29,0 km/h (5 Bft)
06.04.2026 12:41 22,3 °C 12,6 °C 47 % 47 % 1026,9 hPa 0,0 l/m² 14,2 km/h (3 Bft) W-NW 288 ° 2 min 803 W/m² 1,6 °C 8,6 °C 24,1 km/h (4 Bft)
06.04.2026 12:42 22,4 °C 12,7 °C 47 % 46 % 1026,9 hPa 0,0 l/m² 21,5 km/h (4 Bft) W 272 ° 1 min 780 W/m² 1,4 °C 6,4 °C 27,4 km/h (5 Bft)
06.04.2026 12:43 22,4 °C 12,7 °C 47 % 46 % 1026,9 hPa 0,0 l/m² 17,3 km/h (3 Bft) W-NW 282 ° 1 min 828 W/m² 1,4 °C 7,6 °C 24,1 km/h (4 Bft)
06.04.2026 12:46 22,4 °C 12,8 °C 47 % 46 % 1026,8 hPa 0,0 l/m² 18,4 km/h (3 Bft) W-NW 282 ° 3 min 830 W/m² 1,5 °C 7,4 °C 25,7 km/h (4 Bft)
06.04.2026 12:48 22,4 °C 12,8 °C 47 % 46 % 1026,8 hPa 0,0 l/m² 19,6 km/h (3 Bft) W 265 ° 2 min 763 W/m² 1,5 °C 7,0 °C 27,4 km/h (5 Bft)
06.04.2026 12:50 22,4 °C 12,9 °C 47 % 46 % 1026,8 hPa 0,0 l/m² 17,7 km/h (3 Bft) W-NW 282 ° 2 min 784 W/m² 1,6 °C 7,7 °C 27,4 km/h (5 Bft)
06.04.2026 12:52 22,4 °C 13,1 °C 47 % 46 % 1026,7 hPa 0,0 l/m² 16,9 km/h (3 Bft) W 265 ° 2 min 788 W/m² 1,7 °C 8,2 °C 25,7 km/h (4 Bft)
06.04.2026 12:53 22,4 °C 13,1 °C 47 % 45 % 1026,7 hPa 0,0 l/m² 16,9 km/h (3 Bft) W-NW 288 ° 1 min 810 W/m² 1,4 °C 8,2 °C 25,7 km/h (4 Bft)
06.04.2026 12:54 22,4 °C 13,2 °C 47 % 46 % 1026,8 hPa 0,0 l/m² 18,0 km/h (3 Bft) W 275 ° 1 min 810 W/m² 1,8 °C 8,0 °C 20,9 km/h (4 Bft)
06.04.2026 12:56 22,4 °C 13,3 °C 47 % 46 % 1026,7 hPa 0,0 l/m² 15,8 km/h (3 Bft) W-SW 252 ° 2 min 819 W/m² 1,9 °C 8,9 °C 22,5 km/h (4 Bft)
06.04.2026 12:58 22,5 °C 13,4 °C 47 % 46 % 1026,7 hPa 0,0 l/m² 19,0 km/h (3 Bft) W 260 ° 2 min 819 W/m² 2,0 °C 8,0 °C 29,0 km/h (5 Bft)
06.04.2026 13:00 22,5 °C 13,4 °C 47 % 45 % 1026,7 hPa 0,0 l/m² 19,4 km/h (3 Bft) W 280 ° 2 min 779 W/m² 1,7 °C 7,8 °C 30,6 km/h (5 Bft)
06.04.2026 13:02 22,5 °C 13,6 °C 47 % 46 % 1026,5 hPa 0,0 l/m² 12,7 km/h (3 Bft) NW 323 ° 2 min 766 W/m² 2,2 °C 10,4 °C 20,9 km/h (4 Bft)
06.04.2026 13:03 22,5 °C 13,6 °C 47 % 46 % 1026,5 hPa 0,0 l/m² 14,7 km/h (3 Bft) NW 304 ° 1 min 777 W/m² 2,2 °C 9,6 °C 24,1 km/h (4 Bft)
06.04.2026 13:05 22,6 °C 13,7 °C 47 % 44 % 1026,6 hPa 0,0 l/m² 19,9 km/h (4 Bft) NW 309 ° 2 min 144 W/m² 1,7 °C 8,1 °C 32,2 km/h (5 Bft)
06.04.2026 13:07 22,5 °C 13,6 °C 47 % 44 % 1026,6 hPa 0,0 l/m² 18,4 km/h (3 Bft) NW 319 ° 2 min 807 W/m² 1,6 °C 8,4 °C 29,0 km/h (5 Bft)
06.04.2026 13:08 22,6 °C 13,6 °C 47 % 44 % 1026,7 hPa 0,0 l/m² 14,8 km/h (3 Bft) W 272 ° 1 min 807 W/m² 1,6 °C 9,6 °C 20,9 km/h (4 Bft)
06.04.2026 13:09 22,6 °C 13,6 °C 47 % 44 % 1026,6 hPa 0,0 l/m² 13,1 km/h (3 Bft) W 270 ° 1 min 807 W/m² 1,6 °C 10,2 °C 17,7 km/h (3 Bft)
06.04.2026 13:11 22,6 °C 13,6 °C 47 % 44 % 1026,6 hPa 0,0 l/m² 18,5 km/h (3 Bft) NW 306 ° 2 min 793 W/m² 1,6 °C 8,4 °C 27,4 km/h (5 Bft)
06.04.2026 13:12 22,6 °C 13,6 °C 47 % 44 % 1026,6 hPa 0,0 l/m² 14,0 km/h (3 Bft) W-NW 303 ° 1 min 780 W/m² 1,6 °C 9,9 °C 22,5 km/h (4 Bft)
06.04.2026 13:13 22,5 °C 13,7 °C 47 % 46 % 1026,7 hPa 0,0 l/m² 14,9 km/h (3 Bft) NW 317 ° 1 min 816 W/m² 2,3 °C 9,7 °C 19,3 km/h (3 Bft)
06.04.2026 13:15 22,6 °C 13,7 °C 47 % 45 % 1026,6 hPa 0,0 l/m² 16,1 km/h (3 Bft) NW 315 ° 2 min 809 W/m² 2,0 °C 9,2 °C 30,6 km/h (5 Bft)
06.04.2026 13:17 22,6 °C 13,7 °C 47 % 44 % 1026,5 hPa 0,0 l/m² 13,8 km/h (3 Bft) W-NW 284 ° 2 min 817 W/m² 1,7 °C 10,1 °C 20,9 km/h (4 Bft)
06.04.2026 13:19 22,6 °C 13,8 °C 47 % 44 % 1026,5 hPa 0,0 l/m² 11,0 km/h (2 Bft) NW 306 ° 2 min 800 W/m² 1,8 °C 11,3 °C 20,9 km/h (4 Bft)
06.04.2026 13:21 22,6 °C 13,8 °C 47 % 46 % 1026,4 hPa 0,0 l/m² 15,7 km/h (3 Bft) W 281 ° 2 min 807 W/m² 2,4 °C 9,5 °C 30,6 km/h (5 Bft)
06.04.2026 13:22 22,6 °C 13,9 °C 47 % 43 % 1026,4 hPa 0,0 l/m² 16,7 km/h (3 Bft) W-NW 292 ° 1 min 807 W/m² 1,5 °C 9,3 °C 29,0 km/h (5 Bft)
06.04.2026 13:23 22,6 °C 13,9 °C 47 % 42 % 1026,5 hPa 0,0 l/m² 20,3 km/h (4 Bft) W 270 ° 1 min 803 W/m² 1,2 °C 8,2 °C 29,0 km/h (5 Bft)
06.04.2026 13:25 22,6 °C 13,9 °C 47 % 42 % 1026,5 hPa 0,0 l/m² 17,7 km/h (3 Bft) W-NW 296 ° 2 min 805 W/m² 1,2 °C 9,0 °C 29,0 km/h (5 Bft)
06.04.2026 13:27 22,6 °C 13,9 °C 47 % 42 % 1026,4 hPa 0,0 l/m² 19,2 km/h (3 Bft) W-NW 286 ° 2 min 805 W/m² 1,2 °C 8,5 °C 32,2 km/h (5 Bft)
06.04.2026 13:29 22,6 °C 14,0 °C 47 % 42 % 1026,4 hPa 0,0 l/m² 17,4 km/h (3 Bft) W 278 ° 2 min 795 W/m² 1,3 °C 9,2 °C 24,1 km/h (4 Bft)
06.04.2026 13:31 22,6 °C 14,0 °C 47 % 43 % 1026,5 hPa 0,0 l/m² 19,7 km/h (3 Bft) W-NW 302 ° 2 min 793 W/m² 1,6 °C 8,5 °C 35,4 km/h (5 Bft)
06.04.2026 13:32 22,6 °C 14,0 °C 47 % 42 % 1026,5 hPa 0,0 l/m² 17,9 km/h (3 Bft) W 277 ° 1 min 802 W/m² 1,3 °C 9,0 °C 24,1 km/h (4 Bft)
06.04.2026 13:33 22,6 °C 13,9 °C 47 % 42 % 1026,4 hPa 0,0 l/m² 13,2 km/h (3 Bft) W 276 ° 1 min 791 W/m² 1,2 °C 10,5 °C 20,9 km/h (4 Bft)
06.04.2026 13:35 22,6 °C 13,9 °C 47 % 43 % 1026,5 hPa 0,0 l/m² 13,0 km/h (3 Bft) W 279 ° 2 min 789 W/m² 1,5 °C 10,6 °C 20,9 km/h (4 Bft)
06.04.2026 13:37 22,5 °C 13,9 °C 47 % 44 % 1026,4 hPa 0,0 l/m² 14,0 km/h (3 Bft) W-NW 285 ° 2 min 780 W/m² 1,9 °C 10,2 °C 27,4 km/h (5 Bft)
06.04.2026 13:39 22,5 °C 14,1 °C 47 % 44 % 1026,4 hPa 0,0 l/m² 16,8 km/h (3 Bft) W-NW 294 ° 2 min 773 W/m² 2,0 °C 9,5 °C 29,0 km/h (5 Bft)
06.04.2026 13:41 22,5 °C 14,1 °C 47 % 44 % 1026,4 hPa 0,0 l/m² 13,6 km/h (3 Bft) W-NW 291 ° 2 min 786 W/m² 2,0 °C 10,6 °C 19,3 km/h (3 Bft)
06.04.2026 13:42 22,5 °C 14,1 °C 47 % 42 % 1026,4 hPa 0,0 l/m² 14,7 km/h (3 Bft) W 278 ° 1 min 780 W/m² 1,4 °C 10,2 °C 17,7 km/h (3 Bft)
06.04.2026 13:43 22,5 °C 14,1 °C 47 % 42 % 1026,3 hPa 0,0 l/m² 12,0 km/h (2 Bft) W-NW 283 ° 1 min 775 W/m² 1,4 °C 11,2 °C 20,9 km/h (4 Bft)
06.04.2026 13:45 22,5 °C 14,1 °C 47 % 42 % 1026,4 hPa 0,0 l/m² 18,5 km/h (3 Bft) W-NW 298 ° 2 min 796 W/m² 1,4 °C 9,0 °C 37,0 km/h (5 Bft)
06.04.2026 13:47 22,5 °C 14,2 °C 47 % 42 % 1026,3 hPa 0,0 l/m² 14,1 km/h (3 Bft) W 265 ° 2 min 791 W/m² 1,5 °C 10,5 °C 22,5 km/h (4 Bft)
06.04.2026 13:49 22,4 °C 14,2 °C 47 % 41 % 1026,4 hPa 0,0 l/m² 16,3 km/h (3 Bft) W-NW 284 ° 2 min 784 W/m² 1,1 °C 9,8 °C 27,4 km/h (5 Bft)
06.04.2026 13:51 22,4 °C 14,3 °C 47 % 43 % 1026,3 hPa 0,0 l/m² 12,1 km/h (2 Bft) W-SW 240 ° 2 min 789 W/m² 1,9 °C 11,4 °C 22,5 km/h (4 Bft)
06.04.2026 13:52 22,4 °C 14,3 °C 47 % 42 % 1026,3 hPa 0,0 l/m² 23,9 km/h (4 Bft) W 263 ° 1 min 789 W/m² 1,6 °C 7,9 °C 29,0 km/h (5 Bft)
06.04.2026 13:53 22,4 °C 14,3 °C 47 % 42 % 1026,4 hPa 0,0 l/m² 14,7 km/h (3 Bft) W 269 ° 1 min 782 W/m² 1,6 °C 10,4 °C 22,5 km/h (4 Bft)
06.04.2026 13:55 22,4 °C 14,3 °C 47 % 42 % 1026,3 hPa 0,0 l/m² 15,9 km/h (3 Bft) W-NW 285 ° 2 min 779 W/m² 1,6 °C 10,0 °C 24,1 km/h (4 Bft)
06.04.2026 13:57 22,4 °C 14,4 °C 47 % 41 % 1026,4 hPa 0,0 l/m² 22,7 km/h (4 Bft) W 281 ° 2 min 763 W/m² 1,3 °C 8,3 °C 33,8 km/h (5 Bft)
06.04.2026 13:59 22,4 °C 14,4 °C 47 % 40 % 1026,3 hPa 0,0 l/m² 18,7 km/h (3 Bft) W-SW 257 ° 2 min 772 W/m² 1,0 °C 9,3 °C 27,4 km/h (5 Bft)
06.04.2026 14:01 22,4 °C 14,4 °C 47 % 42 % 1026,3 hPa 0,0 l/m² 18,8 km/h (3 Bft) W 275 ° 2 min 779 W/m² 1,7 °C 9,3 °C 24,1 km/h (4 Bft)
06.04.2026 14:02 22,4 °C 14,4 °C 47 % 41 % 1026,3 hPa 0,0 l/m² 20,5 km/h (4 Bft) W 272 ° 1 min 775 W/m² 1,3 °C 8,8 °C 25,7 km/h (4 Bft)
06.04.2026 14:03 22,4 °C 14,4 °C 47 % 42 % 1026,2 hPa 0,0 l/m² 17,9 km/h (3 Bft) W 277 ° 1 min 777 W/m² 1,7 °C 9,6 °C 20,9 km/h (4 Bft)
06.04.2026 14:05 22,4 °C 14,4 °C 47 % 41 % 1026,3 hPa 0,0 l/m² 16,9 km/h (3 Bft) W 275 ° 2 min 779 W/m² 1,3 °C 9,9 °C 25,7 km/h (4 Bft)
06.04.2026 14:07 22,4 °C 14,4 °C 47 % 41 % 1026,3 hPa 0,0 l/m² 11,0 km/h (2 Bft) W-NW 300 ° 2 min 780 W/m² 1,3 °C 12,0 °C 16,1 km/h (3 Bft)
06.04.2026 14:09 22,4 °C 14,5 °C 47 % 42 % 1026,2 hPa 0,0 l/m² 11,6 km/h (2 Bft) W 279 ° 2 min 798 W/m² 1,7 °C 11,9 °C 19,3 km/h (3 Bft)
06.04.2026 14:11 22,4 °C 14,5 °C 47 % 41 % 1026,2 hPa 0,0 l/m² 20,6 km/h (4 Bft) W 271 ° 2 min 798 W/m² 1,4 °C 8,9 °C 30,6 km/h (5 Bft)
06.04.2026 14:12 22,4 °C 14,5 °C 47 % 40 % 1026,2 hPa 0,0 l/m² 17,5 km/h (3 Bft) W 277 ° 1 min 798 W/m² 1,1 °C 9,8 °C 25,7 km/h (4 Bft)
06.04.2026 14:13 22,4 °C 14,4 °C 47 % 40 % 1026,2 hPa 0,0 l/m² 23,3 km/h (4 Bft) W 281 ° 1 min 775 W/m² 1,0 °C 8,2 °C 27,4 km/h (5 Bft)
06.04.2026 14:15 22,4 °C 14,4 °C 47 % 40 % 1026,3 hPa 0,0 l/m² 20,7 km/h (4 Bft) W-NW 285 ° 2 min 775 W/m² 1,0 °C 8,8 °C 29,0 km/h (5 Bft)
06.04.2026 14:17 22,4 °C 14,3 °C 47 % 40 % 1026,4 hPa 0,0 l/m² 20,9 km/h (4 Bft) W 262 ° 2 min 782 W/m² 0,9 °C 8,6 °C 29,0 km/h (5 Bft)
06.04.2026 14:19 22,4 °C 14,3 °C 47 % 41 % 1026,2 hPa 0,0 l/m² 14,3 km/h (3 Bft) W-SW 248 ° 2 min 761 W/m² 1,2 °C 10,6 °C 22,5 km/h (4 Bft)
06.04.2026 14:21 22,4 °C 14,3 °C 47 % 42 % 1026,2 hPa 0,0 l/m² 12,9 km/h (3 Bft) W-NW 303 ° 2 min 763 W/m² 1,6 °C 11,1 °C 19,3 km/h (3 Bft)
06.04.2026 14:22 22,4 °C 14,4 °C 47 % 43 % 1026,2 hPa 0,0 l/m² 5,6 km/h (2 Bft) NW 311 ° 1 min 763 W/m² 2,0 °C 14,4 °C 8,0 km/h (2 Bft)
06.04.2026 14:23 22,4 °C 14,4 °C 47 % 43 % 1026,2 hPa 0,0 l/m² 6,6 km/h (2 Bft) W-SW 239 ° 1 min 759 W/m² 2,0 °C 14,3 °C 16,1 km/h (3 Bft)
06.04.2026 14:25 22,3 °C 14,6 °C 47 % 42 % 1026,3 hPa 0,0 l/m² 16,8 km/h (3 Bft) W-SW 257 ° 2 min 759 W/m² 1,8 °C 10,1 °C 29,0 km/h (5 Bft)
06.04.2026 14:27 22,4 °C 14,6 °C 47 % 41 % 1026,3 hPa 0,0 l/m² 13,6 km/h (3 Bft) W 261 ° 2 min 763 W/m² 1,5 °C 11,2 °C 25,7 km/h (4 Bft)
06.04.2026 14:29 22,3 °C 14,7 °C 47 % 41 % 1026,3 hPa 0,0 l/m² 13,1 km/h (3 Bft) W 263 ° 2 min 754 W/m² 1,6 °C 11,5 °C 24,1 km/h (4 Bft)
06.04.2026 14:31 22,3 °C 14,8 °C 47 % 39 % 1026,3 hPa 0,0 l/m² 20,4 km/h (4 Bft) W 267 ° 2 min 766 W/m² 1,0 °C 9,4 °C 32,2 km/h (5 Bft)
06.04.2026 14:32 22,3 °C 14,9 °C 47 % 39 % 1026,3 hPa 0,0 l/m² 16,2 km/h (3 Bft) W 272 ° 1 min 766 W/m² 1,1 °C 10,7 °C 25,7 km/h (4 Bft)
06.04.2026 14:33 22,3 °C 14,9 °C 47 % 40 % 1026,4 hPa 0,0 l/m² 12,6 km/h (3 Bft) W 267 ° 1 min 773 W/m² 1,4 °C 11,9 °C 16,1 km/h (3 Bft)
06.04.2026 14:35 22,3 °C 14,9 °C 47 % 41 % 1026,3 hPa 0,0 l/m² 13,8 km/h (3 Bft) W 281 ° 2 min 742 W/m² 1,8 °C 11,5 °C 24,1 km/h (4 Bft)
06.04.2026 14:36 22,3 °C 14,9 °C 47 % 40 % 1026,3 hPa 0,0 l/m² 13,4 km/h (3 Bft) W 274 ° 1 min 751 W/m² 1,4 °C 11,6 °C 24,1 km/h (4 Bft)
06.04.2026 14:37 22,3 °C 14,9 °C 47 % 40 % 1026,3 hPa 0,0 l/m² 9,2 km/h (2 Bft) W 269 ° 1 min 745 W/m² 1,4 °C 13,4 °C 14,5 km/h (3 Bft)
06.04.2026 14:39 22,3 °C 15,1 °C 47 % 41 % 1026,3 hPa 0,0 l/m² 8,1 km/h (2 Bft) W-SW 258 ° 2 min 731 W/m² 2,0 °C 14,2 °C 17,7 km/h (3 Bft)
06.04.2026 14:41 22,4 °C 15,1 °C 47 % 41 % 1026,2 hPa 0,0 l/m² 10,2 km/h (2 Bft) W-NW 285 ° 2 min 724 W/m² 2,0 °C 13,1 °C 14,5 km/h (3 Bft)
06.04.2026 14:42 22,4 °C 15,2 °C 47 % 40 % 1026,2 hPa 0,0 l/m² 11,4 km/h (2 Bft) NW 323 ° 1 min 737 W/m² 1,7 °C 12,7 °C 16,1 km/h (3 Bft)
06.04.2026 14:43 22,3 °C 15,2 °C 47 % 40 % 1026,1 hPa 0,0 l/m² 15,5 km/h (3 Bft) W-NW 292 ° 1 min 737 W/m² 1,7 °C 11,3 °C 19,3 km/h (3 Bft)
06.04.2026 14:45 22,3 °C 15,2 °C 47 % 38 % 1026,2 hPa 0,0 l/m² 17,3 km/h (3 Bft) W 267 ° 2 min 731 W/m² 1,0 °C 10,7 °C 27,4 km/h (5 Bft)
06.04.2026 14:47 22,3 °C 15,3 °C 47 % 39 % 1026,2 hPa 0,0 l/m² 10,5 km/h (2 Bft) N-NW 331 ° 2 min 729 W/m² 1,4 °C 13,2 °C 19,3 km/h (3 Bft)
06.04.2026 14:49 22,3 °C 15,3 °C 47 % 38 % 1026,2 hPa 0,0 l/m² 12,1 km/h (2 Bft) W-NW 294 ° 2 min 719 W/m² 1,1 °C 12,6 °C 16,1 km/h (3 Bft)
06.04.2026 14:51 22,3 °C 15,4 °C 47 % 38 % 1026,1 hPa 0,0 l/m² 12,4 km/h (2 Bft) W 275 ° 2 min 719 W/m² 1,2 °C 12,6 °C 20,9 km/h (4 Bft)
06.04.2026 14:52 22,3 °C 15,4 °C 47 % 38 % 1026,1 hPa 0,0 l/m² 14,1 km/h (3 Bft) W-NW 302 ° 1 min 719 W/m² 1,2 °C 12,0 °C 17,7 km/h (3 Bft)
06.04.2026 14:53 22,3 °C 15,4 °C 47 % 38 % 1026,1 hPa 0,0 l/m² 13,1 km/h (3 Bft) W 275 ° 1 min 722 W/m² 1,2 °C 12,3 °C 16,1 km/h (3 Bft)
06.04.2026 14:55 22,3 °C 15,4 °C 47 % 39 % 1026,2 hPa 0,0 l/m² 15,4 km/h (3 Bft) N-NW 331 ° 2 min 733 W/m² 1,5 °C 11,5 °C 24,1 km/h (4 Bft)
06.04.2026 14:56 22,3 °C 15,4 °C 47 % 40 % 1026,1 hPa 0,0 l/m² 12,4 km/h (2 Bft) NW 312 ° 1 min 729 W/m² 1,9 °C 12,6 °C 20,9 km/h (4 Bft)
06.04.2026 14:57 22,3 °C 15,4 °C 47 % 40 % 1026,1 hPa 0,0 l/m² 13,9 km/h (3 Bft) NW 324 ° 1 min 733 W/m² 1,9 °C 12,0 °C 19,3 km/h (3 Bft)
06.04.2026 14:59 22,3 °C 15,5 °C 47 % 42 % 1026,1 hPa 0,0 l/m² 11,5 km/h (2 Bft) NW 304 ° 2 min 752 W/m² 2,6 °C 13,0 °C 22,5 km/h (4 Bft)
06.04.2026 15:01 22,3 °C 15,5 °C 47 % 39 % 1026,0 hPa 0,0 l/m² 17,2 km/h (3 Bft) NW 316 ° 2 min 744 W/m² 1,6 °C 11,1 °C 25,7 km/h (4 Bft)
06.04.2026 15:02 22,3 °C 15,6 °C 47 % 39 % 1026,1 hPa 0,0 l/m² 13,7 km/h (3 Bft) W-NW 290 ° 1 min 744 W/m² 1,7 °C 12,3 °C 17,7 km/h (3 Bft)
06.04.2026 15:03 22,3 °C 15,6 °C 47 % 38 % 1026,1 hPa 0,0 l/m² 19,1 km/h (3 Bft) W-NW 286 ° 1 min 735 W/m² 1,3 °C 10,7 °C 22,5 km/h (4 Bft)
06.04.2026 15:04 22,3 °C 15,6 °C 47 % 38 % 1026,1 hPa 0,0 l/m² 18,0 km/h (3 Bft) W-NW 288 ° 1 min 728 W/m² 1,3 °C 11,0 °C 24,1 km/h (4 Bft)
06.04.2026 15:05 22,3 °C 15,6 °C 47 % 38 % 1026,1 hPa 0,0 l/m² 18,0 km/h (3 Bft) W 265 ° 1 min 722 W/m² 1,3 °C 11,0 °C 22,5 km/h (4 Bft)
06.04.2026 15:07 22,3 °C 15,5 °C 47 % 39 % 1026,2 hPa 0,0 l/m² 14,2 km/h (3 Bft) N 355 ° 2 min 708 W/m² 1,6 °C 12,1 °C 24,1 km/h (4 Bft)
06.04.2026 15:09 22,3 °C 15,6 °C 47 % 39 % 1026,1 hPa 0,0 l/m² 15,7 km/h (3 Bft) NW 321 ° 2 min 707 W/m² 1,7 °C 11,7 °C 22,5 km/h (4 Bft)
06.04.2026 15:11 22,3 °C 15,5 °C 48 % 39 % 1026,1 hPa 0,0 l/m² 17,3 km/h (3 Bft) W-NW 282 ° 2 min 719 W/m² 1,6 °C 11,1 °C 27,4 km/h (5 Bft)
06.04.2026 15:12 22,3 °C 15,6 °C 48 % 38 % 1026,1 hPa 0,0 l/m² 17,9 km/h (3 Bft) W-NW 303 ° 1 min 710 W/m² 1,3 °C 11,1 °C 22,5 km/h (4 Bft)
06.04.2026 15:13 22,3 °C 15,5 °C 48 % 38 % 1026,1 hPa 0,0 l/m² 14,0 km/h (3 Bft) NW 309 ° 1 min 687 W/m² 1,3 °C 12,1 °C 17,7 km/h (3 Bft)
06.04.2026 15:15 22,3 °C 15,5 °C 48 % 39 % 1026,0 hPa 0,0 l/m² 13,7 km/h (3 Bft) NW 315 ° 2 min 705 W/m² 1,6 °C 12,2 °C 20,9 km/h (4 Bft)
06.04.2026 15:17 22,3 °C 15,5 °C 48 % 39 % 1025,9 hPa 0,0 l/m² 14,8 km/h (3 Bft) NW 318 ° 2 min 109 W/m² 1,6 °C 11,9 °C 22,5 km/h (4 Bft)
06.04.2026 15:19 22,3 °C 15,4 °C 48 % 39 % 1026,0 hPa 0,0 l/m² 14,0 km/h (3 Bft) N-NW 338 ° 2 min 719 W/m² 1,5 °C 12,0 °C 20,9 km/h (4 Bft)
06.04.2026 15:21 22,3 °C 15,4 °C 48 % 39 % 1026,0 hPa 0,0 l/m² 12,9 km/h (3 Bft) W-NW 284 ° 2 min 717 W/m² 1,5 °C 12,4 °C 22,5 km/h (4 Bft)
06.04.2026 15:22 22,3 °C 15,4 °C 48 % 39 % 1026,0 hPa 0,0 l/m² 18,1 km/h (3 Bft) W 270 ° 1 min 708 W/m² 1,5 °C 10,8 °C 22,5 km/h (4 Bft)
06.04.2026 15:23 22,3 °C 15,4 °C 48 % 38 % 1026,0 hPa 0,0 l/m² 13,1 km/h (3 Bft) W 275 ° 1 min 708 W/m² 1,2 °C 12,3 °C 17,7 km/h (3 Bft)
06.04.2026 15:25 22,3 °C 15,4 °C 48 % 38 % 1025,9 hPa 0,0 l/m² 13,4 km/h (3 Bft) N 349 ° 2 min 434 W/m² 1,2 °C 12,2 °C 25,7 km/h (4 Bft)
06.04.2026 15:27 22,3 °C 15,4 °C 48 % 39 % 1025,9 hPa 0,0 l/m² 15,1 km/h (3 Bft) W 281 ° 2 min 209 W/m² 1,5 °C 11,6 °C 22,5 km/h (4 Bft)
06.04.2026 15:29 22,3 °C 15,4 °C 48 % 39 % 1025,9 hPa 0,0 l/m² 14,6 km/h (3 Bft) W-NW 299 ° 2 min 675 W/m² 1,5 °C 11,8 °C 25,7 km/h (4 Bft)
06.04.2026 15:31 22,4 °C 15,4 °C 48 % 38 % 1025,9 hPa 0,0 l/m² 17,2 km/h (3 Bft) W 280 ° 2 min 671 W/m² 1,2 °C 11,0 °C 29,0 km/h (5 Bft)
06.04.2026 15:32 22,4 °C 15,4 °C 48 % 39 % 1025,9 hPa 0,0 l/m² 21,7 km/h (4 Bft) N-NW 339 ° 1 min 668 W/m² 1,5 °C 9,9 °C 30,6 km/h (5 Bft)
06.04.2026 15:33 22,4 °C 15,4 °C 48 % 39 % 1025,9 hPa 0,0 l/m² 10,7 km/h (2 Bft) W-NW 297 ° 1 min 659 W/m² 1,5 °C 13,3 °C 20,9 km/h (4 Bft)
06.04.2026 15:35 22,4 °C 15,4 °C 48 % 38 % 1025,9 hPa 0,0 l/m² 16,7 km/h (3 Bft) W-NW 301 ° 2 min 652 W/m² 1,2 °C 11,2 °C 27,4 km/h (5 Bft)
06.04.2026 15:37 22,4 °C 15,5 °C 48 % 39 % 1025,9 hPa 0,0 l/m² 17,1 km/h (3 Bft) NW 312 ° 2 min 649 W/m² 1,6 °C 11,2 °C 25,7 km/h (4 Bft)
06.04.2026 15:39 22,4 °C 15,5 °C 48 % 39 % 1025,9 hPa 0,0 l/m² 14,4 km/h (3 Bft) N-NW 332 ° 2 min 642 W/m² 1,6 °C 12,0 °C 25,7 km/h (4 Bft)
06.04.2026 15:41 22,4 °C 15,5 °C 48 % 39 % 1025,9 hPa 0,0 l/m² 16,0 km/h (3 Bft) N-NW 332 ° 2 min 643 W/m² 1,6 °C 11,5 °C 22,5 km/h (4 Bft)
06.04.2026 15:42 22,4 °C 15,5 °C 48 % 39 % 1025,9 hPa 0,0 l/m² 13,7 km/h (3 Bft) NW 309 ° 1 min 640 W/m² 1,6 °C 12,2 °C 16,1 km/h (3 Bft)
06.04.2026 15:43 22,4 °C 15,5 °C 48 % 39 % 1025,8 hPa 0,0 l/m² 13,1 km/h (3 Bft) NW 319 ° 1 min 638 W/m² 1,6 °C 12,4 °C 17,7 km/h (3 Bft)
06.04.2026 15:45 22,4 °C 15,6 °C 48 % 39 % 1025,8 hPa 0,0 l/m² 12,6 km/h (3 Bft) W-NW 283 ° 2 min 631 W/m² 1,7 °C 12,7 °C 19,3 km/h (3 Bft)
06.04.2026 15:48 22,4 °C 15,7 °C 48 % 40 % 1025,8 hPa 0,0 l/m² 15,7 km/h (3 Bft) N-NW 330 ° 3 min 622 W/m² 2,1 °C 11,8 °C 24,1 km/h (4 Bft)
06.04.2026 15:50 22,4 °C 15,7 °C 48 % 39 % 1025,8 hPa 0,0 l/m² 18,0 km/h (3 Bft) NW 324 ° 2 min 621 W/m² 1,8 °C 11,2 °C 25,7 km/h (4 Bft)
06.04.2026 15:52 22,4 °C 15,7 °C 48 % 39 % 1025,8 hPa 0,0 l/m² 15,9 km/h (3 Bft) W 279 ° 2 min 612 W/m² 1,8 °C 11,8 °C 25,7 km/h (4 Bft)
06.04.2026 15:53 22,4 °C 15,7 °C 48 % 39 % 1025,8 hPa 0,0 l/m² 16,0 km/h (3 Bft) N-NW 340 ° 1 min 613 W/m² 1,8 °C 11,7 °C 20,9 km/h (4 Bft)
06.04.2026 15:54 22,4 °C 15,7 °C 48 % 38 % 1025,8 hPa 0,0 l/m² 16,8 km/h (3 Bft) W-NW 300 ° 1 min 610 W/m² 1,4 °C 11,5 °C 24,1 km/h (4 Bft)
06.04.2026 15:56 22,5 °C 15,7 °C 48 % 37 % 1025,8 hPa 0,0 l/m² 12,5 km/h (2 Bft) NW 325 ° 2 min 585 W/m² 1,1 °C 12,9 °C 24,1 km/h (4 Bft)
06.04.2026 15:58 22,5 °C 15,7 °C 48 % 38 % 1025,8 hPa 0,0 l/m² 13,5 km/h (3 Bft) NW 311 ° 2 min 594 W/m² 1,4 °C 12,5 °C 22,5 km/h (4 Bft)
06.04.2026 16:00 22,6 °C 15,8 °C 48 % 38 % 1025,8 hPa 0,0 l/m² 13,4 km/h (3 Bft) W 276 ° 2 min 594 W/m² 1,5 °C 12,7 °C 24,1 km/h (4 Bft)
06.04.2026 16:02 22,5 °C 15,8 °C 48 % 36 % 1025,8 hPa 0,0 l/m² 13,6 km/h (3 Bft) W-NW 300 ° 2 min 592 W/m² 0,8 °C 12,6 °C 20,9 km/h (4 Bft)
06.04.2026 16:03 22,5 °C 15,8 °C 48 % 37 % 1025,8 hPa 0,0 l/m² 11,3 km/h (2 Bft) W 261 ° 1 min 591 W/m² 1,1 °C 13,5 °C 16,1 km/h (3 Bft)
06.04.2026 16:04 22,6 °C 15,8 °C 48 % 37 % 1025,8 hPa 0,0 l/m² 14,4 km/h (3 Bft) N-NW 342 ° 1 min 589 W/m² 1,1 °C 12,4 °C 24,1 km/h (4 Bft)
06.04.2026 16:06 22,5 °C 15,9 °C 47 % 38 % 1025,8 hPa 0,0 l/m² 17,2 km/h (3 Bft) NW 313 ° 2 min 587 W/m² 1,6 °C 11,6 °C 25,7 km/h (4 Bft)
06.04.2026 16:08 22,5 °C 15,8 °C 47 % 37 % 1025,8 hPa 0,0 l/m² 18,6 km/h (3 Bft) W-NW 297 ° 2 min 578 W/m² 1,1 °C 11,1 °C 24,1 km/h (4 Bft)
06.04.2026 16:10 22,5 °C 15,7 °C 47 % 37 % 1025,8 hPa 0,0 l/m² 10,4 km/h (2 Bft) N-NW 329 ° 2 min 580 W/m² 1,1 °C 13,7 °C 19,3 km/h (3 Bft)
06.04.2026 16:12 22,4 °C 15,7 °C 47 % 37 % 1025,7 hPa 0,0 l/m² 10,1 km/h (2 Bft) NW 319 ° 2 min 577 W/m² 1,1 °C 13,8 °C 17,7 km/h (3 Bft)
06.04.2026 16:13 22,4 °C 15,8 °C 47 % 38 % 1025,7 hPa 0,0 l/m² 9,0 km/h (2 Bft) N-NW 327 ° 1 min 570 W/m² 1,5 °C 14,5 °C 17,7 km/h (3 Bft)
06.04.2026 16:14 22,4 °C 15,8 °C 46 % 38 % 1025,7 hPa 0,0 l/m² 11,5 km/h (2 Bft) NW 316 ° 1 min 563 W/m² 1,5 °C 13,4 °C 17,7 km/h (3 Bft)
06.04.2026 16:16 22,4 °C 15,8 °C 46 % 39 % 1025,7 hPa 0,0 l/m² 12,5 km/h (2 Bft) W 277 ° 2 min 561 W/m² 1,9 °C 13,0 °C 19,3 km/h (3 Bft)
06.04.2026 16:18 22,4 °C 15,8 °C 46 % 37 % 1025,8 hPa 0,0 l/m² 14,9 km/h (3 Bft) NW 324 ° 2 min 533 W/m² 1,1 °C 12,2 °C 24,1 km/h (4 Bft)
06.04.2026 16:20 22,4 °C 15,9 °C 46 % 38 % 1025,7 hPa 0,0 l/m² 11,1 km/h (2 Bft) W-NW 302 ° 2 min 543 W/m² 1,6 °C 13,7 °C 17,7 km/h (3 Bft)
06.04.2026 16:22 22,4 °C 15,9 °C 46 % 37 % 1025,6 hPa 0,0 l/m² 10,5 km/h (2 Bft) NW 313 ° 2 min 533 W/m² 1,2 °C 13,9 °C 19,3 km/h (3 Bft)
06.04.2026 16:23 22,4 °C 15,9 °C 46 % 38 % 1025,6 hPa 0,0 l/m² 8,0 km/h (2 Bft) NW 320 ° 1 min 529 W/m² 1,6 °C 15,0 °C 14,5 km/h (3 Bft)
06.04.2026 16:24 22,4 °C 16,0 °C 46 % 38 % 1025,6 hPa 0,0 l/m² 13,4 km/h (3 Bft) N-NW 347 ° 1 min 541 W/m² 1,7 °C 12,9 °C 16,1 km/h (3 Bft)
06.04.2026 16:26 22,4 °C 16,0 °C 46 % 37 % 1025,6 hPa 0,0 l/m² 11,1 km/h (2 Bft) N-NW 327 ° 2 min 522 W/m² 1,3 °C 13,8 °C 17,7 km/h (3 Bft)
06.04.2026 16:28 22,4 °C 16,0 °C 46 % 39 % 1025,6 hPa 0,0 l/m² 11,0 km/h (2 Bft) NW 313 ° 2 min 506 W/m² 2,1 °C 13,8 °C 22,5 km/h (4 Bft)
06.04.2026 16:30 22,4 °C 16,1 °C 46 % 37 % 1025,5 hPa 0,0 l/m² 15,5 km/h (3 Bft) W-NW 289 ° 2 min 497 W/m² 1,4 °C 12,4 °C 22,5 km/h (4 Bft)
06.04.2026 16:32 22,6 °C 16,1 °C 46 % 38 % 1025,5 hPa 0,0 l/m² 10,3 km/h (2 Bft) NW 316 ° 2 min 499 W/m² 1,8 °C 14,2 °C 22,5 km/h (4 Bft)
06.04.2026 16:33 22,6 °C 16,1 °C 46 % 38 % 1025,5 hPa 0,0 l/m² 17,2 km/h (3 Bft) NW 317 ° 1 min 504 W/m² 1,8 °C 11,9 °C 25,7 km/h (4 Bft)
06.04.2026 16:34 22,6 °C 16,1 °C 46 % 37 % 1025,5 hPa 0,0 l/m² 16,4 km/h (3 Bft) W-NW 288 ° 1 min 499 W/m² 1,4 °C 12,1 °C 20,9 km/h (4 Bft)
06.04.2026 16:36 22,7 °C 16,0 °C 46 % 37 % 1025,6 hPa 0,0 l/m² 12,5 km/h (2 Bft) W-NW 294 ° 2 min 494 W/m² 1,3 °C 13,2 °C 22,5 km/h (4 Bft)
06.04.2026 16:38 22,9 °C 15,9 °C 45 % 37 % 1025,6 hPa 0,0 l/m² 12,8 km/h (3 Bft) W-NW 286 ° 2 min 490 W/m² 1,2 °C 13,0 °C 20,9 km/h (4 Bft)
06.04.2026 16:40 23,1 °C 15,9 °C 44 % 37 % 1025,6 hPa 0,0 l/m² 10,4 km/h (2 Bft) W-NW 287 ° 2 min 494 W/m² 1,2 °C 13,9 °C 17,7 km/h (3 Bft)
06.04.2026 16:42 23,3 °C 15,9 °C 43 % 38 % 1025,6 hPa 0,0 l/m² 10,8 km/h (2 Bft) NW 321 ° 2 min 476 W/m² 1,6 °C 13,8 °C 17,7 km/h (3 Bft)
06.04.2026 16:43 23,3 °C 15,9 °C 43 % 37 % 1025,6 hPa 0,0 l/m² 12,7 km/h (3 Bft) NW 307 ° 1 min 476 W/m² 1,2 °C 13,1 °C 16,1 km/h (3 Bft)
06.04.2026 16:44 23,4 °C 15,9 °C 42 % 37 % 1025,7 hPa 0,0 l/m² 11,3 km/h (2 Bft) W-NW 292 ° 1 min 462 W/m² 1,2 °C 13,6 °C 14,5 km/h (3 Bft)
06.04.2026 16:46 23,6 °C 15,9 °C 42 % 38 % 1025,8 hPa 0,0 l/m² 14,3 km/h (3 Bft) NW 306 ° 2 min 471 W/m² 1,6 °C 12,5 °C 27,4 km/h (5 Bft)
06.04.2026 16:48 23,8 °C 15,9 °C 41 % 39 % 1025,7 hPa 0,0 l/m² 18,2 km/h (3 Bft) N-NW 329 ° 2 min 471 W/m² 2,0 °C 11,4 °C 22,5 km/h (4 Bft)
06.04.2026 16:50 23,9 °C 15,8 °C 40 % 38 % 1025,7 hPa 0,0 l/m² 14,7 km/h (3 Bft) NW 317 ° 2 min 466 W/m² 1,5 °C 12,3 °C 24,1 km/h (4 Bft)
06.04.2026 16:52 24,2 °C 15,8 °C 40 % 39 % 1025,8 hPa 0,0 l/m² 13,7 km/h (3 Bft) NW 321 ° 2 min 457 W/m² 1,9 °C 12,6 °C 22,5 km/h (4 Bft)
06.04.2026 16:53 24,2 °C 15,8 °C 40 % 37 % 1025,8 hPa 0,0 l/m² 16,7 km/h (3 Bft) NW 307 ° 1 min 457 W/m² 1,1 °C 11,7 °C 24,1 km/h (4 Bft)
06.04.2026 16:54 24,3 °C 15,8 °C 40 % 37 % 1025,7 hPa 0,0 l/m² 11,7 km/h (2 Bft) NW 324 ° 1 min 452 W/m² 1,1 °C 13,3 °C 19,3 km/h (3 Bft)
06.04.2026 16:56 24,4 °C 15,7 °C 40 % 38 % 1025,7 hPa 0,0 l/m² 14,8 km/h (3 Bft) NW 313 ° 2 min 450 W/m² 1,4 °C 12,1 °C 22,5 km/h (4 Bft)
06.04.2026 16:58 24,6 °C 15,7 °C 39 % 39 % 1025,7 hPa 0,0 l/m² 16,9 km/h (3 Bft) NW 307 ° 2 min 436 W/m² 1,8 °C 11,5 °C 29,0 km/h (5 Bft)
06.04.2026 17:00 24,8 °C 15,6 °C 39 % 37 % 1025,7 hPa 0,0 l/m² 16,2 km/h (3 Bft) W-NW 282 ° 2 min 420 W/m² 1,0 °C 11,5 °C 25,7 km/h (4 Bft)
06.04.2026 17:02 25,1 °C 15,5 °C 39 % 37 % 1025,7 hPa 0,0 l/m² 16,6 km/h (3 Bft) W-NW 298 ° 2 min 410 W/m² 0,9 °C 11,3 °C 27,4 km/h (5 Bft)
06.04.2026 17:03 25,1 °C 15,4 °C 39 % 38 % 1025,7 hPa 0,0 l/m² 16,3 km/h (3 Bft) NW 306 ° 1 min 390 W/m² 1,2 °C 11,3 °C 19,3 km/h (3 Bft)
06.04.2026 17:05 25,3 °C 15,3 °C 39 % 39 % 1025,6 hPa 0,0 l/m² 16,6 km/h (3 Bft) N-NW 345 ° 2 min 376 W/m² 1,4 °C 11,1 °C 24,1 km/h (4 Bft)
06.04.2026 17:07 25,6 °C 15,3 °C 39 % 39 % 1025,5 hPa 0,0 l/m² 11,2 km/h (2 Bft) W-NW 298 ° 2 min 406 W/m² 1,4 °C 12,9 °C 19,3 km/h (3 Bft)
06.04.2026 17:09 25,6 °C 15,3 °C 39 % 38 % 1025,6 hPa 0,0 l/m² 17,5 km/h (3 Bft) W-NW 300 ° 2 min 388 W/m² 1,1 °C 10,8 °C 25,7 km/h (4 Bft)
06.04.2026 17:11 25,8 °C 15,2 °C 38 % 38 % 1025,6 hPa 0,0 l/m² 11,2 km/h (2 Bft) NW 321 ° 2 min 381 W/m² 1,0 °C 12,8 °C 17,7 km/h (3 Bft)
06.04.2026 17:12 26,0 °C 15,2 °C 38 % 38 % 1025,6 hPa 0,0 l/m² 8,6 km/h (2 Bft) W-NW 292 ° 1 min 396 W/m² 1,0 °C 14,0 °C 17,7 km/h (3 Bft)
06.04.2026 17:13 26,0 °C 15,2 °C 38 % 39 % 1025,6 hPa 0,0 l/m² 7,6 km/h (2 Bft) W 270 ° 1 min 397 W/m² 1,3 °C 14,5 °C 17,7 km/h (3 Bft)
06.04.2026 17:15 26,2 °C 15,2 °C 38 % 39 % 1025,6 hPa 0,0 l/m² 14,6 km/h (3 Bft) NW 310 ° 2 min 353 W/m² 1,3 °C 11,6 °C 22,5 km/h (4 Bft)
06.04.2026 17:16 26,4 °C 15,2 °C 37 % 38 % 1025,7 hPa 0,0 l/m² 14,4 km/h (3 Bft) N-NW 348 ° 1 min 364 W/m² 1,0 °C 11,6 °C 24,1 km/h (4 Bft)
06.04.2026 17:17 26,6 °C 15,2 °C 37 % 39 % 1025,7 hPa 0,0 l/m² 12,7 km/h (3 Bft) N-NW 334 ° 1 min 374 W/m² 1,3 °C 12,2 °C 19,3 km/h (3 Bft)
06.04.2026 17:18 26,6 °C 15,2 °C 37 % 38 % 1025,7 hPa 0,0 l/m² 11,9 km/h (2 Bft) NW 306 ° 1 min 374 W/m² 1,0 °C 12,5 °C 17,7 km/h (3 Bft)
06.04.2026 17:20 26,9 °C 15,2 °C 37 % 39 % 1025,7 hPa 0,0 l/m² 11,6 km/h (2 Bft) NW 310 ° 2 min 380 W/m² 1,3 °C 12,7 °C 25,7 km/h (4 Bft)
06.04.2026 17:23 27,3 °C 15,2 °C 36 % 40 % 1025,6 hPa 0,0 l/m² 13,9 km/h (3 Bft) W 281 ° 3 min 343 W/m² 1,7 °C 11,8 °C 30,6 km/h (5 Bft)
06.04.2026 17:25 27,7 °C 15,2 °C 35 % 39 % 1025,6 hPa 0,0 l/m² 14,6 km/h (3 Bft) W-NW 297 ° 2 min 336 W/m² 1,3 °C 11,6 °C 20,9 km/h (4 Bft)
06.04.2026 17:27 27,9 °C 15,2 °C 35 % 39 % 1025,8 hPa 0,0 l/m² 17,5 km/h (3 Bft) N 5 ° 2 min 334 W/m² 1,3 °C 10,7 °C 29,0 km/h (5 Bft)
06.04.2026 17:29 28,2 °C 15,1 °C 35 % 40 % 1025,7 hPa 0,0 l/m² 14,2 km/h (3 Bft) N-NW 329 ° 2 min 338 W/m² 1,6 °C 11,6 °C 22,5 km/h (4 Bft)
06.04.2026 17:31 28,5 °C 15,0 °C 35 % 39 % 1025,8 hPa 0,0 l/m² 13,1 km/h (3 Bft) W-NW 288 ° 2 min 334 W/m² 1,2 °C 11,9 °C 20,9 km/h (4 Bft)
06.04.2026 17:32 28,6 °C 15,0 °C 34 % 40 % 1025,9 hPa 0,0 l/m² 8,1 km/h (2 Bft) N-NW 333 ° 1 min 330 W/m² 1,5 °C 14,0 °C 14,5 km/h (3 Bft)
06.04.2026 17:33 28,6 °C 15,0 °C 34 % 41 % 1025,9 hPa 0,0 l/m² 7,3 km/h (2 Bft) NW 313 ° 1 min 325 W/m² 1,9 °C 14,5 °C 12,9 km/h (3 Bft)
06.04.2026 17:35 28,8 °C 15,0 °C 34 % 40 % 1025,8 hPa 0,0 l/m² 12,5 km/h (2 Bft) NW 316 ° 2 min 318 W/m² 1,5 °C 12,1 °C 17,7 km/h (3 Bft)
06.04.2026 17:36 29,0 °C 15,0 °C 34 % 40 % 1025,9 hPa 0,0 l/m² 15,6 km/h (3 Bft) NW 321 ° 1 min 316 W/m² 1,5 °C 11,0 °C 22,5 km/h (4 Bft)
06.04.2026 17:37 29,1 °C 14,9 °C 34 % 40 % 1025,9 hPa 0,0 l/m² 10,5 km/h (2 Bft) NW 314 ° 1 min 311 W/m² 1,4 °C 12,8 °C 17,7 km/h (3 Bft)
06.04.2026 17:38 29,1 °C 14,9 °C 34 % 41 % 1025,9 hPa 0,0 l/m² 8,3 km/h (2 Bft) NW 308 ° 1 min 323 W/m² 1,8 °C 13,8 °C 12,9 km/h (3 Bft)
06.04.2026 17:40 29,3 °C 14,9 °C 34 % 40 % 1025,9 hPa 0,0 l/m² 10,8 km/h (2 Bft) N-NW 344 ° 2 min 294 W/m² 1,4 °C 12,7 °C 19,3 km/h (3 Bft)
06.04.2026 17:43 29,5 °C 14,9 °C 34 % 40 % 1025,9 hPa 0,0 l/m² 12,0 km/h (2 Bft) NW 323 ° 3 min 302 W/m² 1,4 °C 12,2 °C 22,5 km/h (4 Bft)
06.04.2026 17:45 29,6 °C 14,8 °C 33 % 40 % 1025,8 hPa 0,0 l/m² 12,7 km/h (3 Bft) N 5 ° 2 min 288 W/m² 1,3 °C 11,8 °C 20,9 km/h (4 Bft)
06.04.2026 17:47 29,7 °C 14,8 °C 33 % 40 % 1025,9 hPa 0,0 l/m² 12,6 km/h (3 Bft) W-NW 292 ° 2 min 264 W/m² 1,3 °C 11,8 °C 22,5 km/h (4 Bft)
06.04.2026 17:49 29,8 °C 14,8 °C 33 % 40 % 1025,9 hPa 0,0 l/m² 9,7 km/h (2 Bft) W 265 ° 2 min 192 W/m² 1,3 °C 13,0 °C 20,9 km/h (4 Bft)
06.04.2026 17:51 29,9 °C 14,7 °C 33 % 41 % 1025,9 hPa 0,0 l/m² 10,5 km/h (2 Bft) W-NW 287 ° 2 min 234 W/m² 1,6 °C 12,6 °C 19,3 km/h (3 Bft)
06.04.2026 17:52 30,0 °C 14,7 °C 33 % 41 % 1025,9 hPa 0,0 l/m² 13,1 km/h (3 Bft) W-NW 301 ° 1 min 244 W/m² 1,6 °C 11,5 °C 19,3 km/h (3 Bft)
06.04.2026 17:53 30,0 °C 14,7 °C 33 % 41 % 1025,9 hPa 0,0 l/m² 12,3 km/h (2 Bft) NW 306 ° 1 min 216 W/m² 1,6 °C 11,8 °C 17,7 km/h (3 Bft)
06.04.2026 17:55 30,1 °C 14,7 °C 33 % 40 % 1025,8 hPa 0,0 l/m² 11,3 km/h (2 Bft) N 5 ° 2 min 171 W/m² 1,2 °C 12,2 °C 22,5 km/h (4 Bft)
06.04.2026 17:56 30,1 °C 14,6 °C 33 % 40 % 1025,8 hPa 0,0 l/m² 15,4 km/h (3 Bft) W-NW 298 ° 1 min 132 W/m² 1,2 °C 10,6 °C 25,7 km/h (4 Bft)
06.04.2026 17:57 30,2 °C 14,6 °C 33 % 41 % 1025,8 hPa 0,0 l/m² 11,8 km/h (2 Bft) NW 309 ° 1 min 144 W/m² 1,5 °C 11,9 °C 16,1 km/h (3 Bft)
06.04.2026 17:58 30,2 °C 14,6 °C 33 % 41 % 1025,8 hPa 0,0 l/m² 6,6 km/h (2 Bft) N-NW 335 ° 1 min 160 W/m² 1,5 °C 14,5 °C 14,5 km/h (3 Bft)
06.04.2026 18:00 30,2 °C 14,6 °C 32 % 40 % 1025,8 hPa 0,0 l/m² 17,7 km/h (3 Bft) N-NW 333 ° 2 min 216 W/m² 1,2 °C 9,9 °C 25,7 km/h (4 Bft)
06.04.2026 18:03 30,2 °C 14,5 °C 32 % 42 % 1025,8 hPa 0,0 l/m² 11,8 km/h (2 Bft) W-NW 294 ° 3 min 183 W/m² 1,7 °C 11,8 °C 20,9 km/h (4 Bft)
06.04.2026 18:05 30,3 °C 14,5 °C 32 % 40 % 1025,8 hPa 0,0 l/m² 13,4 km/h (3 Bft) N-NW 329 ° 2 min 221 W/m² 1,1 °C 11,2 °C 20,9 km/h (4 Bft)
06.04.2026 18:07 30,3 °C 14,4 °C 32 % 40 % 1025,8 hPa 0,0 l/m² 15,9 km/h (3 Bft) N-NW 330 ° 2 min 169 W/m² 1,0 °C 10,2 °C 25,7 km/h (4 Bft)
06.04.2026 18:09 30,4 °C 14,3 °C 32 % 40 % 1025,8 hPa 0,0 l/m² 17,0 km/h (3 Bft) W-NW 294 ° 2 min 132 W/m² 0,9 °C 9,7 °C 24,1 km/h (4 Bft)
06.04.2026 18:11 30,4 °C 14,3 °C 33 % 41 % 1025,9 hPa 0,0 l/m² 15,9 km/h (3 Bft) N 355 ° 2 min 162 W/m² 1,2 °C 10,0 °C 22,5 km/h (4 Bft)
06.04.2026 18:12 30,4 °C 14,2 °C 33 % 41 % 1025,8 hPa 0,0 l/m² 13,9 km/h (3 Bft) NW 308 ° 1 min 125 W/m² 1,1 °C 10,6 °C 17,7 km/h (3 Bft)
06.04.2026 18:13 30,4 °C 14,2 °C 33 % 41 % 1025,8 hPa 0,0 l/m² 10,5 km/h (2 Bft) N-NW 329 ° 1 min 118 W/m² 1,1 °C 12,0 °C 17,7 km/h (3 Bft)
06.04.2026 18:15 30,4 °C 14,1 °C 33 % 41 % 1025,8 hPa 0,0 l/m² 17,8 km/h (3 Bft) NW 323 ° 2 min 105 W/m² 1,1 °C 9,2 °C 24,1 km/h (4 Bft)
06.04.2026 18:16 30,4 °C 14,0 °C 33 % 41 % 1025,8 hPa 0,0 l/m² 15,3 km/h (3 Bft) N-NW 338 ° 1 min 91 W/m² 1,0 °C 9,9 °C 22,5 km/h (4 Bft)
06.04.2026 18:17 30,4 °C 13,9 °C 33 % 41 % 1025,8 hPa 0,0 l/m² 12,0 km/h (2 Bft) N-NW 329 ° 1 min 83 W/m² 0,9 °C 11,0 °C 16,1 km/h (3 Bft)
06.04.2026 18:18 30,4 °C 13,9 °C 33 % 41 % 1025,8 hPa 0,0 l/m² 16,6 km/h (3 Bft) NW 317 ° 1 min 83 W/m² 0,9 °C 9,3 °C 20,9 km/h (4 Bft)
06.04.2026 18:20 30,4 °C 13,9 °C 33 % 41 % 1025,8 hPa 0,0 l/m² 15,1 km/h (3 Bft) NW 307 ° 2 min 121 W/m² 0,9 °C 9,8 °C 25,7 km/h (4 Bft)
06.04.2026 18:23 30,4 °C 13,8 °C 33 % 42 % 1025,8 hPa 0,0 l/m² 14,0 km/h (3 Bft) N-NW 328 ° 3 min 114 W/m² 1,1 °C 10,1 °C 22,5 km/h (4 Bft)
06.04.2026 18:25 30,3 °C 13,7 °C 33 % 42 % 1025,8 hPa 0,0 l/m² 12,3 km/h (2 Bft) NW 307 ° 2 min 81 W/m² 1,0 °C 10,6 °C 16,1 km/h (3 Bft)
06.04.2026 18:27 30,3 °C 13,7 °C 33 % 43 % 1025,8 hPa 0,0 l/m² 10,4 km/h (2 Bft) NW 304 ° 2 min 102 W/m² 1,4 °C 11,5 °C 17,7 km/h (3 Bft)
06.04.2026 18:29 30,4 °C 13,6 °C 32 % 43 % 1025,8 hPa 0,0 l/m² 11,1 km/h (2 Bft) W-NW 302 ° 2 min 111 W/m² 1,3 °C 11,1 °C 22,5 km/h (4 Bft)
06.04.2026 18:31 30,4 °C 13,6 °C 33 % 43 % 1025,9 hPa 0,0 l/m² 12,7 km/h (3 Bft) NW 305 ° 2 min 97 W/m² 1,3 °C 10,4 °C 19,3 km/h (3 Bft)
06.04.2026 18:32 30,5 °C 13,6 °C 32 % 43 % 1025,8 hPa 0,0 l/m² 11,5 km/h (2 Bft) N-NW 327 ° 1 min 100 W/m² 1,3 °C 10,9 °C 16,1 km/h (3 Bft)
06.04.2026 18:33 30,5 °C 13,6 °C 32 % 43 % 1025,8 hPa 0,0 l/m² 11,2 km/h (2 Bft) W-NW 301 ° 1 min 77 W/m² 1,3 °C 11,0 °C 17,7 km/h (3 Bft)
06.04.2026 18:35 30,6 °C 13,4 °C 32 % 43 % 1025,8 hPa 0,0 l/m² 14,6 km/h (3 Bft) NW 313 ° 2 min 69 W/m² 1,1 °C 9,4 °C 20,9 km/h (4 Bft)
06.04.2026 18:36 30,7 °C 13,4 °C 31 % 43 % 1025,8 hPa 0,0 l/m² 5,8 km/h (2 Bft) W-NW 292 ° 1 min 69 W/m² 1,1 °C 13,4 °C 12,9 km/h (3 Bft)
06.04.2026 18:37 30,7 °C 13,4 °C 30 % 43 % 1025,9 hPa 0,0 l/m² 7,7 km/h (2 Bft) N-NW 329 ° 1 min 70 W/m² 1,1 °C 12,6 °C 12,9 km/h (3 Bft)
06.04.2026 18:38 30,7 °C 13,4 °C 30 % 43 % 1025,9 hPa 0,0 l/m² 7,6 km/h (2 Bft) W-NW 295 ° 1 min 67 W/m² 1,1 °C 12,7 °C 11,3 km/h (2 Bft)
06.04.2026 18:40 30,7 °C 13,4 °C 30 % 44 % 1025,9 hPa 0,0 l/m² 10,0 km/h (2 Bft) W-NW 293 ° 2 min 67 W/m² 1,4 °C 11,4 °C 16,1 km/h (3 Bft)
06.04.2026 18:43 30,8 °C 13,3 °C 30 % 44 % 1026,0 hPa 0,0 l/m² 11,4 km/h (2 Bft) W-NW 300 ° 3 min 84 W/m² 1,3 °C 10,6 °C 20,9 km/h (4 Bft)
06.04.2026 18:45 30,8 °C 13,3 °C 30 % 44 % 1026,0 hPa 0,0 l/m² 9,7 km/h (2 Bft) NW 315 ° 2 min 79 W/m² 1,3 °C 11,4 °C 19,3 km/h (3 Bft)
06.04.2026 18:48 30,9 °C 13,2 °C 30 % 44 % 1026,0 hPa 0,0 l/m² 12,0 km/h (2 Bft) NW 312 ° 3 min 53 W/m² 1,2 °C 10,2 °C 20,9 km/h (4 Bft)
06.04.2026 18:50 30,9 °C 13,2 °C 29 % 44 % 1026,0 hPa 0,0 l/m² 12,8 km/h (3 Bft) W-SW 240 ° 2 min 63 W/m² 1,2 °C 9,9 °C 17,7 km/h (3 Bft)
06.04.2026 18:53 30,9 °C 13,1 °C 29 % 44 % 1026,0 hPa 0,0 l/m² 9,0 km/h (2 Bft) NW 307 ° 3 min 53 W/m² 1,1 °C 11,5 °C 16,1 km/h (3 Bft)
06.04.2026 18:55 31,0 °C 13,0 °C 29 % 44 % 1026,0 hPa 0,0 l/m² 10,8 km/h (2 Bft) NW 306 ° 2 min 60 W/m² 1,0 °C 10,5 °C 16,1 km/h (3 Bft)
06.04.2026 18:57 31,0 °C 12,9 °C 29 % 44 % 1025,9 hPa 0,0 l/m² 7,7 km/h (2 Bft) W-NW 302 ° 0 min 49 W/m² 1,0 °C 12,1 °C 14,5 km/h (3 Bft)
06.04.2026 18:59 31,0 °C 12,9 °C 29 % 45 % 1026,0 hPa 0,0 l/m² 10,2 km/h (2 Bft) N-NW 327 ° 0 min 42 W/m² 1,3 °C 10,7 °C 14,5 km/h (3 Bft)
06.04.2026 19:01 30,9 °C 12,9 °C 29 % 45 % 1025,9 hPa 0,0 l/m² 9,2 km/h (2 Bft) N-NW 342 ° 0 min 49 W/m² 1,3 °C 11,2 °C 19,3 km/h (3 Bft)
06.04.2026 19:02 30,9 °C 12,9 °C 29 % 45 % 1025,9 hPa 0,0 l/m² 13,2 km/h (3 Bft) N-NW 333 ° 0 min 51 W/m² 1,3 °C 9,3 °C 16,1 km/h (3 Bft)
06.04.2026 19:03 30,9 °C 12,8 °C 29 % 45 % 1025,9 hPa 0,0 l/m² 7,3 km/h (2 Bft) NW 309 ° 0 min 49 W/m² 1,2 °C 12,2 °C 9,7 km/h (2 Bft)
06.04.2026 19:05 30,9 °C 12,8 °C 28 % 46 % 1026,0 hPa 0,0 l/m² 8,3 km/h (2 Bft) NW 317 ° 0 min 39 W/m² 1,5 °C 11,6 °C 16,1 km/h (3 Bft)
06.04.2026 19:06 30,9 °C 12,8 °C 28 % 46 % 1026,0 hPa 0,0 l/m² 9,1 km/h (2 Bft) NW 317 ° 0 min 39 W/m² 1,5 °C 11,2 °C 14,5 km/h (3 Bft)
06.04.2026 19:07 30,8 °C 12,7 °C 28 % 46 % 1026,0 hPa 0,0 l/m² 6,1 km/h (2 Bft) NW 322 ° 0 min 39 W/m² 1,4 °C 12,7 °C 9,7 km/h (2 Bft)
06.04.2026 19:08 30,8 °C 12,7 °C 28 % 46 % 1026,0 hPa 0,0 l/m² 5,9 km/h (2 Bft) W-NW 302 ° 0 min 39 W/m² 1,4 °C 12,7 °C 11,3 km/h (2 Bft)
06.04.2026 19:10 30,7 °C 12,6 °C 28 % 46 % 1026,0 hPa 0,0 l/m² 6,5 km/h (2 Bft) NW 321 ° 0 min 35 W/m² 1,3 °C 12,6 °C 14,5 km/h (3 Bft)
06.04.2026 19:13 30,7 °C 12,6 °C 29 % 46 % 1025,9 hPa 0,0 l/m² 7,5 km/h (2 Bft) NW 304 ° 0 min 25 W/m² 1,3 °C 11,9 °C 16,1 km/h (3 Bft)
06.04.2026 19:15 30,6 °C 12,4 °C 29 % 46 % 1025,9 hPa 0,0 l/m² 12,7 km/h (3 Bft) N-NW 342 ° 0 min 28 W/m² 1,1 °C 9,0 °C 20,9 km/h (4 Bft)
06.04.2026 19:17 30,6 °C 12,4 °C 29 % 46 % 1025,9 hPa 0,0 l/m² 10,9 km/h (2 Bft) NW 315 ° 0 min 25 W/m² 1,1 °C 9,8 °C 20,9 km/h (4 Bft)
06.04.2026 19:19 30,4 °C 12,3 °C 29 % 46 % 1025,9 hPa 0,0 l/m² 11,2 km/h (2 Bft) W-NW 297 ° 0 min 23 W/m² 1,0 °C 9,5 °C 22,5 km/h (4 Bft)
06.04.2026 19:21 30,4 °C 12,2 °C 30 % 47 % 1025,9 hPa 0,0 l/m² 9,2 km/h (2 Bft) NW 304 ° 0 min 19 W/m² 1,2 °C 10,5 °C 16,1 km/h (3 Bft)
06.04.2026 19:22 30,4 °C 12,2 °C 30 % 47 % 1025,9 hPa 0,0 l/m² 7,0 km/h (2 Bft) N-NW 341 ° 0 min 19 W/m² 1,2 °C 11,8 °C 11,3 km/h (2 Bft)
06.04.2026 19:23 30,4 °C 12,2 °C 30 % 47 % 1025,9 hPa 0,0 l/m² 6,1 km/h (2 Bft) NW 320 ° 0 min 19 W/m² 1,2 °C 12,2 °C 8,0 km/h (2 Bft)
06.04.2026 19:25 30,3 °C 12,1 °C 30 % 47 % 1025,9 hPa 0,0 l/m² 8,4 km/h (2 Bft) NW 323 ° 0 min 18 W/m² 1,1 °C 10,8 °C 12,9 km/h (3 Bft)
06.04.2026 19:26 30,3 °C 12,1 °C 31 % 48 % 1025,9 hPa 0,0 l/m² 5,3 km/h (1 Bft) NW 308 ° 0 min 18 W/m² 1,4 °C 12,1 °C 9,7 km/h (2 Bft)
06.04.2026 19:27 30,3 °C 12,1 °C 31 % 48 % 1025,9 hPa 0,0 l/m² 6,3 km/h (2 Bft) NW 326 ° 0 min 18 W/m² 1,4 °C 12,1 °C 8,0 km/h (2 Bft)
06.04.2026 19:29 30,3 °C 12,0 °C 31 % 48 % 1025,9 hPa 0,0 l/m² 4,5 km/h (1 Bft) NW 321 ° 0 min 16 W/m² 1,3 °C 12,0 °C 8,0 km/h (2 Bft)
06.04.2026 19:31 30,2 °C 11,9 °C 31 % 48 % 1025,9 hPa 0,0 l/m² 6,2 km/h (2 Bft) NW 308 ° 0 min 14 W/m² 1,2 °C 11,9 °C 14,5 km/h (3 Bft)
06.04.2026 19:32 30,2 °C 11,9 °C 31 % 48 % 1025,9 hPa 0,0 l/m² 7,9 km/h (2 Bft) N-NW 339 ° 0 min 14 W/m² 1,2 °C 10,9 °C 12,9 km/h (3 Bft)
06.04.2026 19:33 30,2 °C 11,8 °C 31 % 48 % 1025,9 hPa 0,0 l/m² 6,4 km/h (2 Bft) N-NW 344 ° 0 min 12 W/m² 1,2 °C 11,8 °C 9,7 km/h (2 Bft)
06.04.2026 19:35 30,2 °C 11,7 °C 31 % 48 % 1025,9 hPa 0,0 l/m² 10,3 km/h (2 Bft) NW 317 ° 0 min 12 W/m² 1,1 °C 9,3 °C 20,9 km/h (4 Bft)
06.04.2026 19:36 30,2 °C 11,7 °C 31 % 48 % 1025,9 hPa 0,0 l/m² 12,2 km/h (2 Bft) N 5 ° 0 min 12 W/m² 1,1 °C 8,4 °C 16,1 km/h (3 Bft)
06.04.2026 19:37 30,1 °C 11,6 °C 31 % 49 % 1026,0 hPa 0,0 l/m² 8,2 km/h (2 Bft) NW 312 ° 0 min 11 W/m² 1,3 °C 10,4 °C 16,1 km/h (3 Bft)
06.04.2026 19:38 30,1 °C 11,6 °C 31 % 49 % 1026,0 hPa 0,0 l/m² 12,5 km/h (2 Bft) W 280 ° 0 min 11 W/m² 1,3 °C 8,1 °C 16,1 km/h (3 Bft)
06.04.2026 19:40 30,0 °C 11,5 °C 32 % 49 % 1026,0 hPa 0,0 l/m² 11,9 km/h (2 Bft) NW 310 ° 0 min 9 W/m² 1,2 °C 8,3 °C 17,7 km/h (3 Bft)
06.04.2026 19:43 29,9 °C 11,3 °C 32 % 49 % 1026,0 hPa 0,0 l/m² 10,0 km/h (2 Bft) NW 310 ° 0 min 9 W/m² 1,0 °C 9,0 °C 19,3 km/h (3 Bft)
06.04.2026 19:45 29,9 °C 11,2 °C 32 % 49 % 1026,1 hPa 0,0 l/m² 9,5 km/h (2 Bft) N-NW 329 ° 0 min 7 W/m² 0,9 °C 9,2 °C 16,1 km/h (3 Bft)
06.04.2026 19:47 29,8 °C 11,2 °C 32 % 49 % 1026,1 hPa 0,0 l/m² 8,2 km/h (2 Bft) NW 319 ° 0 min 7 W/m² 0,9 °C 10,0 °C 14,5 km/h (3 Bft)
06.04.2026 19:49 29,7 °C 11,1 °C 32 % 50 % 1026,1 hPa 0,0 l/m² 10,1 km/h (2 Bft) NW 307 ° 0 min 5 W/m² 1,1 °C 8,8 °C 16,1 km/h (3 Bft)
06.04.2026 19:51 29,6 °C 11,0 °C 32 % 50 % 1026,1 hPa 0,0 l/m² 6,7 km/h (2 Bft) NW 325 ° 0 min 5 W/m² 1,0 °C 10,8 °C 12,9 km/h (3 Bft)
06.04.2026 19:52 29,6 °C 11,0 °C 32 % 50 % 1026,2 hPa 0,0 l/m² 7,2 km/h (2 Bft) NW 314 ° 0 min 0 W/m² 1,0 °C 10,4 °C 14,5 km/h (3 Bft)
06.04.2026 19:53 29,6 °C 10,9 °C 32 % 50 % 1026,2 hPa 0,0 l/m² 8,0 km/h (2 Bft) N-NW 337 ° 0 min 0 W/m² 0,9 °C 9,8 °C 14,5 km/h (3 Bft)
06.04.2026 19:55 29,5 °C 10,9 °C 33 % 50 % 1026,2 hPa 0,0 l/m² 8,3 km/h (2 Bft) N-NW 343 ° 0 min 0 W/m² 0,9 °C 9,6 °C 14,5 km/h (3 Bft)
06.04.2026 19:57 29,4 °C 10,8 °C 33 % 50 % 1026,2 hPa 0,0 l/m² 7,0 km/h (2 Bft) N-NW 340 ° 0 min 0 W/m² 0,8 °C 10,4 °C 12,9 km/h (3 Bft)
06.04.2026 19:59 29,4 °C 10,7 °C 33 % 51 % 1026,2 hPa 0,0 l/m² 8,5 km/h (2 Bft) NW 316 ° 0 min 0 W/m² 1,0 °C 9,3 °C 14,5 km/h (3 Bft)
06.04.2026 20:01 29,3 °C 10,6 °C 33 % 51 % 1026,2 hPa 0,0 l/m² 9,9 km/h (2 Bft) NW 311 ° 0 min 0 W/m² 0,9 °C 8,3 °C 14,5 km/h (3 Bft)
06.04.2026 20:02 29,3 °C 10,6 °C 33 % 51 % 1026,2 hPa 0,0 l/m² 7,0 km/h (2 Bft) NW 321 ° 0 min 0 W/m² 0,9 °C 10,2 °C 12,9 km/h (3 Bft)
06.04.2026 20:03 29,3 °C 10,6 °C 33 % 51 % 1026,2 hPa 0,0 l/m² 9,7 km/h (2 Bft) NW 321 ° 0 min 0 W/m² 0,9 °C 8,4 °C 14,5 km/h (3 Bft)
06.04.2026 20:05 29,2 °C 10,5 °C 33 % 52 % 1026,2 hPa 0,0 l/m² 8,6 km/h (2 Bft) NW 306 ° 0 min 0 W/m² 1,1 °C 9,0 °C 12,9 km/h (3 Bft)
06.04.2026 20:06 29,2 °C 10,4 °C 33 % 52 % 1026,4 hPa 0,0 l/m² 8,0 km/h (2 Bft) W-NW 301 ° 0 min 0 W/m² 1,0 °C 9,3 °C 14,5 km/h (3 Bft)
06.04.2026 20:07 29,1 °C 10,4 °C 33 % 52 % 1026,3 hPa 0,0 l/m² 10,1 km/h (2 Bft) W-NW 299 ° 0 min 0 W/m² 1,0 °C 8,0 °C 14,5 km/h (3 Bft)
06.04.2026 20:08 29,1 °C 10,4 °C 33 % 52 % 1026,3 hPa 0,0 l/m² 7,8 km/h (2 Bft) N-NW 327 ° 0 min 0 W/m² 1,0 °C 9,4 °C 14,5 km/h (3 Bft)
06.04.2026 20:10 29,1 °C 10,3 °C 34 % 52 % 1026,4 hPa 0,0 l/m² 7,4 km/h (2 Bft) NW 325 ° 0 min 0 W/m² 0,9 °C 9,6 °C 14,5 km/h (3 Bft)
06.04.2026 20:13 29,0 °C 10,2 °C 34 % 53 % 1026,3 hPa 0,0 l/m² 9,2 km/h (2 Bft) NW 317 ° 0 min 0 W/m² 1,1 °C 8,3 °C 14,5 km/h (3 Bft)
06.04.2026 20:15 28,9 °C 10,1 °C 34 % 53 % 1026,3 hPa 0,0 l/m² 5,9 km/h (2 Bft) NW 307 ° 0 min 0 W/m² 1,0 °C 10,1 °C 9,7 km/h (2 Bft)
06.04.2026 20:17 28,8 °C 10,1 °C 34 % 53 % 1026,2 hPa 0,0 l/m² 9,2 km/h (2 Bft) NW 321 ° 0 min 0 W/m² 1,0 °C 8,2 °C 14,5 km/h (3 Bft)
06.04.2026 20:19 28,8 °C 10,0 °C 34 % 53 % 1026,3 hPa 0,0 l/m² 7,3 km/h (2 Bft) NW 317 ° 0 min 0 W/m² 0,9 °C 9,3 °C 12,9 km/h (3 Bft)
06.04.2026 20:21 28,7 °C 9,9 °C 35 % 53 % 1026,3 hPa 0,0 l/m² 8,2 km/h (2 Bft) N-NW 327 ° 0 min 0 W/m² 0,8 °C 8,6 °C 12,9 km/h (3 Bft)
06.04.2026 20:22 28,6 °C 9,9 °C 35 % 54 % 1026,3 hPa 0,0 l/m² 8,2 km/h (2 Bft) NW 313 ° 0 min 0 W/m² 1,0 °C 8,6 °C 12,9 km/h (3 Bft)
06.04.2026 20:23 28,6 °C 9,8 °C 35 % 54 % 1026,3 hPa 0,0 l/m² 5,1 km/h (1 Bft) W-NW 284 ° 0 min 0 W/m² 0,9 °C 9,8 °C 6,4 km/h (2 Bft)
06.04.2026 20:25 28,6 °C 9,8 °C 35 % 54 % 1026,4 hPa 0,0 l/m² 7,3 km/h (2 Bft) NW 324 ° 0 min 0 W/m² 0,9 °C 9,1 °C 14,5 km/h (3 Bft)
06.04.2026 20:26 28,6 °C 9,8 °C 35 % 54 % 1026,4 hPa 0,0 l/m² 7,3 km/h (2 Bft) NW 306 ° 0 min 0 W/m² 0,9 °C 9,1 °C 11,3 km/h (2 Bft)
06.04.2026 20:27 28,6 °C 9,7 °C 35 % 54 % 1026,3 hPa 0,0 l/m² 7,0 km/h (2 Bft) NW 313 ° 0 min 0 W/m² 0,9 °C 9,3 °C 9,7 km/h (2 Bft)
06.04.2026 20:28 28,6 °C 9,7 °C 35 % 55 % 1026,3 hPa 0,0 l/m² 7,5 km/h (2 Bft) NW 316 ° 0 min 0 W/m² 1,1 °C 8,9 °C 9,7 km/h (2 Bft)
06.04.2026 20:30 28,5 °C 9,7 °C 35 % 55 % 1026,4 hPa 0,0 l/m² 6,5 km/h (2 Bft) NW 311 ° 0 min 0 W/m² 1,1 °C 9,7 °C 8,0 km/h (2 Bft)
06.04.2026 20:33 28,4 °C 9,6 °C 36 % 55 % 1026,4 hPa 0,0 l/m² 5,4 km/h (2 Bft) NW 315 ° 0 min 0 W/m² 1,0 °C 9,6 °C 11,3 km/h (2 Bft)
06.04.2026 20:35 28,3 °C 9,5 °C 36 % 55 % 1026,4 hPa 0,0 l/m² 5,1 km/h (1 Bft) NW 323 ° 0 min 0 W/m² 0,9 °C 9,5 °C 8,0 km/h (2 Bft)
06.04.2026 20:37 28,3 °C 9,4 °C 36 % 56 % 1026,4 hPa 0,0 l/m² 4,2 km/h (1 Bft) W-NW 300 ° 0 min 0 W/m² 1,1 °C 9,4 °C 6,4 km/h (2 Bft)
06.04.2026 20:39 28,2 °C 9,3 °C 36 % 56 % 1026,4 hPa 0,0 l/m² 4,1 km/h (1 Bft) NW 313 ° 0 min 0 W/m² 1,0 °C 9,3 °C 6,4 km/h (2 Bft)
06.04.2026 20:41 28,2 °C 9,3 °C 36 % 56 % 1026,5 hPa 0,0 l/m² 2,9 km/h (1 Bft) NW 304 ° 0 min 0 W/m² 1,0 °C 9,3 °C 6,4 km/h (2 Bft)
06.04.2026 20:42 28,1 °C 9,2 °C 36 % 56 % 1026,6 hPa 0,0 l/m² 4,4 km/h (1 Bft) NW 317 ° 0 min 0 W/m² 0,9 °C 9,2 °C 6,4 km/h (2 Bft)
06.04.2026 20:43 28,1 °C 9,2 °C 36 % 56 % 1026,6 hPa 0,0 l/m² 2,3 km/h (1 Bft) NW 312 ° 0 min 0 W/m² 0,9 °C 9,2 °C 4,8 km/h (1 Bft)
06.04.2026 20:45 28,1 °C 9,1 °C 36 % 56 % 1026,5 hPa 0,0 l/m² 4,2 km/h (1 Bft) NW 304 ° 0 min 0 W/m² 0,8 °C 9,1 °C 6,4 km/h (2 Bft)
06.04.2026 20:46 28,0 °C 9,1 °C 36 % 56 % 1026,5 hPa 0,0 l/m² 3,5 km/h (1 Bft) W-NW 301 ° 0 min 0 W/m² 0,8 °C 9,1 °C 6,4 km/h (2 Bft)
06.04.2026 20:47 28,0 °C 9,1 °C 36 % 56 % 1026,5 hPa 0,0 l/m² 4,1 km/h (1 Bft) W-NW 295 ° 0 min 0 W/m² 0,8 °C 9,1 °C 6,4 km/h (2 Bft)
06.04.2026 20:48 28,0 °C 9,0 °C 36 % 57 % 1026,5 hPa 0,0 l/m² 2,6 km/h (1 Bft) W-NW 296 ° 0 min 0 W/m² 0,9 °C 9,0 °C 3,2 km/h (1 Bft)
06.04.2026 20:50 27,9 °C 8,9 °C 36 % 56 % 1026,6 hPa 0,0 l/m² 1,0 km/h (0 Bft) W-NW 294 ° 0 min 0 W/m² 0,6 °C 8,9 °C 3,2 km/h (1 Bft)
06.04.2026 20:53 27,8 °C 8,8 °C 36 % 57 % 1026,6 hPa 0,0 l/m² 0,4 km/h (0 Bft) W-NW 294 ° 0 min 0 W/m² 0,8 °C 8,8 °C 3,2 km/h (1 Bft)
06.04.2026 20:55 27,7 °C 8,7 °C 36 % 57 % 1026,6 hPa 0,0 l/m² 0,0 km/h (0 Bft) W-NW 294 ° 0 min 0 W/m² 0,7 °C 8,7 °C 0,0 km/h (0 Bft)
06.04.2026 20:57 27,7 °C 8,6 °C 36 % 57 % 1026,6 hPa 0,0 l/m² 0,0 km/h (0 Bft) W-NW 294 ° 0 min 0 W/m² 0,6 °C 8,6 °C 0,0 km/h (0 Bft)
06.04.2026 20:59 27,6 °C 8,6 °C 36 % 57 % 1026,5 hPa 0,0 l/m² 0,0 km/h (0 Bft) W-NW 294 ° 0 min 0 W/m² 0,6 °C 8,6 °C 0,0 km/h (0 Bft)
06.04.2026 21:01 27,6 °C 8,5 °C 36 % 57 % 1026,6 hPa 0,0 l/m² 0,0 km/h (0 Bft) W-NW 294 ° 0 min 0 W/m² 0,5 °C 8,5 °C 0,0 km/h (0 Bft)
06.04.2026 21:02 27,5 °C 8,4 °C 36 % 57 % 1026,5 hPa 0,0 l/m² 0,0 km/h (0 Bft) W-NW 294 ° 0 min 0 W/m² 0,4 °C 8,4 °C 0,0 km/h (0 Bft)
06.04.2026 21:03 27,5 °C 8,4 °C 36 % 57 % 1026,5 hPa 0,0 l/m² 0,0 km/h (0 Bft) W-NW 294 ° 0 min 0 W/m² 0,4 °C 8,4 °C 0,0 km/h (0 Bft)
06.04.2026 21:05 27,4 °C 8,3 °C 37 % 58 % 1026,5 hPa 0,0 l/m² 0,1 km/h (0 Bft) W-NW 298 ° 0 min 0 W/m² 0,5 °C 8,3 °C 1,6 km/h (1 Bft)
06.04.2026 21:06 27,4 °C 8,3 °C 37 % 58 % 1026,5 hPa 0,0 l/m² 0,1 km/h (0 Bft) W-NW 299 ° 0 min 0 W/m² 0,5 °C 8,3 °C 1,6 km/h (1 Bft)
06.04.2026 21:07 27,3 °C 8,3 °C 37 % 58 % 1026,5 hPa 0,0 l/m² 3,7 km/h (1 Bft) W-NW 302 ° 0 min 0 W/m² 0,5 °C 8,3 °C 6,4 km/h (2 Bft)
06.04.2026 21:08 27,3 °C 8,3 °C 37 % 58 % 1026,5 hPa 0,0 l/m² 1,7 km/h (1 Bft) W-NW 303 ° 0 min 0 W/m² 0,5 °C 8,3 °C 3,2 km/h (1 Bft)
06.04.2026 21:10 27,3 °C 8,2 °C 37 % 58 % 1026,6 hPa 0,0 l/m² 3,0 km/h (1 Bft) NW 319 ° 0 min 0 W/m² 0,4 °C 8,2 °C 6,4 km/h (2 Bft)
06.04.2026 21:13 27,2 °C 8,0 °C 37 % 59 % 1026,7 hPa 0,0 l/m² 3,1 km/h (1 Bft) NW 313 ° 0 min 0 W/m² 0,5 °C 8,0 °C 4,8 km/h (1 Bft)
06.04.2026 21:15 27,2 °C 8,0 °C 37 % 59 % 1026,7 hPa 0,0 l/m² 3,3 km/h (1 Bft) NW 315 ° 0 min 0 W/m² 0,5 °C 8,0 °C 4,8 km/h (1 Bft)
06.04.2026 21:17 27,1 °C 7,9 °C 37 % 59 % 1026,7 hPa 0,0 l/m² 3,4 km/h (1 Bft) NW 325 ° 0 min 0 W/m² 0,4 °C 7,9 °C 6,4 km/h (2 Bft)
06.04.2026 21:19 27,1 °C 7,8 °C 37 % 60 % 1026,8 hPa 0,0 l/m² 3,9 km/h (1 Bft) NW 319 ° 0 min 0 W/m² 0,5 °C 7,8 °C 6,4 km/h (2 Bft)
06.04.2026 21:21 26,9 °C 7,7 °C 36 % 60 % 1026,8 hPa 0,0 l/m² 4,7 km/h (1 Bft) NW 315 ° 0 min 0 W/m² 0,4 °C 7,7 °C 6,4 km/h (2 Bft)
06.04.2026 21:22 26,9 °C 7,7 °C 36 % 60 % 1026,7 hPa 0,0 l/m² 4,6 km/h (1 Bft) NW 309 ° 0 min 0 W/m² 0,4 °C 7,7 °C 6,4 km/h (2 Bft)
06.04.2026 21:23 26,9 °C 7,7 °C 36 % 61 % 1026,7 hPa 0,0 l/m² 4,1 km/h (1 Bft) NW 314 ° 0 min 0 W/m² 0,7 °C 7,7 °C 4,8 km/h (1 Bft)
06.04.2026 21:25 26,9 °C 7,6 °C 36 % 61 % 1026,7 hPa 0,0 l/m² 4,8 km/h (1 Bft) NW 320 ° 0 min 0 W/m² 0,6 °C 7,6 °C 6,4 km/h (2 Bft)
06.04.2026 21:26 26,8 °C 7,6 °C 36 % 61 % 1026,7 hPa 0,0 l/m² 5,3 km/h (1 Bft) NW 317 ° 0 min 0 W/m² 0,6 °C 7,6 °C 8,0 km/h (2 Bft)
06.04.2026 21:27 26,8 °C 7,4 °C 37 % 61 % 1026,7 hPa 0,0 l/m² 3,8 km/h (1 Bft) NW 317 ° 0 min 0 W/m² 0,4 °C 7,4 °C 4,8 km/h (1 Bft)
06.04.2026 21:28 26,8 °C 7,4 °C 37 % 61 % 1026,7 hPa 0,0 l/m² 5,8 km/h (2 Bft) NW 324 ° 0 min 0 W/m² 0,4 °C 7,4 °C 6,4 km/h (2 Bft)
06.04.2026 21:30 26,7 °C 7,3 °C 37 % 62 % 1026,8 hPa 0,0 l/m² 4,8 km/h (1 Bft) NW 309 ° 0 min 0 W/m² 0,5 °C 7,3 °C 6,4 km/h (2 Bft)
06.04.2026 21:33 26,7 °C 7,3 °C 37 % 62 % 1026,8 hPa 0,0 l/m² 6,0 km/h (2 Bft) N-NW 331 ° 0 min 0 W/m² 0,5 °C 7,3 °C 11,3 km/h (2 Bft)
06.04.2026 21:35 26,6 °C 7,2 °C 37 % 62 % 1026,7 hPa 0,0 l/m² 5,7 km/h (2 Bft) N-NW 327 ° 0 min 0 W/m² 0,4 °C 7,2 °C 8,0 km/h (2 Bft)
06.04.2026 21:37 26,6 °C 7,1 °C 37 % 63 % 1026,6 hPa 0,0 l/m² 6,6 km/h (2 Bft) NW 314 ° 0 min 0 W/m² 0,5 °C 7,0 °C 8,0 km/h (2 Bft)
06.04.2026 21:39 26,5 °C 7,0 °C 37 % 63 % 1026,7 hPa 0,0 l/m² 6,1 km/h (2 Bft) NW 304 ° 0 min 0 W/m² 0,4 °C 7,0 °C 8,0 km/h (2 Bft)
06.04.2026 21:41 26,4 °C 6,9 °C 37 % 63 % 1026,6 hPa 0,0 l/m² 6,3 km/h (2 Bft) NW 312 ° 0 min 0 W/m² 0,4 °C 6,9 °C 11,3 km/h (2 Bft)
06.04.2026 21:42 26,4 °C 6,9 °C 37 % 64 % 1026,6 hPa 0,0 l/m² 6,4 km/h (2 Bft) NW 306 ° 0 min 0 W/m² 0,6 °C 6,9 °C 9,7 km/h (2 Bft)
06.04.2026 21:43 26,4 °C 6,9 °C 37 % 63 % 1026,6 hPa 0,0 l/m² 6,0 km/h (2 Bft) NW 305 ° 0 min 0 W/m² 0,4 °C 6,9 °C 14,5 km/h (3 Bft)
06.04.2026 21:45 26,4 °C 6,8 °C 37 % 64 % 1026,7 hPa 0,0 l/m² 7,1 km/h (2 Bft) W-NW 300 ° 0 min 0 W/m² 0,5 °C 6,2 °C 11,3 km/h (2 Bft)
06.04.2026 21:48 26,3 °C 6,8 °C 37 % 64 % 1026,7 hPa 0,0 l/m² 6,7 km/h (2 Bft) NW 324 ° 0 min 0 W/m² 0,5 °C 6,6 °C 9,7 km/h (2 Bft)
06.04.2026 21:50 26,3 °C 6,7 °C 37 % 64 % 1026,7 hPa 0,0 l/m² 6,0 km/h (2 Bft) NW 322 ° 0 min 0 W/m² 0,4 °C 6,7 °C 8,0 km/h (2 Bft)
06.04.2026 21:53 26,2 °C 6,6 °C 37 % 64 % 1026,7 hPa 0,0 l/m² 2,9 km/h (1 Bft) NW 319 ° 0 min 0 W/m² 0,3 °C 6,6 °C 6,4 km/h (2 Bft)
06.04.2026 21:56 26,2 °C 6,6 °C 38 % 65 % 1026,5 hPa 0,0 l/m² 5,0 km/h (1 Bft) NW 323 ° 0 min 0 W/m² 0,5 °C 6,6 °C 8,0 km/h (2 Bft)
06.04.2026 21:58 26,1 °C 6,5 °C 38 % 65 % 1026,6 hPa 0,0 l/m² 6,5 km/h (2 Bft) NW 313 ° 0 min 0 W/m² 0,4 °C 6,4 °C 11,3 km/h (2 Bft)
06.04.2026 22:00 26,1 °C 6,5 °C 38 % 65 % 1026,5 hPa 0,0 l/m² 5,4 km/h (2 Bft) NW 325 ° 0 min 0 W/m² 0,4 °C 6,5 °C 8,0 km/h (2 Bft)
06.04.2026 22:03 26,0 °C 6,4 °C 38 % 66 % 1026,6 hPa 0,0 l/m² 6,9 km/h (2 Bft) NW 315 ° 0 min 0 W/m² 0,5 °C 6,0 °C 9,7 km/h (2 Bft)
06.04.2026 22:05 26,0 °C 6,4 °C 38 % 65 % 1026,6 hPa 0,0 l/m² 6,9 km/h (2 Bft) NW 323 ° 0 min 0 W/m² 0,3 °C 6,0 °C 8,0 km/h (2 Bft)
06.04.2026 22:07 25,9 °C 6,4 °C 38 % 66 % 1026,5 hPa 0,0 l/m² 5,8 km/h (2 Bft) NW 312 ° 0 min 0 W/m² 0,5 °C 6,4 °C 8,0 km/h (2 Bft)
06.04.2026 22:09 25,9 °C 6,3 °C 38 % 66 % 1026,5 hPa 0,0 l/m² 4,7 km/h (1 Bft) NW 324 ° 0 min 0 W/m² 0,4 °C 6,3 °C 6,4 km/h (2 Bft)
06.04.2026 22:11 25,9 °C 6,3 °C 38 % 66 % 1026,4 hPa 0,0 l/m² 5,6 km/h (2 Bft) NW 315 ° 0 min 0 W/m² 0,4 °C 6,3 °C 8,0 km/h (2 Bft)
06.04.2026 22:12 25,9 °C 6,2 °C 38 % 66 % 1026,4 hPa 0,0 l/m² 5,8 km/h (2 Bft) N-NO 15 ° 0 min 0 W/m² 0,3 °C 6,2 °C 8,0 km/h (2 Bft)
06.04.2026 22:13 25,8 °C 6,2 °C 38 % 66 % 1026,4 hPa 0,0 l/m² 6,4 km/h (2 Bft) NW 325 ° 0 min 0 W/m² 0,3 °C 6,2 °C 9,7 km/h (2 Bft)
06.04.2026 22:14 25,8 °C 6,2 °C 38 % 66 % 1026,4 hPa 0,0 l/m² 6,2 km/h (2 Bft) W-NW 302 ° 0 min 0 W/m² 0,3 °C 6,2 °C 11,3 km/h (2 Bft)
06.04.2026 22:15 25,8 °C 6,2 °C 38 % 66 % 1026,4 hPa 0,0 l/m² 5,7 km/h (2 Bft) NW 312 ° 0 min 0 W/m² 0,3 °C 6,2 °C 11,3 km/h (2 Bft)
06.04.2026 22:16 25,8 °C 6,2 °C 38 % 66 % 1026,4 hPa 0,0 l/m² 5,5 km/h (2 Bft) NW 322 ° 0 min 0 W/m² 0,3 °C 6,2 °C 8,0 km/h (2 Bft)
06.04.2026 22:17 25,8 °C 6,2 °C 38 % 66 % 1026,4 hPa 0,0 l/m² 6,3 km/h (2 Bft) N-NW 328 ° 0 min 0 W/m² 0,3 °C 6,2 °C 8,0 km/h (2 Bft)
06.04.2026 22:18 25,8 °C 6,2 °C 38 % 66 % 1026,5 hPa 0,0 l/m² 5,7 km/h (2 Bft) NW 321 ° 0 min 0 W/m² 0,3 °C 6,2 °C 8,0 km/h (2 Bft)
06.04.2026 22:19 25,7 °C 6,2 °C 38 % 66 % 1026,5 hPa 0,0 l/m² 5,9 km/h (2 Bft) NW 316 ° 0 min 0 W/m² 0,3 °C 6,2 °C 8,0 km/h (2 Bft)
06.04.2026 22:20 25,7 °C 6,2 °C 38 % 66 % 1026,5 hPa 0,0 l/m² 4,9 km/h (1 Bft) NW 312 ° 0 min 0 W/m² 0,3 °C 6,2 °C 6,4 km/h (2 Bft)
06.04.2026 22:22 25,7 °C 6,1 °C 38 % 66 % 1026,6 hPa 0,0 l/m² 4,0 km/h (1 Bft) NW 325 ° 0 min 0 W/m² 0,2 °C 6,1 °C 6,4 km/h (2 Bft)
06.04.2026 22:23 25,7 °C 6,1 °C 39 % 66 % 1026,7 hPa 0,0 l/m² 2,9 km/h (1 Bft) NW 323 ° 0 min 0 W/m² 0,2 °C 6,1 °C 3,2 km/h (1 Bft)
06.04.2026 22:24 25,7 °C 6,1 °C 39 % 66 % 1026,6 hPa 0,0 l/m² 3,7 km/h (1 Bft) NW 320 ° 0 min 0 W/m² 0,2 °C 6,1 °C 4,8 km/h (1 Bft)
06.04.2026 22:25 25,7 °C 6,1 °C 39 % 66 % 1026,5 hPa 0,0 l/m² 3,9 km/h (1 Bft) NW 321 ° 0 min 0 W/m² 0,2 °C 6,1 °C 4,8 km/h (1 Bft)
06.04.2026 22:26 25,7 °C 6,1 °C 39 % 67 % 1026,5 hPa 0,0 l/m² 5,4 km/h (2 Bft) NW 312 ° 0 min 0 W/m² 0,4 °C 6,1 °C 6,4 km/h (2 Bft)
06.04.2026 22:27 25,7 °C 6,1 °C 39 % 67 % 1026,5 hPa 0,0 l/m² 6,4 km/h (2 Bft) NW 305 ° 0 min 0 W/m² 0,4 °C 6,1 °C 11,3 km/h (2 Bft)
06.04.2026 22:28 25,6 °C 6,1 °C 39 % 67 % 1026,6 hPa 0,0 l/m² 4,8 km/h (1 Bft) W 280 ° 0 min 0 W/m² 0,4 °C 6,1 °C 8,0 km/h (2 Bft)
06.04.2026 22:29 25,7 °C 6,1 °C 39 % 67 % 1026,5 hPa 0,0 l/m² 4,5 km/h (1 Bft) NW 323 ° 0 min 0 W/m² 0,4 °C 6,1 °C 11,3 km/h (2 Bft)
06.04.2026 22:31 25,6 °C 6,1 °C 39 % 67 % 1026,6 hPa 0,0 l/m² 5,4 km/h (2 Bft) NW 306 ° 0 min 0 W/m² 0,4 °C 6,1 °C 8,0 km/h (2 Bft)
06.04.2026 22:33 25,6 °C 6,0 °C 39 % 67 % 1026,7 hPa 0,0 l/m² 6,1 km/h (2 Bft) NW 325 ° 0 min 0 W/m² 0,3 °C 6,0 °C 11,3 km/h (2 Bft)
06.04.2026 22:34 25,6 °C 6,0 °C 39 % 67 % 1026,7 hPa 0,0 l/m² 4,2 km/h (1 Bft) NW 326 ° 0 min 0 W/m² 0,3 °C 6,0 °C 6,4 km/h (2 Bft)
06.04.2026 22:35 25,6 °C 6,0 °C 39 % 67 % 1026,8 hPa 0,0 l/m² 7,1 km/h (2 Bft) NW 315 ° 0 min 0 W/m² 0,3 °C 5,4 °C 9,7 km/h (2 Bft)
06.04.2026 22:36 25,5 °C 6,0 °C 39 % 67 % 1026,7 hPa 0,0 l/m² 4,6 km/h (1 Bft) NW 321 ° 0 min 0 W/m² 0,3 °C 6,0 °C 6,4 km/h (2 Bft)
06.04.2026 22:37 25,4 °C 5,9 °C 39 % 67 % 1026,6 hPa 0,0 l/m² 3,6 km/h (1 Bft) N-NW 327 ° 0 min 0 W/m² 0,3 °C 5,9 °C 6,4 km/h (2 Bft)
06.04.2026 22:38 25,5 °C 6,0 °C 39 % 67 % 1026,8 hPa 0,0 l/m² 1,4 km/h (1 Bft) NW 314 ° 0 min 0 W/m² 0,3 °C 6,0 °C 3,2 km/h (1 Bft)
06.04.2026 22:39 25,5 °C 5,9 °C 39 % 67 % 1026,7 hPa 0,0 l/m² 2,5 km/h (1 Bft) W-NW 296 ° 0 min 0 W/m² 0,3 °C 5,9 °C 3,2 km/h (1 Bft)
06.04.2026 22:40 25,4 °C 5,9 °C 39 % 67 % 1026,6 hPa 0,0 l/m² 4,4 km/h (1 Bft) NW 309 ° 0 min 0 W/m² 0,3 °C 5,9 °C 6,4 km/h (2 Bft)
06.04.2026 22:42 25,4 °C 5,9 °C 39 % 67 % 1026,7 hPa 0,0 l/m² 4,6 km/h (1 Bft) NW 320 ° 0 min 0 W/m² 0,3 °C 5,9 °C 6,4 km/h (2 Bft)
06.04.2026 22:43 25,4 °C 5,9 °C 39 % 67 % 1026,5 hPa 0,0 l/m² 3,4 km/h (1 Bft) W-NW 300 ° 0 min 0 W/m² 0,3 °C 5,9 °C 4,8 km/h (1 Bft)
06.04.2026 22:44 25,4 °C 5,9 °C 39 % 67 % 1026,6 hPa 0,0 l/m² 3,0 km/h (1 Bft) W-NW 297 ° 0 min 0 W/m² 0,3 °C 5,9 °C 4,8 km/h (1 Bft)
06.04.2026 22:45 25,4 °C 5,9 °C 39 % 67 % 1026,5 hPa 0,0 l/m² 0,6 km/h (0 Bft) W-NW 297 ° 0 min 0 W/m² 0,3 °C 5,9 °C 3,2 km/h (1 Bft)
06.04.2026 22:46 25,4 °C 5,9 °C 39 % 67 % 1026,5 hPa 0,0 l/m² 2,2 km/h (1 Bft) W-NW 285 ° 0 min 0 W/m² 0,3 °C 5,9 °C 4,8 km/h (1 Bft)
06.04.2026 22:47 25,3 °C 5,9 °C 39 % 67 % 1026,6 hPa 0,0 l/m² 2,1 km/h (1 Bft) W-NW 286 ° 0 min 0 W/m² 0,3 °C 5,9 °C 3,2 km/h (1 Bft)
06.04.2026 22:48 25,4 °C 5,9 °C 39 % 67 % 1026,7 hPa 0,0 l/m² 1,2 km/h (1 Bft) W-NW 286 ° 0 min 0 W/m² 0,3 °C 5,9 °C 3,2 km/h (1 Bft)
06.04.2026 22:49 25,3 °C 5,8 °C 40 % 67 % 1026,6 hPa 0,0 l/m² 1,9 km/h (1 Bft) W-NW 294 ° 0 min 0 W/m² 0,2 °C 5,8 °C 3,2 km/h (1 Bft)
06.04.2026 22:51 25,3 °C 5,8 °C 40 % 67 % 1026,8 hPa 0,0 l/m² 2,1 km/h (1 Bft) NW 313 ° 0 min 0 W/m² 0,2 °C 5,8 °C 4,8 km/h (1 Bft)
06.04.2026 22:53 25,3 °C 5,8 °C 40 % 67 % 1026,7 hPa 0,0 l/m² 3,6 km/h (1 Bft) NW 317 ° 0 min 0 W/m² 0,2 °C 5,8 °C 4,8 km/h (1 Bft)
06.04.2026 22:54 25,3 °C 5,8 °C 40 % 67 % 1026,8 hPa 0,0 l/m² 2,7 km/h (1 Bft) W-NW 292 ° 0 min 0 W/m² 0,2 °C 5,8 °C 4,8 km/h (1 Bft)
06.04.2026 22:55 25,3 °C 5,8 °C 40 % 67 % 1026,8 hPa 0,0 l/m² 2,1 km/h (1 Bft) W-NW 294 ° 0 min 0 W/m² 0,2 °C 5,8 °C 3,2 km/h (1 Bft)
06.04.2026 22:56 25,3 °C 5,8 °C 40 % 67 % 1026,8 hPa 0,0 l/m² 1,9 km/h (1 Bft) W-NW 300 ° 0 min 0 W/m² 0,2 °C 5,8 °C 4,8 km/h (1 Bft)
06.04.2026 22:57 25,2 °C 5,7 °C 40 % 67 % 1026,8 hPa 0,0 l/m² 1,5 km/h (1 Bft) NW 306 ° 0 min 0 W/m² 0,1 °C 5,7 °C 4,8 km/h (1 Bft)
06.04.2026 22:58 25,2 °C 5,7 °C 40 % 67 % 1026,8 hPa 0,0 l/m² 0,0 km/h (0 Bft) NW 306 ° 0 min 0 W/m² 0,1 °C 5,7 °C 0,0 km/h (0 Bft)
06.04.2026 22:59 25,2 °C 5,7 °C 40 % 67 % 1026,7 hPa 0,0 l/m² 0,0 km/h (0 Bft) NW 306 ° 0 min 0 W/m² 0,1 °C 5,7 °C 0,0 km/h (0 Bft)
06.04.2026 23:00 25,2 °C 5,7 °C 40 % 67 % 1026,8 hPa 0,0 l/m² 0,0 km/h (0 Bft) NW 306 ° 0 min 0 W/m² 0,1 °C 5,7 °C 0,0 km/h (0 Bft)
06.04.2026 23:02 25,2 °C 5,7 °C 40 % 67 % 1026,7 hPa 0,0 l/m² 1,4 km/h (1 Bft) NW 317 ° 0 min 0 W/m² 0,1 °C 5,7 °C 6,4 km/h (2 Bft)
06.04.2026 23:03 25,2 °C 5,6 °C 40 % 67 % 1026,7 hPa 0,0 l/m² 2,4 km/h (1 Bft) W-NW 292 ° 0 min 0 W/m² -0,0 °C 5,6 °C 6,4 km/h (2 Bft)
06.04.2026 23:04 25,2 °C 5,6 °C 40 % 68 % 1026,8 hPa 0,0 l/m² 1,8 km/h (1 Bft) W-NW 292 ° 0 min 0 W/m² 0,2 °C 5,6 °C 3,2 km/h (1 Bft)
06.04.2026 23:05 25,2 °C 5,6 °C 40 % 68 % 1026,8 hPa 0,0 l/m² 2,0 km/h (1 Bft) W-NW 292 ° 0 min 0 W/m² 0,2 °C 5,6 °C 4,8 km/h (1 Bft)
06.04.2026 23:06 25,2 °C 5,6 °C 40 % 68 % 1026,8 hPa 0,0 l/m² 4,7 km/h (1 Bft) W-NW 297 ° 0 min 0 W/m² 0,2 °C 5,6 °C 6,4 km/h (2 Bft)
06.04.2026 23:08 25,1 °C 5,5 °C 40 % 68 % 1026,8 hPa 0,0 l/m² 5,3 km/h (1 Bft) NW 316 ° 0 min 0 W/m² 0,1 °C 5,5 °C 6,4 km/h (2 Bft)
06.04.2026 23:09 25,1 °C 5,5 °C 40 % 68 % 1026,8 hPa 0,0 l/m² 5,9 km/h (2 Bft) W-NW 299 ° 0 min 0 W/m² 0,1 °C 5,5 °C 8,0 km/h (2 Bft)
06.04.2026 23:11 25,1 °C 5,4 °C 40 % 68 % 1026,8 hPa 0,0 l/m² 4,2 km/h (1 Bft) W-NW 299 ° 0 min 0 W/m² -0,0 °C 5,4 °C 6,4 km/h (2 Bft)
06.04.2026 23:13 25,1 °C 5,4 °C 40 % 69 % 1026,7 hPa 0,0 l/m² 4,0 km/h (1 Bft) NW 311 ° 0 min 0 W/m² 0,2 °C 5,4 °C 6,4 km/h (2 Bft)
06.04.2026 23:14 25,1 °C 5,4 °C 40 % 69 % 1026,7 hPa 0,0 l/m² 1,5 km/h (1 Bft) W-NW 298 ° 0 min 0 W/m² 0,2 °C 5,4 °C 4,8 km/h (1 Bft)
06.04.2026 23:15 25,1 °C 5,3 °C 40 % 69 % 1026,7 hPa 0,0 l/m² 0,3 km/h (0 Bft) W-NW 290 ° 0 min 0 W/m² 0,1 °C 5,3 °C 1,6 km/h (1 Bft)
06.04.2026 23:16 25,0 °C 5,3 °C 40 % 69 % 1026,7 hPa 0,0 l/m² 3,2 km/h (1 Bft) W-NW 292 ° 0 min 0 W/m² 0,1 °C 5,3 °C 6,4 km/h (2 Bft)
06.04.2026 23:17 25,0 °C 5,3 °C 41 % 69 % 1026,7 hPa 0,0 l/m² 3,2 km/h (1 Bft) NW 315 ° 0 min 0 W/m² 0,1 °C 5,3 °C 6,4 km/h (2 Bft)
06.04.2026 23:22 24,9 °C 5,2 °C 41 % 69 % 1026,8 hPa 0,0 l/m² 1,3 km/h (1 Bft) NW 315 ° 0 min 0 W/m² -0,0 °C 5,2 °C 1,6 km/h (1 Bft)
06.04.2026 23:24 24,9 °C 5,2 °C 41 % 69 % 1026,8 hPa 0,0 l/m² 2,6 km/h (1 Bft) NW 310 ° 0 min 0 W/m² -0,0 °C 5,2 °C 4,8 km/h (1 Bft)
06.04.2026 23:25 24,9 °C 5,2 °C 41 % 69 % 1026,8 hPa 0,0 l/m² 4,3 km/h (1 Bft) W-NW 289 ° 0 min 0 W/m² -0,0 °C 5,2 °C 4,8 km/h (1 Bft)
06.04.2026 23:26 24,9 °C 5,2 °C 41 % 70 % 1026,8 hPa 0,0 l/m² 2,9 km/h (1 Bft) SW 226 ° 0 min 0 W/m² 0,2 °C 5,2 °C 4,8 km/h (1 Bft)
06.04.2026 23:28 24,9 °C 5,1 °C 41 % 70 % 1026,8 hPa 0,0 l/m² 0,9 km/h (0 Bft) SW 226 ° 0 min 0 W/m² 0,1 °C 5,1 °C 1,6 km/h (1 Bft)
06.04.2026 23:30 24,9 °C 5,1 °C 41 % 70 % 1026,7 hPa 0,0 l/m² 0,1 km/h (0 Bft) SW 226 ° 0 min 0 W/m² 0,1 °C 5,1 °C 1,6 km/h (1 Bft)
06.04.2026 23:31 24,8 °C 5,1 °C 41 % 70 % 1026,8 hPa 0,0 l/m² 0,0 km/h (0 Bft) SW 226 ° 0 min 0 W/m² 0,1 °C 5,1 °C 0,0 km/h (0 Bft)
06.04.2026 23:32 24,8 °C 5,1 °C 41 % 70 % 1026,8 hPa 0,0 l/m² 0,8 km/h (0 Bft) SW 229 ° 0 min 0 W/m² 0,1 °C 5,1 °C 3,2 km/h (1 Bft)
06.04.2026 23:34 24,8 °C 5,0 °C 41 % 71 % 1026,8 hPa 0,0 l/m² 0,3 km/h (0 Bft) SW 229 ° 0 min 0 W/m² 0,2 °C 5,0 °C 1,6 km/h (1 Bft)
06.04.2026 23:35 24,8 °C 5,0 °C 41 % 71 % 1026,9 hPa 0,0 l/m² 0,0 km/h (0 Bft) SW 229 ° 0 min 0 W/m² 0,2 °C 5,0 °C 0,0 km/h (0 Bft)
06.04.2026 23:37 24,8 °C 5,0 °C 41 % 71 % 1026,9 hPa 0,0 l/m² 0,0 km/h (0 Bft) SW 229 ° 0 min 0 W/m² 0,2 °C 5,0 °C 0,0 km/h (0 Bft)
06.04.2026 23:39 24,8 °C 4,9 °C 41 % 71 % 1026,9 hPa 0,0 l/m² 0,0 km/h (0 Bft) SW 229 ° 0 min 0 W/m² 0,1 °C 4,9 °C 0,0 km/h (0 Bft)
06.04.2026 23:40 24,8 °C 4,9 °C 41 % 71 % 1026,9 hPa 0,0 l/m² 0,3 km/h (0 Bft) SW 229 ° 0 min 0 W/m² 0,1 °C 4,9 °C 1,6 km/h (1 Bft)
06.04.2026 23:41 24,8 °C 4,9 °C 41 % 71 % 1026,8 hPa 0,0 l/m² 0,1 km/h (0 Bft) SW 229 ° 0 min 0 W/m² 0,1 °C 4,9 °C 1,6 km/h (1 Bft)
06.04.2026 23:42 24,8 °C 4,9 °C 41 % 71 % 1026,8 hPa 0,0 l/m² 1,2 km/h (1 Bft) SW 229 ° 0 min 0 W/m² 0,1 °C 4,9 °C 3,2 km/h (1 Bft)
06.04.2026 23:45 24,8 °C 4,8 °C 41 % 71 % 1026,8 hPa 0,0 l/m² 1,8 km/h (1 Bft) SW 229 ° 0 min 0 W/m² -0,0 °C 4,8 °C 4,8 km/h (1 Bft)
06.04.2026 23:47 24,7 °C 4,8 °C 41 % 71 % 1026,9 hPa 0,0 l/m² 2,7 km/h (1 Bft) SW 229 ° 0 min 0 W/m² -0,0 °C 4,8 °C 4,8 km/h (1 Bft)
06.04.2026 23:49 24,7 °C 4,7 °C 41 % 71 % 1026,9 hPa 0,0 l/m² 1,5 km/h (1 Bft) SW 229 ° 0 min 0 W/m² -0,1 °C 4,7 °C 3,2 km/h (1 Bft)
06.04.2026 23:50 24,7 °C 4,7 °C 41 % 71 % 1026,9 hPa 0,0 l/m² 0,1 km/h (0 Bft) SW 229 ° 0 min 0 W/m² -0,1 °C 4,7 °C 1,6 km/h (1 Bft)
06.04.2026 23:51 24,7 °C 4,7 °C 41 % 71 % 1026,9 hPa 0,0 l/m² 0,0 km/h (0 Bft) SW 229 ° 0 min 0 W/m² -0,1 °C 4,7 °C 0,0 km/h (0 Bft)
06.04.2026 23:52 24,7 °C 4,7 °C 41 % 71 % 1026,9 hPa 0,0 l/m² 0,0 km/h (0 Bft) SW 229 ° 0 min 0 W/m² -0,1 °C 4,7 °C 0,0 km/h (0 Bft)
06.04.2026 23:55 24,7 °C 4,6 °C 41 % 71 % 1027,0 hPa 0,0 l/m² 0,0 km/h (0 Bft) SW 229 ° 0 min 0 W/m² -0,2 °C 4,6 °C 0,0 km/h (0 Bft)
06.04.2026 23:57 24,7 °C 4,6 °C 41 % 71 % 1027,0 hPa 0,0 l/m² 0,3 km/h (0 Bft) SW 229 ° 0 min 0 W/m² -0,2 °C 4,6 °C 1,6 km/h (1 Bft)
06.04.2026 23:59 24,7 °C 4,6 °C 41 % 71 % 1026,9 hPa 0,0 l/m² 0,2 km/h (0 Bft) SW 229 ° 0 min 0 W/m² -0,2 °C 4,6 °C 1,6 km/h (1 Bft)
_ Min-Zeit 08:15 06:57 19:10 16:02 00:03 - 23:55 - - - - 23:59 02:28 23:55
Minimum _ 21,7 °C 4,2 °C 28 % 36 % 1020,0 hPa - 0,0 km/h (0 Bft) - - - - -0,2 °C -2,4 °C 0,0 km/h (0 Bft)
_ Max-Zeit 18:59 16:34 16:04 07:27 23:57 23:59 02:28 - - 12:06 11:44 00:19 16:23 09:17
Maximum _ 31,0 °C 16,1 °C 48 % 81 % 1027,0 hPa 0,0 l/m² 29,3 km/h
W (5 Bft)
- - 5 min 872 W/m² 4,8 °C 15,0 °C 41,8 km/h
W (6 Bft)
Durchschnitt _ 23,9 °C 9,7 °C 42 % 59 % 1025,1 hPa #0,0 l/m² 12,7 km/h (3 Bft) W-SW - #11:29 h 239 W/m² 1,7 °C 6,2 °C 18,3 km/h (3 Bft)
© 2009 Mathias Hoßbach